[[{"header":{"parameterUnit":"m.s-1","parameterCategory":1,"la1":30.6,"la2":28.766,"lo1":-90.7593,"lo2":-88.6598,"dy":0.0162,"dx":0.0183,"nx":116,"ny":114,"refTime":"2023-11-09T06:00:00:Z","depth":0,"parameterNumber":2,"parameterNumberName":"U-component_of_WINDS"},"data":[0.0,0.0,0.0,0.0,0.0,0.0,0.0,0.0,0.0,0.0,0.0,0.0,0.0,0.0,0.0,0.0,0.0,0.0,0.0,0.0,0.0,0.0,0.0,0.0,0.0,0.0,0.0,0.0,0.0,0.0,0.0,0.0,0.0,0.0,0.0,0.0,0.0,0.0,0.0,0.0,0.0,0.0,0.0,0.0,0.0,0.0,0.0,0.0,0.0,0.0,0.0,0.0,0.0,0.0,0.0,0.0,0.0,0.0,0.0,0.0,0.0,0.0,0.0,0.0,0.0,0.0,0.0,0.0,0.0,0.0,0.0,0.0,0.0,0.0,0.0,0.0,0.0,0.0,0.0,0.0,0.0,0.0,0.0,0.0,0.0,0.0,0.0,0.0,0.0,0.0,0.0,0.0,0.0,0.0,0.0,0.0,0.0,0.0,0.0,0.0,0.0,0.0,0.0,0.0,0.0,0.0,0.0,0.0,0.0,0.0,0.0,0.0,0.0,0.0,0.0,0.0,0.0,0.0,0.0,0.0,0.0,0.0,0.0,0.0,0.0,0.0,0.0,0.0,0.0,0.0,0.0,0.0,0.0,0.0,0.0,0.0,0.0,0.0,0.0,0.0,0.0,0.0,0.0,0.0,0.0,0.0,0.0,0.0,0.0,0.0,0.0,0.0,0.0,0.0,0.0,0.0,0.0,0.0,0.0,0.0,0.0,0.0,0.0,0.0,0.0,0.0,0.0,0.0,0.0,0.0,0.0,0.0,0.0,0.0,0.0,0.0,0.0,0.0,0.0,0.0,0.0,0.0,0.0,0.0,0.0,0.0,0.0,0.0,0.0,0.0,0.0,0.0,0.0,0.0,0.0,0.0,0.0,0.0,0.0,0.0,0.0,0.0,0.0,0.0,0.0,0.0,0.0,0.0,0.0,0.0,0.0,0.0,0.0,0.0,0.0,0.0,0.0,0.0,0.0,0.0,0.0,0.0,0.0,0.0,0.0,0.0,0.0,0.0,0.0,0.0,0.0,0.0,0.0,0.0,0.0,0.0,0.0,0.0,0.0,0.0,0.0,0.0,0.0,0.0,0.0,0.0,0.0,0.0,0.0,0.0,0.0,0.0,0.0,0.0,0.0,0.0,0.0,0.0,0.0,0.0,0.0,0.0,0.0,0.0,0.0,0.0,0.0,0.0,0.0,0.0,0.0,0.0,0.0,0.0,0.0,0.0,0.0,0.0,0.0,0.0,0.0,0.0,0.0,0.0,0.0,0.0,0.0,0.0,0.0,0.0,0.0,0.0,0.0,0.0,0.0,0.0,0.0,0.0,0.0,0.0,0.0,0.0,0.0,0.0,0.0,0.0,0.0,0.0,0.0,0.0,0.0,0.0,0.0,0.0,0.0,0.0,0.0,0.0,0.0,0.0,0.0,0.0,0.0,0.0,0.0,0.0,0.0,0.0,0.0,0.0,0.0,0.0,0.0,0.0,0.0,0.0,0.0,0.0,0.0,0.0,0.0,0.0,0.0,0.0,0.0,0.0,0.0,0.0,0.0,0.0,0.0,0.0,0.0,0.0,0.0,0.0,0.0,0.0,0.0,0.0,0.0,0.0,0.0,0.0,0.0,0.0,0.0,0.0,0.0,0.0,0.0,0.0,0.0,0.0,0.0,0.0,0.0,0.0,0.0,0.0,0.0,0.0,0.0,0.0,0.0,0.0,0.0,0.0,0.0,0.0,0.0,0.0,0.0,0.0,0.0,0.0,0.0,0.0,0.0,0.0,0.0,0.0,0.0,0.0,0.0,0.0,0.0,0.0,0.0,0.0,0.0,0.0,0.0,0.0,0.0,0.0,0.0,0.0,0.0,0.0,0.0,0.0,0.0,0.0,0.0,0.0,0.0,0.0,0.0,0.0,0.0,0.0,0.0,0.0,0.0,0.0,0.0,0.0,0.0,0.0,0.0,0.0,0.0,0.0,0.0,0.0,0.0,0.0,0.0,0.0,0.0,0.0,0.0,0.0,0.0,0.0,0.0,0.0,0.0,0.0,0.0,0.0,0.0,0.0,0.0,0.0,0.0,0.0,0.0,0.0,0.0,0.0,0.0,0.0,0.0,0.0,0.0,0.0,0.0,0.0,0.0,0.0,0.0,0.0,0.0,0.0,0.0,0.0,0.0,0.0,0.0,0.0,0.0,0.0,0.0,0.0,0.0,0.0,0.0,0.0,0.0,0.0,0.0,0.0,0.0,0.0,0.0,0.0,0.0,0.0,0.0,0.0,0.0,0.0,0.0,0.0,0.0,0.0,0.0,0.0,0.0,0.0,0.0,0.0,0.0,0.0,0.0,0.0,0.0,0.0,0.0,0.0,0.0,0.0,0.0,0.0,0.0,0.0,0.0,0.0,0.0,0.0,0.0,0.0,0.0,0.0,0.0,0.0,0.0,0.0,0.0,0.0,0.0,0.0,0.0,0.0,0.0,0.0,0.0,0.0,0.0,0.0,0.0,0.0,0.0,0.0,0.0,0.0,0.0,0.0,0.0,0.0,0.0,0.0,0.0,0.0,0.0,0.0,0.0,0.0,0.0,0.0,0.0,0.0,0.0,0.0,0.0,0.0,0.0,0.0,0.0,0.0,0.0,0.0,0.0,0.0,0.0,0.0,0.0,0.0,0.0,0.0,0.0,0.0,0.0,0.0,0.0,0.0,0.0,0.0,0.0,0.0,0.0,0.0,0.0,0.0,0.0,0.0,0.0,0.0,0.0,0.0,0.0,0.0,0.0,0.0,0.0,0.0,0.0,0.0,0.0,0.0,0.0,0.0,0.0,0.0,0.0,0.0,0.0,0.0,0.0,0.0,0.0,0.0,0.0,0.0,0.0,0.0,0.0,0.0,0.0,0.0,0.0,0.0,0.0,0.0,0.0,0.0,0.0,0.0,0.0,0.0,0.0,0.0,0.0,0.0,0.0,0.0,0.0,0.0,0.0,0.0,0.0,0.0,0.0,0.0,0.0,0.0,0.0,0.0,0.0,0.0,0.0,0.0,0.0,0.0,0.0,0.0,0.0,0.0,0.0,0.0,0.0,0.0,0.0,0.0,0.0,0.0,0.0,0.0,0.0,0.0,0.0,0.0,0.0,0.0,0.0,0.0,0.0,0.0,0.0,0.0,0.0,0.0,0.0,0.0,0.0,0.0,0.0,0.0,0.0,0.0,0.0,0.0,0.0,0.0,0.0,0.0,0.0,0.0,0.0,0.0,0.0,0.0,0.0,0.0,0.0,0.0,0.0,0.0,0.0,0.0,0.0,0.0,0.0,0.0,0.0,0.0,0.0,0.0,0.0,0.0,0.0,0.0,0.0,0.0,0.0,0.0,0.0,0.0,0.0,0.0,0.0,0.0,0.0,0.0,0.0,0.0,0.0,0.0,0.0,0.0,0.0,0.0,0.0,0.0,0.0,0.0,0.0,0.0,0.0,0.0,0.0,0.0,0.0,0.0,0.0,0.0,0.0,0.0,0.0,0.0,0.0,0.0,0.0,0.0,0.0,0.0,0.0,0.0,0.0,0.0,0.0,0.0,0.0,0.0,0.0,0.0,0.0,0.0,0.0,0.0,0.0,0.0,0.0,0.0,0.0,0.0,0.0,0.0,0.0,0.0,0.0,0.0,0.0,0.0,0.0,0.0,0.0,0.0,0.0,0.0,0.0,0.0,0.0,0.0,0.0,0.0,0.0,0.0,0.0,0.0,0.0,0.0,0.0,0.0,0.0,0.0,0.0,0.0,0.0,0.0,0.0,0.0,0.0,0.0,0.0,0.0,0.0,0.0,0.0,0.0,0.0,0.0,0.0,0.0,0.0,0.0,0.0,0.0,0.0,0.0,0.0,0.0,0.0,0.0,0.0,0.0,0.0,0.0,0.0,0.0,0.0,0.0,0.0,0.0,0.0,0.0,0.0,0.0,0.0,0.0,0.0,0.0,0.0,0.0,0.0,0.0,0.0,0.0,0.0,0.0,0.0,0.0,0.0,0.0,0.0,0.0,0.0,0.0,0.0,0.0,0.0,0.0,0.0,0.0,0.0,0.0,0.0,0.0,0.0,0.0,0.0,0.0,0.0,0.0,0.0,0.0,0.0,0.0,0.0,0.0,0.0,0.0,0.0,0.0,0.0,0.0,0.0,0.0,0.0,0.0,0.0,0.0,0.0,0.0,0.0,0.0,0.0,0.0,0.0,0.0,0.0,0.0,0.0,0.0,0.0,0.0,0.0,0.0,0.0,0.0,0.0,0.0,0.0,0.0,0.0,0.0,0.0,0.0,0.0,0.0,0.0,0.0,0.0,0.0,0.0,0.0,0.0,0.0,0.0,0.0,0.0,0.0,0.0,0.0,0.0,0.0,0.0,0.0,0.0,0.0,0.0,0.0,0.0,0.0,0.0,0.0,0.0,0.0,0.0,0.0,0.0,0.0,0.0,0.0,0.0,0.0,0.0,0.0,0.0,0.0,0.0,0.0,0.0,0.0,0.0,0.0,0.0,0.0,0.0,0.0,0.0,0.0,0.0,0.0,0.0,0.0,0.0,0.0,0.0,0.0,0.0,0.0,0.0,0.0,0.0,0.0,0.0,0.0,0.0,0.0,0.0,0.0,0.0,0.0,0.0,0.0,0.0,0.0,0.0,0.0,0.0,0.0,0.0,0.0,0.0,0.0,0.0,0.0,0.0,0.0,0.0,0.0,0.0,0.0,0.0,0.0,0.0,0.0,0.0,0.0,0.0,0.0,0.0,0.0,0.0,0.0,0.0,0.0,0.0,0.0,0.0,0.0,0.0,0.0,0.0,0.0,0.0,0.0,0.0,0.0,0.0,0.0,0.0,0.0,0.0,0.0,0.0,0.0,0.0,0.0,0.0,0.0,0.0,0.0,0.0,0.0,0.0,0.0,0.0,0.0,0.0,0.0,0.0,0.0,0.0,0.0,0.0,0.0,0.0,0.0,0.0,0.0,0.0,0.0,0.0,0.0,0.0,0.0,0.0,0.0,0.0,0.0,0.0,0.0,0.0,0.0,0.0,0.0,0.0,0.0,0.0,0.0,0.0,0.0,0.0,0.0,0.0,0.0,0.0,0.0,0.0,0.0,0.0,0.0,0.0,0.0,0.0,0.0,0.0,0.0,0.0,0.0,0.0,0.0,0.0,0.0,0.0,0.0,0.0,0.0,0.0,0.0,0.0,0.0,0.0,0.0,0.0,0.0,0.0,0.0,0.0,0.0,0.0,0.0,0.0,0.0,0.0,0.0,0.0,0.0,0.0,0.0,0.0,0.0,0.0,0.0,0.0,0.0,0.0,0.0,0.0,0.0,0.0,0.0,0.0,0.0,0.0,0.0,0.0,0.0,0.0,0.0,0.0,0.0,0.0,0.0,0.0,0.0,0.0,0.0,0.0,0.0,0.0,0.0,0.0,0.0,0.0,0.0,0.0,0.0,0.0,0.0,0.0,0.0,0.0,0.0,0.0,0.0,0.0,0.0,0.0,0.0,0.0,0.0,0.0,0.0,0.0,0.0,0.0,0.0,0.0,0.0,0.0,0.0,0.0,0.0,0.0,0.0,0.0,0.0,0.0,0.0,0.0,0.0,0.0,0.0,0.0,0.0,0.0,0.0,0.0,0.0,0.0,0.0,0.0,0.0,0.0,0.0,0.0,0.0,0.0,0.0,0.0,0.0,0.0,0.0,0.0,0.0,0.0,0.0,0.0,0.0,0.0,0.0,0.0,0.0,0.0,0.0,0.0,0.0,0.0,0.0,0.0,0.0,0.0,0.0,0.0,0.0,0.0,0.0,0.0,0.0,0.0,0.0,0.0,0.0,0.0,0.0,0.0,0.0,0.0,0.0,0.0,0.0,0.0,0.0,0.0,0.0,0.0,0.0,0.0,0.0,0.0,0.0,0.0,0.0,0.0,0.0,0.0,0.0,0.0,0.0,0.0,0.0,0.0,0.0,0.0,0.0,0.0,0.0,0.0,0.0,0.0,0.0,0.0,0.0,0.0,0.0,0.0,0.0,0.0,0.0,0.0,0.0,0.0,0.0,0.0,0.0,0.0,0.0,0.0,0.0,0.0,0.0,0.0,0.0,0.0,0.0,-0.9746,0.0,0.0,0.0,0.0,0.0,0.0,0.0,0.0,0.0,0.0,0.0,0.0,0.0,0.0,0.0,0.0,0.0,0.0,0.0,0.0,0.0,0.0,0.0,0.0,0.0,0.0,0.0,0.0,0.0,0.0,0.0,0.0,0.0,0.0,0.0,0.0,0.0,0.0,0.0,0.0,0.0,0.0,0.0,0.0,0.0,0.0,0.0,0.0,0.0,0.0,0.0,0.0,0.0,0.0,0.0,0.0,0.0,0.0,0.0,0.0,0.0,0.0,0.0,0.0,0.0,0.0,0.0,0.0,0.0,0.0,0.0,0.0,0.0,0.0,0.0,0.0,0.0,0.0,0.0,0.0,0.0,0.0,0.0,0.0,0.0,0.0,0.0,0.0,0.0,0.0,0.0,0.0,0.0,0.0,0.0,0.0,0.0,0.0,0.0,0.0,0.0,0.0,0.0,0.0,0.0,0.0,0.0,0.0,0.0,0.0,0.0,0.0,0.0,0.0,0.0,0.0,-1.1113,0.0,0.0,0.0,0.0,0.0,0.0,0.0,0.0,0.0,0.0,0.0,0.0,0.0,0.0,0.0,0.0,0.0,0.0,0.0,0.0,0.0,0.0,0.0,0.0,0.0,0.0,0.0,0.0,0.0,0.0,0.0,0.0,0.0,0.0,0.0,0.0,0.0,0.0,0.0,0.0,0.0,0.0,0.0,0.0,0.0,0.0,0.0,0.0,0.0,0.0,0.0,0.0,0.0,0.0,0.0,0.0,0.0,0.0,0.0,0.0,0.0,0.0,0.0,0.0,0.0,0.0,0.0,0.0,0.0,0.0,0.0,0.0,0.0,0.0,0.0,0.0,0.0,0.0,0.0,0.0,0.0,0.0,0.0,0.0,0.0,0.0,0.0,0.0,0.0,0.0,0.0,0.0,0.0,0.0,0.0,0.0,0.0,0.0,0.0,0.0,0.0,0.0,0.0,0.0,0.0,0.0,0.0,0.0,-1.3261,-1.2826,-1.2131,-1.2131,-1.1856,-1.1339,-1.1339,-1.1166,-1.1033,-1.3355,0.0,0.0,0.0,0.0,0.0,0.0,0.0,0.0,0.0,0.0,0.0,0.0,0.0,0.0,0.0,0.0,0.0,0.0,0.0,0.0,0.0,0.0,0.0,0.0,0.0,0.0,0.0,0.0,0.0,0.0,0.0,0.0,0.0,0.0,0.0,0.0,0.0,-1.8714,-1.9864,-2.1187,-2.1516,-2.0813,-1.791,0.0,0.0,0.0,0.0,0.0,0.0,0.0,0.0,0.0,0.0,0.0,0.0,0.0,0.0,0.0,0.0,0.0,0.0,0.0,0.0,0.0,0.0,0.0,0.0,0.0,0.0,0.0,0.0,0.0,0.0,0.0,0.0,0.0,0.0,0.0,0.0,0.0,0.0,0.0,0.0,0.0,0.0,0.0,-0.7242,-0.9983,0.0,0.0,0.0,0.0,0.0,0.0,0.0,0.0,0.0,0.0,0.0,0.0,0.0,-1.4756,-1.4973,-1.4266,-1.3888,-1.3802,-1.3119,-1.2347,-1.1513,-1.1513,-1.1072,-1.0304,-1.0304,0.0,-1.1532,-1.2369,0.0,0.0,0.0,0.0,0.0,0.0,0.0,0.0,0.0,0.0,0.0,0.0,0.0,0.0,0.0,0.0,0.0,0.0,0.0,0.0,0.0,0.0,0.0,0.0,0.0,0.0,0.0,0.0,0.0,0.0,0.0,0.0,0.0,0.0,0.0,0.0,-1.8714,-2.0513,-2.0368,-2.1061,-2.1381,-2.1365,-1.9986,-1.8738,-1.7516,-1.4993,0.0,0.0,0.0,0.0,0.0,0.0,0.0,0.0,0.0,0.0,0.0,0.0,0.0,0.0,0.0,0.0,0.0,0.0,0.0,0.0,0.0,0.0,0.0,0.0,0.0,0.0,0.0,0.0,0.0,0.0,0.0,0.0,0.0,0.0,0.0,0.0,0.0,0.0,0.0,-0.9895,-1.2997,-1.4508,-1.3351,-1.2429,0.0,0.0,0.0,0.0,0.0,0.0,0.0,0.0,0.0,-1.6111,-1.6742,-1.6682,-1.5856,-1.5491,-1.4833,-1.3896,-1.3536,-1.2945,-1.2122,-1.2122,-1.1661,-1.0829,-1.0829,-1.1091,-1.1544,-1.2275,-1.278,-1.3235,0.0,0.0,0.0,0.0,-1.5106,-1.466,0.0,0.0,0.0,0.0,0.0,0.0,0.0,0.0,0.0,0.0,0.0,0.0,0.0,0.0,0.0,-1.0246,0.0,0.0,0.0,0.0,0.0,0.0,0.0,0.0,0.0,0.0,0.0,-1.7842,-2.0318,-2.1316,-2.0898,-2.1098,-2.1308,-2.1472,-2.1406,-2.0806,-1.9711,-1.7363,-1.5535,0.0,0.0,0.0,0.0,0.0,0.0,0.0,0.0,0.0,0.0,0.0,0.0,0.0,0.0,0.0,0.0,0.0,0.0,0.0,0.0,0.0,0.0,0.0,0.0,0.0,0.0,0.0,0.0,0.0,0.0,0.0,0.0,0.0,0.0,0.0,0.0,0.0,0.0,-1.3881,-1.6448,-1.6783,-1.5428,-1.4598,0.0,0.0,0.0,0.0,0.0,0.0,-1.6532,-1.7451,-1.7849,-1.7638,-1.8302,-1.7972,-1.6503,-1.6503,-1.5734,-1.4228,-1.4228,-1.3805,-1.3007,-1.3007,-1.2546,-1.1738,-1.1738,-1.1727,-1.1783,-1.2425,-1.2826,-1.3182,-1.472,-1.5197,-1.5062,-1.5062,-1.4792,-1.4328,0.0,0.0,0.0,0.0,0.0,0.0,0.0,0.0,0.0,0.0,0.0,0.0,0.0,0.0,-1.2894,-1.3938,-1.2212,-0.9863,0.0,0.0,0.0,0.0,0.0,0.0,0.0,0.0,0.0,-1.9573,-2.0421,-2.122,-2.1927,-2.2698,-2.3053,-2.3082,-2.275,-2.2167,-2.1266,-1.9284,-1.8212,-1.7525,0.0,0.0,0.0,0.0,0.0,0.0,0.0,0.0,0.0,0.0,0.0,0.0,0.0,0.0,0.0,0.0,0.0,0.0,0.0,0.0,0.0,0.0,0.0,0.0,0.0,0.0,0.0,0.0,0.0,0.0,0.0,0.0,0.0,0.0,0.0,0.0,0.0,0.0,0.0,-1.3475,-1.363,0.0,0.0,0.0,0.0,-1.7333,-1.7907,-1.834,-1.8621,-1.8827,-1.8542,-1.7715,-1.7734,-1.735,-1.6503,-1.6503,-1.6042,-1.5132,-1.5132,-1.467,-1.3843,-1.3843,-1.3406,-1.2623,-1.2623,-1.262,-1.2633,-1.2671,-1.3194,-1.4031,-1.4931,-1.4844,-1.4162,-1.4162,-1.3157,-1.1777,0.0,0.0,0.0,0.0,0.0,0.0,0.0,0.0,0.0,0.0,0.0,0.0,0.0,-1.4295,-1.5875,-1.6261,-1.5289,-1.3359,-1.0262,0.0,0.0,0.0,0.0,0.0,0.0,0.0,-1.9065,-1.9697,-2.1485,-2.2493,-2.2776,-2.3065,-2.3093,-2.2855,-2.2746,-2.2439,-2.1907,-2.0484,-1.9601,-1.8847,-1.5632,-1.3828,0.0,0.0,0.0,0.0,0.0,0.0,0.0,0.0,0.0,0.0,0.0,0.0,0.0,0.0,0.0,0.0,0.0,0.0,0.0,0.0,0.0,0.0,0.0,0.0,0.0,0.0,0.0,0.0,0.0,0.0,0.0,0.0,0.0,0.0,0.0,0.0,0.0,-1.6537,-1.6682,0.0,-1.7603,-1.7701,-1.7917,-1.8332,-1.8622,-1.9063,-1.9728,-1.9807,-1.9927,-2.0139,-1.9638,-1.8965,-1.8126,-1.7549,-1.6849,-1.6022,-1.5465,-1.5036,-1.4747,-1.4747,-1.4266,-1.3464,-1.3513,-1.3543,-1.3547,-1.3571,-1.3783,-1.4095,-1.4403,-1.4351,-1.4041,-1.3514,-1.2948,-1.2441,0.0,0.0,0.0,0.0,0.0,0.0,0.0,0.0,0.0,0.0,0.0,-1.0317,-1.3874,-1.6222,-1.7633,-1.789,-1.6846,-1.5087,-1.2569,0.0,0.0,0.0,-1.198,0.0,0.0,-1.8694,-1.9791,-2.0204,-2.201,-2.2908,-2.2908,-2.2908,-2.2781,-2.2563,-2.2563,-2.2463,-2.2248,-2.1485,-2.0796,-1.9958,-1.715,-1.6203,-1.6194,0.0,0.0,0.0,0.0,0.0,0.0,0.0,0.0,0.0,0.0,0.0,0.0,0.0,0.0,0.0,0.0,0.0,0.0,0.0,0.0,0.0,0.0,0.0,0.0,0.0,0.0,0.0,0.0,0.0,0.0,0.0,0.0,0.0,0.0,0.0,-1.8236,-1.9235,-1.9115,-1.9246,-1.9903,-1.9526,-1.9363,-1.9685,-1.9791,-2.0215,-2.11,-2.0869,-2.0946,-2.1485,-2.0716,-1.9888,-1.9004,-1.8145,-1.7292,-1.6484,-1.5907,-1.5638,-1.5638,-1.5638,-1.5322,-1.4752,-1.4549,-1.445,-1.4484,-1.4511,-1.4545,-1.4549,-1.4531,-1.4355,-1.4043,-1.3495,-1.3124,-1.2949,0.0,0.0,0.0,0.0,0.0,0.0,0.0,0.0,0.0,0.0,-0.8209,-1.129,-1.5808,-1.7238,-1.8132,-1.8843,-1.6696,-1.4886,-1.389,-1.1864,0.0,0.0,0.0,0.0,-1.7822,-1.9258,-2.0399,-2.1204,-2.1938,-2.231,-2.231,-2.231,-2.231,-2.231,-2.231,-2.231,-2.231,-2.231,-2.1904,-2.1083,-1.8794,-1.8702,-1.9536,0.0,0.0,0.0,0.0,0.0,0.0,0.0,0.0,0.0,0.0,0.0,0.0,0.0,0.0,0.0,0.0,0.0,0.0,0.0,0.0,0.0,0.0,0.0,0.0,0.0,0.0,0.0,0.0,0.0,0.0,0.0,0.0,0.0,-2.0011,-1.9977,-2.0118,-2.0897,-2.0503,-2.0211,-2.0353,-2.0257,-2.0545,-2.1477,-2.1562,-2.1947,-2.2793,-2.2004,-2.1543,-2.1543,-2.0735,-1.9881,-1.9054,-1.8177,-1.733,-1.6542,-1.6542,-1.6522,-1.6503,-1.6503,-1.6507,-1.6493,-1.5689,-1.5378,-1.5433,-1.5434,-1.5424,-1.5391,-1.5371,-1.4844,-1.4101,-1.4072,-1.3587,-1.3047,0.0,0.0,0.0,0.0,0.0,0.0,0.0,0.0,0.0,0.0,-0.9192,-1.2531,-1.5929,-1.7675,-1.8674,-1.8877,-1.6821,-1.5209,-1.4505,0.0,0.0,0.0,0.0,0.0,-1.8572,-1.9512,-2.0399,-2.1204,-2.1938,-2.231,-2.231,-2.231,-2.231,-2.231,-2.231,-2.231,-2.231,-2.231,-2.2496,-2.2598,-2.0317,-1.9805,-2.0192,0.0,0.0,0.0,0.0,0.0,0.0,0.0,0.0,0.0,0.0,0.0,0.0,0.0,0.0,0.0,0.0,0.0,0.0,0.0,0.0,0.0,0.0,0.0,0.0,0.0,0.0,0.0,0.0,0.0,0.0,0.0,0.0,-2.0424,-2.0226,-2.026,-2.0489,-2.0934,-2.1277,-2.1595,-2.1863,-2.1863,-2.2009,-2.2399,-2.3024,-2.3494,-2.3725,-2.2908,-2.2447,-2.2447,-2.1043,-2.0169,-1.9938,-1.9081,-1.8203,-1.7369,-1.7369,-1.7061,-1.6503,-1.6503,-1.6847,-1.7404,-1.6592,-1.6286,-1.6334,-1.6344,-1.5976,-1.5332,-1.4707,-1.4316,-1.4023,-1.3388,-1.3423,-1.3801,0.0,0.0,0.0,0.0,0.0,0.0,0.0,0.0,0.0,0.0,-0.9592,-1.2988,-1.5134,-1.6725,-1.7536,-1.7299,-1.5607,-1.4369,-1.3893,0.0,0.0,0.0,0.0,-1.7964,-1.9333,-2.0111,-2.0889,-2.1651,-2.209,-2.231,-2.231,-2.231,-2.231,-2.231,-2.231,-2.231,-2.231,-2.231,-2.2733,-2.3274,-2.1972,-2.1945,-2.2495,-2.0792,-2.0863,-2.1633,-1.9805,-1.9665,-1.9876,-1.7016,0.0,0.0,0.0,0.0,0.0,0.0,0.0,0.0,0.0,0.0,0.0,0.0,0.0,0.0,0.0,0.0,0.0,0.0,0.0,0.0,0.0,0.0,0.0,0.0,-2.1515,-2.1787,-2.1424,-2.1542,-2.1872,-2.2406,-2.2869,-2.3253,-2.3436,-2.3522,-2.3602,-2.3706,-2.4265,-2.4601,-2.4601,-2.3466,-2.2793,-2.2793,-2.1177,-2.0312,-2.0312,-1.9434,-1.8742,-1.8241,-1.8234,-1.8003,-1.7549,-1.7542,-1.7843,-1.8308,-1.7485,-1.7175,-1.7242,-1.7246,-1.6953,0.0,0.0,0.0,0.0,0.0,-1.4184,-1.4602,0.0,0.0,0.0,0.0,0.0,0.0,0.0,0.0,0.0,0.0,0.0,-1.2671,-1.371,-1.4924,-1.5405,-1.4788,-1.3637,-1.2914,0.0,0.0,0.0,-1.595,-1.7929,-1.9384,-2.012,-2.0923,-2.1634,-2.231,-2.231,-2.231,-2.231,-2.231,-2.231,-2.231,-2.231,-2.2361,-2.2429,-2.2429,-2.2902,-2.3646,-2.3646,-2.4374,-2.527,-2.3308,-2.3782,-2.5139,-2.2701,-2.2316,-2.2685,-2.0426,0.0,0.0,0.0,0.0,0.0,0.0,0.0,0.0,0.0,0.0,0.0,0.0,0.0,0.0,0.0,0.0,0.0,0.0,0.0,0.0,0.0,0.0,0.0,0.0,-2.2643,-2.3097,-2.3253,-2.3414,-2.3773,-2.4386,-2.4623,-2.4746,-2.476,-2.4858,-2.4962,-2.501,-2.5163,-2.5274,-2.5303,0.0,0.0,0.0,0.0,-2.0389,-2.0312,-1.9523,-1.9107,-1.8992,-1.91,-1.91,-1.8992,-1.9004,-1.9091,-1.9193,-1.8403,-1.8079,-1.8144,-1.8144,-1.8086,-1.7852,-1.6309,-1.5683,-1.5683,-1.5683,-1.563,-1.5585,0.0,0.0,0.0,0.0,0.0,0.0,0.0,0.0,0.0,-0.5434,-0.8712,-1.1137,-1.2063,-1.3381,-1.3909,-1.3197,-1.2371,-1.2443,0.0,0.0,-1.6349,-1.8183,-1.9249,-2.0162,-2.094,-2.1701,-2.2175,-2.231,-2.231,-2.231,-2.231,-2.231,-2.231,-2.231,-2.231,-2.2632,-2.319,-2.319,-2.3951,-2.5186,-2.5186,-2.4983,-2.4661,-2.4222,-2.4323,-2.456,-2.3439,-2.3897,-2.4741,-2.2703,-2.2818,-2.3255,-2.027,0.0,0.0,0.0,0.0,0.0,0.0,0.0,0.0,0.0,0.0,0.0,0.0,0.0,0.0,0.0,0.0,0.0,0.0,0.0,0.0,-2.2987,-2.4606,-2.5635,-2.5016,-2.4983,-2.48,-2.4321,-2.4284,-2.4375,-2.4526,-2.4591,-2.4708,-2.4986,-2.5034,-2.5141,-2.5284,-2.437,-2.3533,-2.2812,-2.1793,-2.0966,-2.0312,-2.0139,-1.9696,-1.9011,0.0,0.0,-1.8992,-1.8992,-1.9412,-2.0095,-1.9305,-1.8997,-1.9043,-1.9043,-1.8633,-1.7969,-1.7637,-1.7453,-1.7416,-1.7419,-1.7368,-1.7321,0.0,0.0,0.0,0.0,0.0,0.0,0.0,0.0,0.0,0.0,-0.7773,-0.9799,-1.0079,-1.1459,-1.1949,-1.097,-1.1197,0.0,0.0,-1.5593,-1.7134,-1.935,-2.0196,-2.0957,-2.1735,-2.2124,-2.231,-2.231,-2.231,-2.231,-2.231,-2.231,-2.231,-2.231,-2.231,-2.2513,-2.2868,-2.3241,-2.4036,-2.5067,-2.5456,-2.5592,-2.5592,-2.5592,-2.5592,-2.549,-2.4763,-2.4746,-2.4884,-2.3921,-2.3875,-2.3912,-2.2231,-2.0734,-1.9146,0.0,0.0,0.0,0.0,0.0,0.0,0.0,0.0,0.0,0.0,0.0,0.0,0.0,0.0,-2.0051,0.0,0.0,-2.3784,-2.4311,-2.5463,-2.6093,-2.5493,-2.5403,-2.5109,-2.43,-2.419,-2.4247,-2.4339,-2.4426,-2.4575,-2.4752,-2.4911,-2.5034,-2.5152,-2.4476,-2.3706,-2.2831,-2.1947,-2.1119,-2.0312,-2.0312,-2.0081,-1.9658,-2.01,-2.0081,-1.9638,-1.9638,-1.9915,-2.0391,-1.9982,-1.9856,-1.9941,-1.9941,-1.9687,-1.9297,-1.9297,-1.8724,-1.7894,-1.7903,-1.7874,-1.7849,0.0,0.0,0.0,0.0,0.0,0.0,0.0,0.0,0.0,0.0,-0.6801,-0.8546,-0.8275,-0.9577,-1.0208,0.0,0.0,0.0,0.0,-1.6308,-1.7765,-1.9896,-2.0894,-2.1657,-2.2163,-2.2237,-2.231,-2.231,-2.231,-2.231,-2.231,-2.231,-2.231,-2.231,-2.231,-2.2462,-2.2767,-2.3359,-2.4103,-2.4966,-2.5575,-2.6101,-2.6573,-2.6421,-2.6489,-2.659,-2.5764,-2.4922,-2.4228,-2.4332,-2.3809,-2.3119,-2.3207,-2.2302,-2.0809,-1.8718,-1.7369,0.0,0.0,0.0,0.0,0.0,0.0,0.0,0.0,0.0,-1.7529,-1.8765,-2.0122,-2.1391,-2.2343,-2.3577,-2.4768,-2.5597,-2.6104,-2.6182,-2.5711,-2.5513,-2.5109,-2.43,-2.419,-2.419,-2.419,-2.4358,-2.4461,-2.4495,-2.4795,-2.4974,-2.501,-2.457,-2.3937,-2.3081,-2.237,-2.162,-2.0792,-2.0619,-2.0542,-2.0542,-2.0369,-2.0312,-2.0312,-2.0312,-2.0431,-2.0663,-2.086,-2.0996,-2.1094,-2.1094,-2.1016,-2.0859,-2.0859,-1.9841,-1.8402,-1.8391,-1.8384,-1.836,0.0,0.0,0.0,0.0,0.0,0.0,0.0,0.0,0.0,0.0,0.0,0.0,0.0,0.0,0.0,0.0,0.0,0.0,-1.5962,-1.6898,-1.8111,-1.9849,-2.1387,-2.2022,-2.1688,-2.2106,-2.231,-2.231,-2.231,-2.231,-2.231,-2.231,-2.231,-2.231,-2.231,-2.3038,-2.4269,-2.4354,-2.5169,-2.6454,-2.6539,-2.6369,-2.6002,-2.5408,-2.5798,-2.6556,-2.5463,-2.4264,-2.3262,-2.3784,-2.3119,-2.2337,-2.3826,-2.312,-2.1464,-2.018,0.0,-1.6849,-1.4857,-1.3788,-1.3454,-1.4422,-1.4648,-1.5425,0.0,0.0,-1.9353,-2.1216,-2.2255,-2.2897,-2.321,-2.5021,-2.6489,-2.6632,-2.7188,-2.7321,-2.6576,-2.5841,-2.5109,-2.43,-2.419,-2.419,-2.419,-2.4228,-2.4303,-2.4495,-2.47,-2.4864,-2.4979,-2.5107,-2.4793,-2.3975,-2.386,-2.3398,-2.2524,-2.1754,-2.137,-2.137,-2.0639,-2.0312,-2.0312,-2.0312,-2.0766,-2.1609,-2.2509,-2.2851,-2.2812,-2.2871,-2.2441,-2.1758,-2.1758,-2.113,-2.0194,-2.014,-2.0089,-2.0036,0.0,0.0,0.0,0.0,0.0,0.0,0.0,0.0,0.0,0.0,0.0,0.0,0.0,0.0,0.0,0.0,0.0,0.0,-1.5805,-1.6317,-1.7682,-2.0415,-2.1176,-2.1446,-2.1244,-2.1658,-2.1899,-2.1899,-2.218,-2.231,-2.231,-2.231,-2.231,-2.2282,-2.2003,-2.2465,-2.3416,-2.3605,-2.4277,-2.5209,-2.5655,-2.5464,-2.4912,-2.4619,-2.4009,-2.3227,-2.29,-2.2409,0.0,0.0,-2.164,-2.164,-2.2799,-2.2358,-2.1191,-2.0312,-1.9354,0.0,-1.7377,-1.6068,-1.5359,0.0,-1.7186,-1.7701,-1.9865,-2.0363,-2.0819,-2.2337,-2.3425,-2.4211,-2.4603,-2.5988,-2.7163,0.0,-2.7453,-2.7255,-2.6683,-2.5897,-2.5109,-2.43,-2.419,-2.419,-2.419,-2.419,-2.4228,-2.4321,-2.4623,-2.4814,-2.4877,-2.5149,-2.4928,-2.4129,-2.411,-2.3687,-2.2812,-2.2447,-2.2254,-2.2254,-2.1927,-2.1754,-2.1754,-2.1806,-2.2064,-2.2544,-2.2966,-2.3144,-2.3164,-2.3144,-2.293,-2.2598,-2.2637,-2.2421,-2.2006,-2.137,-2.1104,-2.105,0.0,0.0,0.0,0.0,0.0,0.0,0.0,0.0,0.0,0.0,0.0,0.0,0.0,0.0,0.0,0.0,0.0,0.0,0.0,-1.5541,-1.7003,-1.9972,-2.0512,-2.0767,-2.0829,-2.1213,-2.143,-2.143,-2.1781,-2.1945,-2.1945,-2.2049,-2.2149,-2.2215,-2.2002,-2.2294,-2.3029,-2.3272,-2.377,-2.4425,-2.4766,-2.4537,-2.3899,-2.3084,-2.1768,-2.0387,-2.0623,-2.0303,0.0,0.0,-1.9498,-1.9773,-2.1183,-2.0989,-2.0201,-1.9952,-1.9311,-1.8616,-1.8243,-1.7448,-1.7098,-1.8596,-1.9188,-1.9704,-2.0974,-2.1485,-2.2075,-2.339,-2.4333,-2.5053,-2.5495,-2.6522,-2.7387,-2.7558,-2.736,-2.7055,-2.6661,-2.5834,-2.497,-2.4165,-2.4074,-2.4074,-2.4074,-2.4151,-2.419,-2.419,-2.4559,-2.4804,-2.4804,-2.5115,-2.5024,-2.4447,-2.4428,-2.412,-2.3505,-2.3274,-2.3167,-2.3167,-2.2932,-2.2824,-2.2832,-2.3178,-2.3365,-2.346,-2.3709,-2.3848,-2.3887,-2.3848,-2.3672,-2.3457,-2.3516,-2.3379,-2.3102,-2.2578,-2.2226,-2.1977,0.0,0.0,0.0,0.0,0.0,0.0,0.0,0.0,0.0,0.0,0.0,0.0,0.0,0.0,0.0,0.0,0.0,0.0,0.0,-1.4853,-1.6138,-1.7717,-1.9217,-2.0131,-2.0333,-2.0797,-2.1023,-2.1023,-2.1023,-2.1039,-2.1055,-2.143,-2.1774,-2.2015,-2.2394,-2.3125,-2.4058,-2.409,-2.4489,-2.5125,-2.4468,-2.3919,-2.3111,-2.0254,-1.9176,-1.9185,-1.9454,0.0,0.0,-1.7208,-1.6635,-1.6103,-1.9177,-1.9212,0.0,-1.9248,-1.8311,-1.6872,-1.6315,-1.6987,-1.805,-1.889,-1.9885,-2.0983,-2.2323,-2.2664,-2.3143,-2.4782,-2.5173,-2.5281,-2.5563,-2.6522,-2.7213,-2.6879,-2.7046,-2.7055,-2.6661,-2.5627,-2.4617,-2.3804,-2.3714,-2.3714,0.0,-2.4016,-2.419,-2.419,-2.4559,-2.4804,-2.4804,-2.5115,-2.5284,-2.5264,-2.5264,-2.5245,-2.5226,-2.4447,-2.4052,-2.4052,-2.328,-2.2901,-2.2927,-2.3913,-2.4356,-2.4419,-2.5252,-2.5625,-2.5625,-2.5625,-2.5117,-2.4355,-2.4355,-2.3845,-2.3183,-2.3871,-2.3636,-2.2941,0.0,0.0,0.0,0.0,0.0,0.0,0.0,0.0,0.0,0.0,0.0,0.0,0.0,0.0,0.0,0.0,-0.7148,0.0,0.0,-1.2458,-1.3709,-1.6006,-1.7028,-1.7879,-1.8576,-1.9479,-2.0111,-2.055,-2.0862,-2.0991,-2.0991,-2.115,-2.1504,-2.1979,-2.1827,-2.2425,-2.3522,-2.2833,-2.2915,-2.3421,-2.2039,-2.1315,-2.0803,-1.8352,-1.6719,-1.5726,0.0,0.0,-1.561,-1.5006,-1.5108,-1.5661,-1.6713,-1.6716,-1.6553,-1.7584,-1.7996,-1.8268,-1.8969,-1.9472,-2.0026,-2.1198,-2.1764,-2.2233,-2.3086,-2.3295,-2.3417,-2.3928,-2.4268,-2.4325,-2.3768,-2.4876,-2.5882,-2.5985,-2.6265,-2.6499,-2.6588,-2.6271,-2.5531,-2.418,-2.4511,0.0,0.0,0.0,0.0,-2.419,-2.4559,-2.4804,-2.4804,-2.5115,-2.5303,-2.5303,-2.5303,-2.5303,-2.5303,-2.5024,-2.4909,-2.4889,-2.4675,-2.4618,-2.4709,-2.5047,-2.5223,-2.5272,-2.5566,-2.5703,-2.5703,-2.5703,-2.5527,-2.5254,-2.5254,-2.5055,-2.4779,-2.4986,-2.4855,-2.4497,0.0,0.0,0.0,0.0,0.0,0.0,0.0,0.0,0.0,0.0,0.0,0.0,0.0,0.0,0.0,0.0,0.0,-0.7412,0.0,0.0,-1.1869,-1.4111,-1.4868,-1.5667,-1.6635,-1.7386,-1.7999,-1.8505,-1.8683,-1.8921,-1.9154,-1.9421,-1.9877,-2.0485,-2.0798,-2.147,-2.2339,-2.15,-2.1134,-2.1054,-1.9696,-1.8755,-1.7955,-1.5945,-1.462,0.0,0.0,0.0,-1.3868,-1.3396,-1.3946,-1.4823,-1.5078,-1.5571,-1.6198,-1.6797,-1.8125,-1.9615,-2.0483,-2.1051,-2.1665,-2.2742,-2.3011,-2.3116,-2.3505,-2.343,-2.3299,-2.3381,-2.345,-2.3299,-2.2606,-2.3452,-2.4396,-2.4866,-2.5276,-2.5755,-2.6493,-2.649,-2.6042,-2.5001,-2.5351,-2.546,0.0,0.0,0.0,-2.4358,-2.4888,-2.512,-2.4883,-2.5149,-2.5303,-2.5303,-2.5303,-2.5303,-2.5303,-2.5303,-2.5312,-2.536,-2.5427,-2.5668,-2.6085,-2.5771,-2.5992,-2.6602,-2.6309,-2.6348,-2.6621,-2.6621,-2.6621,-2.6621,-2.6621,-2.6597,-2.6512,-2.6446,-2.6391,-2.6157,0.0,0.0,0.0,0.0,0.0,0.0,0.0,0.0,0.0,0.0,0.0,0.0,0.0,0.0,0.0,0.0,0.0,0.0,0.0,0.0,0.0,-1.2015,-1.2761,-1.358,-1.4595,-1.4651,-1.4864,-1.5225,-1.4907,-1.509,-1.5741,-1.6472,-1.709,-1.7697,-1.9366,-2.0259,-2.0482,-2.007,-1.9234,-1.8188,-1.7517,-1.6379,-1.483,-1.3162,0.0,0.0,0.0,0.0,-1.1297,-1.2392,-1.3103,-1.3646,-1.43,-1.5731,-1.7108,-1.6912,-1.8772,-2.0872,-2.0902,-2.1844,-2.2966,-2.352,-2.3655,-2.3625,-2.3565,-2.3101,-2.2802,-2.3187,-2.2747,-2.2264,0.0,0.0,-2.2892,-2.3636,-2.4198,-2.5034,-2.6487,-2.6522,-2.6343,0.0,0.0,0.0,0.0,0.0,0.0,-2.4794,0.0,-2.5773,-2.5158,-2.5327,-2.5399,-2.536,-2.536,-2.5341,-2.5303,-2.5341,-2.5468,-2.5625,-2.5625,-2.6133,-2.7031,-2.6211,-2.6738,-2.8242,-2.7422,-2.7539,-2.8301,-2.8301,-2.8301,-2.8301,-2.8301,-2.8256,-2.8184,-2.8116,-2.8055,-2.7755,0.0,0.0,0.0,0.0,0.0,0.0,0.0,0.0,0.0,0.0,0.0,0.0,0.0,0.0,0.0,0.0,0.0,0.0,0.0,0.0,0.0,0.0,0.0,0.0,0.0,0.0,0.0,-1.4097,-1.4337,-1.4523,-1.4693,-1.5127,-1.5682,-1.6311,-1.7175,-1.7638,-1.7776,-1.7303,-1.6683,-1.5881,0.0,-1.3953,-1.3797,0.0,0.0,0.0,0.0,0.0,0.0,0.0,0.0,0.0,-1.4565,-1.6217,-1.8167,-1.8985,-2.0951,-2.2981,-2.3447,-2.4238,-2.4777,-2.4448,-2.4373,-2.4118,-2.3131,-2.2787,-2.2439,-2.159,-2.1498,-2.1228,0.0,0.0,0.0,-2.3278,-2.4997,0.0,-2.7791,-2.915,0.0,-2.8388,0.0,-2.89,-2.8315,-2.8347,0.0,0.0,-2.7,-2.6824,-2.6658,-2.7012,-2.6948,-2.6294,-2.6274,-2.5967,-2.5303,-2.5947,-2.6666,-2.7434,-2.7434,-2.7612,-2.7969,-2.7734,-2.7871,-2.8281,-2.8066,-2.8086,-2.8301,-2.8301,-2.8301,-2.8301,-2.8301,-2.8227,-2.8116,-2.812,-2.8039,-2.7855,0.0,0.0,0.0,0.0,0.0,0.0,0.0,0.0,0.0,0.0,0.0,0.0,0.0,0.0,0.0,0.0,0.0,0.0,0.0,0.0,0.0,0.0,0.0,0.0,0.0,0.0,0.0,0.0,0.0,0.0,-1.2076,-1.2397,-1.2733,-1.3085,-1.4138,-1.4674,-1.4721,-1.438,0.0,0.0,0.0,0.0,0.0,0.0,0.0,0.0,0.0,0.0,0.0,0.0,0.0,-1.4624,-1.5581,-1.738,-1.9305,-2.0483,0.0,-2.4567,-2.4956,-2.554,-2.5848,-2.5177,-2.4578,-2.3896,-2.2848,-2.2206,-2.1605,-2.0872,-2.0661,0.0,-1.9554,-2.0225,0.0,0.0,0.0,0.0,-2.768,-2.932,-3.0265,0.0,-3.0448,0.0,-3.0099,-3.0063,-2.9913,0.0,-2.8427,-2.7614,-2.7346,-2.7687,-2.7678,-2.7198,-2.7178,-2.6948,-2.6447,-2.6928,-2.7469,-2.8055,-2.8093,-2.8361,-2.8803,-2.8456,-2.8711,-2.9414,0.0,-2.9082,-2.9434,-2.9434,-2.9434,-2.9434,-2.9434,-2.9335,-2.9238,-2.9627,-2.9431,-2.9006,0.0,0.0,0.0,0.0,0.0,0.0,0.0,0.0,0.0,0.0,0.0,0.0,0.0,0.0,0.0,0.0,0.0,0.0,0.0,0.0,0.0,0.0,0.0,0.0,0.0,0.0,0.0,0.0,0.0,0.0,0.0,0.0,0.0,0.0,0.0,0.0,0.0,0.0,0.0,0.0,0.0,0.0,0.0,0.0,0.0,0.0,0.0,0.0,0.0,0.0,-1.3939,-1.5401,-1.694,-1.8766,-2.0569,-2.1857,-2.3954,-2.5914,-2.6093,-2.6434,-2.655,-2.5727,-2.4498,-2.3246,-2.2357,-2.1335,-2.0563,-2.0474,0.0,-1.969,-1.969,-1.988,-2.0397,-2.1556,0.0,-2.4628,-2.7331,-2.8688,-2.9996,-3.1531,-3.1806,-3.1843,-3.1715,-3.1715,-3.1659,-3.1568,-2.988,-2.8636,-2.8151,-2.8358,-2.8483,-2.8409,-2.8179,-2.8102,-2.8236,-2.8121,-2.8145,-2.8341,-2.8521,-2.9046,-2.9815,-2.9236,-2.9746,-3.1035,-3.0391,-3.041,-3.0918,-3.1016,-3.1074,-3.1074,-3.1074,-3.1016,-3.1034,-3.1786,-3.1504,-3.0737,0.0,0.0,0.0,0.0,0.0,0.0,0.0,0.0,0.0,0.0,-0.1925,0.0,0.0,0.0,0.0,0.0,0.0,0.0,0.0,0.0,0.0,0.0,0.0,0.0,0.0,-0.6532,-0.6764,-0.6875,-0.7093,0.0,0.0,0.0,0.0,0.0,0.0,0.0,0.0,0.0,0.0,0.0,0.0,0.0,0.0,0.0,0.0,0.0,0.0,0.0,0.0,0.0,-1.5277,-1.6456,-1.7704,-1.9697,-2.2016,-2.4264,-2.6019,-2.7485,-2.8592,-2.8125,-2.7084,-2.5936,-2.4248,-2.2432,-2.0743,-2.0174,0.0,0.0,-1.9479,-1.969,-1.969,-2.032,-2.1263,-2.2665,-2.4523,-2.6718,-2.9396,-3.0808,-3.2029,0.0,-3.3972,-3.4119,-3.344,-3.3385,0.0,0.0,0.0,-3.1255,-3.1372,-3.1594,-3.1489,-3.1064,-2.964,-2.9236,-2.9967,-2.9256,-2.9292,-3.0072,-3.0859,-3.1369,-3.1597,-3.2224,-3.2324,-3.1992,-3.2519,0.0,-3.0957,-3.168,-3.1973,-3.1973,-3.1973,-3.2282,-3.2765,-3.2921,-3.2753,-3.2468,0.0,0.0,0.0,0.0,0.0,0.0,0.0,0.0,0.0,0.0,-0.3849,-0.2749,0.0,0.0,0.0,0.0,0.0,0.0,0.0,0.0,0.0,0.0,0.0,0.0,0.0,-0.5765,-0.5975,-0.6191,0.0,-0.6425,-0.6425,-0.6635,-0.6605,-0.6433,-0.6897,-0.6941,-0.6721,0.0,0.0,0.0,0.0,0.0,0.0,0.0,0.0,0.0,0.0,0.0,0.0,0.0,-1.4997,-1.6731,-1.7919,-1.9744,-2.1883,-2.4022,-2.5555,-2.685,-2.8052,-2.7719,-2.6651,-2.534,-2.3547,-2.1753,-2.0205,0.0,0.0,0.0,-1.9332,-1.969,-1.969,-2.0398,0.0,-2.192,-2.3759,-2.5897,-2.8149,-2.9835,0.0,-3.356,-3.4523,-3.4844,0.0,0.0,0.0,0.0,0.0,-3.2664,-3.2223,-3.2515,-3.2588,-3.2333,-3.1506,-3.1275,-3.1698,-3.0871,-3.0887,-3.1755,-3.1848,-3.2147,-3.2649,-3.3158,-3.3184,-3.2851,-3.3223,0.0,-3.2226,-3.2656,-3.2812,-3.2812,-3.2812,-3.2985,-3.3252,-3.3719,-3.347,-3.2968,0.0,0.0,0.0,0.0,0.0,0.0,0.0,-0.6379,-0.675,-0.6819,-0.5971,-0.4727,-0.3013,-0.2806,0.0,0.0,0.0,0.0,0.0,0.0,0.0,0.0,0.0,0.0,0.0,0.0,0.0,-0.5765,-0.5765,0.0,0.0,0.0,0.0,0.0,-0.5641,-0.5765,-0.578,-0.5996,0.0,0.0,0.0,-0.5618,0.0,0.0,0.0,0.0,0.0,0.0,0.0,0.0,-1.4011,-1.5878,-1.7154,-1.9046,-2.1205,-2.3055,-2.4471,-2.5739,-2.718,-2.6895,-2.5909,-2.4703,-2.2815,-2.0946,-1.9734,-1.908,0.0,-1.8727,-1.9244,-1.969,-1.969,-2.0398,-2.1039,0.0,-2.2727,-2.4617,-2.6757,-2.8434,-3.0532,0.0,-3.4586,0.0,-3.5265,0.0,0.0,0.0,0.0,0.0,-3.2788,-3.315,-3.3409,-3.3468,-3.3276,-3.3179,-3.3179,-3.2372,-3.2275,-3.2891,-3.2576,-3.2791,-3.3492,-3.381,-3.3847,-3.3691,-3.3887,0.0,0.0,-3.3594,-3.3672,-3.3672,-3.3672,-3.371,-3.3816,-3.449,-3.4206,-3.3545,0.0,0.0,0.0,0.0,0.0,0.0,0.0,-0.7202,-0.824,-0.7603,-0.7559,-0.705,-0.5618,-0.4033,0.0,0.0,0.0,0.0,0.0,0.0,0.0,0.0,0.0,0.0,0.0,0.0,0.0,-0.534,-0.534,0.0,0.0,0.0,0.0,0.0,0.0,-0.534,-0.534,-0.5368,0.0,0.0,0.0,0.0,0.0,0.0,0.0,0.0,0.0,0.0,0.0,0.0,0.0,-1.3143,-1.4726,-1.7505,-2.055,-2.2503,0.0,0.0,-2.7823,-2.6918,-2.5222,-2.475,-2.2298,-1.9674,-1.8601,0.0,-1.8185,-1.8185,-1.9006,-1.969,-1.969,-2.0398,-2.1231,-2.1889,0.0,-2.4488,0.0,-2.831,-2.9897,-3.3387,0.0,0.0,0.0,0.0,0.0,0.0,0.0,0.0,-3.4504,-3.4753,-3.5009,-3.5243,-3.4487,-3.4083,-3.4083,-3.3218,-3.2833,-3.291,-3.3701,-3.4182,-3.4413,-3.5279,-3.5261,-3.4629,-3.543,0.0,0.0,-3.4258,-3.457,-3.457,-3.457,-3.4956,-3.547,-3.5567,-3.5447,-3.5276,0.0,0.0,0.0,0.0,0.0,0.0,0.0,-0.8116,-0.8778,-0.8789,-0.8173,-0.734,-0.6334,-0.5154,-0.4255,0.0,0.0,0.0,0.0,0.0,0.0,0.0,0.0,0.0,0.0,0.0,-0.5309,-0.5309,-0.5309,0.0,0.0,0.0,0.0,0.0,0.0,-0.4634,-0.489,-0.489,0.0,0.0,0.0,0.0,0.0,0.0,0.0,0.0,0.0,0.0,-0.9212,0.0,0.0,0.0,-1.3289,-1.5065,0.0,0.0,-2.1527,-2.3026,-2.5884,-2.5701,-2.4527,-2.4025,-2.1616,-1.9133,-1.838,0.0,-1.7314,-1.7984,-1.8688,-1.9332,-1.9639,-2.0174,-2.0777,0.0,0.0,0.0,-2.5275,0.0,-2.8076,-3.2328,0.0,0.0,0.0,0.0,0.0,0.0,0.0,0.0,-3.5428,-3.521,-3.5223,-3.5493,-3.5161,-3.4988,-3.4988,-3.4122,-3.3949,-3.4468,-3.4429,-3.4703,-3.525,-3.5734,-3.5799,-3.5508,-3.5859,0.0,0.0,-3.5332,-3.5488,-3.5527,-3.6055,-3.6033,-3.582,-3.6871,-3.6823,-3.6315,0.0,0.0,0.0,0.0,0.0,0.0,-0.7588,-0.8445,-0.9006,-0.9327,-0.8471,-0.7558,-0.6743,-0.5851,-0.5104,-0.4563,0.0,0.0,0.0,0.0,0.0,0.0,0.0,0.0,0.0,0.0,-0.548,-0.5481,-0.539,-0.528,0.0,0.0,-0.4446,-0.4454,0.0,0.0,0.0,0.0,0.0,0.0,0.0,0.0,0.0,0.0,0.0,0.0,0.0,0.0,0.0,0.0,0.0,0.0,0.0,0.0,0.0,0.0,-1.902,-2.0536,-2.3566,-2.3933,-2.3424,-2.3031,-2.0987,-1.8846,0.0,0.0,-1.6796,-1.7903,-1.8535,-1.9043,-1.9603,-2.0035,-2.0449,0.0,0.0,-2.2158,-2.3777,-2.4868,-2.6933,0.0,0.0,0.0,0.0,0.0,0.0,0.0,0.0,0.0,-3.6257,-3.5742,-3.5471,-3.5493,-3.5493,-3.5493,-3.5493,-3.4891,-3.4891,-3.5488,-3.502,-3.5108,-3.5691,-3.5845,-3.5933,-3.5996,-3.5996,0.0,0.0,-3.5996,-3.6152,-3.6445,-3.7051,-3.6977,-3.6643,-3.789,-3.7838,-3.7262,0.0,0.0,0.0,0.0,0.0,0.0,0.0,-0.8029,-0.904,-0.8845,-0.863,-0.8119,-0.7112,-0.5983,-0.5309,-0.5277,0.0,0.0,0.0,0.0,0.0,0.0,0.0,0.0,0.0,0.0,-0.5906,-0.5904,-0.5566,-0.5204,-0.4788,-0.4263,-0.4061,-0.4199,0.0,0.0,0.0,0.0,0.0,0.0,0.0,0.0,0.0,0.0,0.0,0.0,0.0,0.0,0.0,0.0,0.0,0.0,0.0,-1.2437,-1.3563,0.0,-1.6593,-1.8112,-2.1197,-2.1846,-2.1701,-2.1883,-2.052,-1.8805,0.0,-1.6951,-1.6796,-1.7903,-1.8535,-1.9043,-1.9603,-2.0035,-2.0449,-2.0926,0.0,0.0,-2.3777,-2.5264,0.0,0.0,0.0,0.0,0.0,0.0,0.0,0.0,0.0,0.0,-3.7128,-3.6578,-3.6045,-3.5512,-3.5493,-3.5493,-3.5493,-3.5474,-3.5474,-3.5493,-3.5488,-3.5566,-3.5703,-3.571,-3.5806,-3.5996,0.0,0.0,0.0,-3.5996,-3.6504,-3.7285,-3.7305,-3.7748,-3.8365,-3.8385,-3.8351,-3.8279,0.0,0.0,0.0,0.0,0.0,0.0,0.0,-0.7098,-0.7674,-0.7343,-0.7415,-0.7073,-0.601,-0.5535,-0.5309,-0.5309,0.0,0.0,0.0,0.0,0.0,0.0,0.0,0.0,0.0,0.0,-0.6045,-0.6314,-0.6196,-0.5845,-0.5212,-0.4557,-0.4089,-0.3704,-0.3138,-0.3375,0.0,0.0,0.0,0.0,0.0,0.0,0.0,0.0,0.0,0.0,0.0,0.0,0.0,0.0,0.0,0.0,0.0,0.0,0.0,-1.3396,-1.4824,-1.6625,-1.8494,-1.9123,-1.9214,-1.901,-1.7882,-1.6765,-1.6779,-1.6084,-1.5919,-1.7728,-1.8263,-1.8612,-1.953,-1.9803,-2.0035,-2.0449,-2.0894,0.0,0.0,0.0,0.0,0.0,0.0,0.0,0.0,0.0,0.0,0.0,0.0,0.0,-3.7935,-3.7621,-3.7122,-3.6339,-3.5795,-3.5493,-3.5493,-3.5493,-3.5493,-3.5507,-3.5546,-3.5621,-3.571,-3.5797,-3.5893,0.0,0.0,0.0,0.0,-3.6894,-3.7402,-3.8242,-3.8848,-3.8803,-3.8541,-3.9747,-3.9755,-3.9252,0.0,0.0,0.0,0.0,0.0,0.0,0.0,-0.6134,-0.6448,-0.6242,-0.6427,-0.6236,-0.5337,-0.5271,-0.5237,-0.5124,0.0,0.0,0.0,0.0,0.0,0.0,0.0,0.0,0.0,-0.5852,-0.6152,-0.647,-0.6293,-0.5861,-0.5226,-0.4329,-0.3721,-0.3341,-0.2859,-0.3155,0.0,0.0,0.0,0.0,0.0,0.0,-0.5585,0.0,0.0,0.0,0.0,0.0,0.0,0.0,0.0,0.0,0.0,0.0,0.0,0.0,-1.3422,-1.5069,-1.6519,-1.7295,-1.7557,-1.7302,-1.6481,0.0,-1.586,-1.5367,-1.5453,-1.7413,-1.7979,-1.8419,-1.9479,-1.9803,-2.0,-2.0246,-2.0813,0.0,0.0,0.0,0.0,0.0,0.0,0.0,0.0,0.0,0.0,0.0,0.0,0.0,-3.8309,-3.8003,-3.7456,-3.6704,-3.6219,-3.5815,-3.5493,-3.5493,-3.5493,-3.5507,-3.5534,-3.56,-3.5671,-3.5761,-3.6059,0.0,0.0,0.0,0.0,-3.7793,-3.8301,-3.9141,-3.9687,-3.9724,-3.9596,-4.0689,-4.0714,-4.0277,0.0,0.0,0.0,0.0,0.0,0.0,0.0,0.0,0.0,0.0,-0.5649,-0.5576,-0.497,-0.5087,-0.5086,0.0,0.0,0.0,0.0,0.0,0.0,0.0,0.0,0.0,0.0,-0.6067,-0.6314,-0.6528,-0.6045,-0.5586,-0.5086,-0.3849,-0.3224,-0.3117,-0.3005,-0.335,-0.4091,-0.496,-0.5309,-0.5309,-0.5309,-0.5554,0.0,0.0,0.0,0.0,0.0,0.0,0.0,0.0,0.0,0.0,0.0,0.0,0.0,0.0,0.0,0.0,0.0,-1.6024,-1.6451,-1.6411,-1.5998,-1.5478,-1.4942,-1.4853,0.0,-1.6958,-1.7688,-1.8363,-1.9515,-2.0035,-2.0314,-2.0314,-2.1071,0.0,0.0,0.0,0.0,0.0,0.0,0.0,0.0,0.0,0.0,0.0,0.0,0.0,-3.8305,-3.7792,-3.7252,-3.669,-3.6685,-3.6315,-3.5526,-3.5493,-3.5532,-3.5603,-3.5603,-3.5656,-3.5785,-3.5854,-3.6395,0.0,0.0,0.0,0.0,-3.8691,-3.9219,-3.998,-3.998,-4.0488,-4.1191,-4.1191,-4.1191,-4.1171,0.0,0.0,0.0,0.0,0.0,0.0,0.0,0.0,0.0,0.0,0.0,-0.4569,-0.4049,-0.4189,0.0,0.0,0.0,0.0,0.0,0.0,0.0,0.0,0.0,0.0,0.0,-0.6039,-0.667,-0.7636,-0.7193,-0.6735,-0.6207,-0.538,-0.4442,-0.3408,-0.3545,-0.3907,-0.4505,-0.5055,-0.5309,-0.5309,-0.5309,-0.5554,0.0,0.0,0.0,0.0,-0.8305,-0.8756,0.0,0.0,0.0,0.0,0.0,0.0,0.0,0.0,-1.2187,-1.3283,-1.3709,0.0,-1.3922,-1.3523,-1.3603,-1.3887,0.0,-1.4286,-1.4874,-1.6876,-1.7394,-1.7932,-1.9426,-2.0035,-2.0314,-2.0314,-2.1504,-2.2698,-2.3442,0.0,0.0,0.0,0.0,0.0,0.0,0.0,0.0,0.0,0.0,-3.8145,-3.8016,-3.7732,-3.72,-3.643,-3.6588,-3.6315,-3.5526,-3.5493,-3.5815,-3.643,-3.643,-3.6813,-3.7528,-3.7633,-3.7851,0.0,0.0,0.0,-3.959,-3.959,-4.0117,-4.0898,-4.0898,-4.1016,-4.1191,-4.1191,-4.1191,-4.1191,0.0,0.0,0.0,0.0,0.0,0.0,0.0,0.0,0.0,0.0,0.0,0.0,0.0,0.0,0.0,0.0,0.0,0.0,0.0,0.0,0.0,0.0,0.0,0.0,-0.5948,-0.6381,-0.7114,-0.8088,-0.7779,-0.7274,-0.6582,-0.5757,-0.4704,-0.3515,-0.3774,-0.4155,-0.4634,-0.5087,-0.5309,-0.5309,-0.5309,0.0,0.0,0.0,0.0,0.0,-0.8445,-0.8789,0.0,-0.999,-0.998,-0.9552,0.0,0.0,0.0,0.0,-1.1914,-1.2885,-1.3135,-1.3421,-1.3604,-1.3527,-1.3715,-1.4046,-1.4625,-1.4937,-1.551,-1.6908,0.0,0.0,-1.9492,-2.0193,0.0,0.0,-2.2229,0.0,0.0,0.0,0.0,0.0,0.0,0.0,0.0,0.0,0.0,0.0,0.0,-3.745,-3.6826,-3.6807,-3.6483,-3.5772,-3.6021,-3.6122,-3.6065,-3.6065,-3.6469,-3.7296,-3.7296,-3.7564,-3.8061,-3.8218,-3.8533,0.0,0.0,0.0,-4.0508,-4.0508,-4.0762,-4.1191,-4.1191,-4.1191,-4.1191,-4.1191,-4.1191,-4.1191,0.0,0.0,0.0,0.0,0.0,0.0,0.0,0.0,0.0,0.0,0.0,0.0,0.0,0.0,0.0,0.0,0.0,0.0,0.0,0.0,0.0,0.0,0.0,-0.5867,-0.6746,-0.7158,-0.7775,-0.8617,-0.8261,-0.7668,-0.6855,-0.5856,-0.478,-0.3683,-0.3822,-0.4151,-0.4634,-0.5023,-0.5246,-0.5309,-0.5309,0.0,0.0,0.0,0.0,0.0,0.0,0.0,0.0,-0.949,-0.9572,-0.9385,-0.9385,0.0,0.0,0.0,0.0,0.0,-1.315,-1.389,-1.4518,-1.4625,-1.4831,-1.5077,-1.5426,0.0,0.0,0.0,0.0,0.0,0.0,-2.0559,0.0,0.0,0.0,0.0,0.0,0.0,0.0,0.0,0.0,0.0,0.0,0.0,0.0,0.0,0.0,-3.6942,-3.5683,-3.5799,-3.5625,-3.5054,-3.5354,-3.5892,-3.6699,-3.6699,-3.7199,-3.82,-3.82,-3.8257,-3.8387,-3.8598,-3.9077,-3.9792,0.0,0.0,-4.1191,-4.1191,-4.1191,-4.1191,-4.1191,-4.1289,-4.1387,-4.1387,-4.1465,-4.1562,0.0,0.0,0.0,0.0,0.0,0.0,0.0,0.0,0.0,0.0,0.0,0.0,0.0,0.0,0.0,0.0,0.0,0.0,0.0,0.0,0.0,0.0,-0.7176,-0.7698,-0.8889,-0.872,-0.9271,-1.0572,-0.9411,-0.8592,-0.81,-0.7157,-0.5886,-0.4413,-0.37,-0.3849,-0.4602,-0.4666,-0.4922,-0.5309,-0.5309,0.0,0.0,0.0,0.0,0.0,0.0,0.0,0.0,-0.8844,-0.8944,-0.8901,-0.8901,0.0,0.0,0.0,0.0,0.0,-1.3559,-1.5016,-1.5949,-1.4404,-1.5141,-1.6104,-1.5611,0.0,0.0,0.0,0.0,0.0,0.0,-2.1156,-2.2053,0.0,0.0,0.0,0.0,0.0,0.0,0.0,0.0,0.0,0.0,0.0,0.0,0.0,0.0,-3.7103,-3.6223,-3.6002,-3.5543,-3.4792,-3.5239,-3.5892,-3.6699,-3.6699,-3.7507,-3.9104,-3.9104,-3.945,-4.0119,-4.0325,-4.049,-4.0634,0.0,-4.1074,-4.1191,-4.1191,-4.1191,-4.1191,-4.1191,-4.1621,-4.2226,-4.2226,-4.2676,-4.3203,0.0,0.0,0.0,0.0,0.0,0.0,0.0,0.0,0.0,0.0,0.0,0.0,0.0,0.0,0.0,0.0,0.0,0.0,0.0,0.0,0.0,-0.8499,-0.8839,-0.9099,-0.9295,-0.9411,-0.9971,-1.0954,-1.0346,-0.9478,-0.8367,-0.6505,-0.5058,-0.3989,-0.3845,-0.3967,-0.4312,-0.4794,-0.5119,-0.5309,0.0,0.0,0.0,0.0,0.0,0.0,0.0,0.0,0.0,0.0,-0.8981,-0.8844,-0.9062,0.0,0.0,0.0,0.0,0.0,-1.3625,-1.5227,-1.634,-1.5341,-1.6636,-1.8074,-1.7681,0.0,0.0,0.0,0.0,0.0,0.0,0.0,-2.3786,-2.6015,0.0,0.0,0.0,0.0,0.0,0.0,0.0,0.0,0.0,0.0,0.0,0.0,0.0,0.0,-3.5232,-3.5229,-3.5151,-3.4908,-3.5289,-3.5892,-3.6699,-3.6699,-3.7565,-3.9296,-3.9738,-4.0183,-4.061,-4.0743,-4.085,-4.092,0.0,-4.1191,-4.1191,-4.1191,-4.1191,-4.123,-4.168,-4.207,-4.2402,-4.2402,-4.2656,-4.2871,0.0,0.0,0.0,0.0,0.0,0.0,0.0,0.0,0.0,0.0,0.0,0.0,0.0,0.0,0.0,0.0,0.0,0.0,0.0,0.0,-0.8101,-0.9001,-0.9856,-1.0253,-1.0153,-1.0334,-1.0787,-1.1593,-1.1178,-1.0135,-0.8417,-0.5879,-0.4408,-0.3917,-0.406,-0.4144,-0.4183,-0.4858,-0.5214,-0.5309,0.0,0.0,0.0,0.0,0.0,0.0,0.0,0.0,0.0,0.0,0.0,0.0,0.0,0.0,0.0,-1.0967,-1.1745,-1.2646,-1.3742,-1.525,-1.6501,-1.6481,0.0,0.0,0.0,0.0,0.0,0.0,0.0,0.0,0.0,-2.3506,0.0,0.0,0.0,0.0,0.0,0.0,0.0,0.0,0.0,0.0,0.0,0.0,0.0,0.0,0.0,0.0,-3.4567,-3.483,-3.5021,-3.5088,-3.5369,-3.5815,-3.6411,-3.6622,-3.7565,-3.9296,-3.9912,-4.0367,-4.0674,-4.0742,-4.0836,-4.0959,-4.1082,-4.1171,-4.1191,-4.1191,-4.1191,-4.1289,-4.209,-4.2656,-4.2988,-4.2773,-4.2695,-4.2598,0.0,0.0,0.0,0.0,0.0,0.0,0.0,0.0,0.0,0.0,0.0,0.0,0.0,0.0,0.0,0.0,0.0,0.0,0.0,0.0,-0.7865,-0.8268,-0.9566,-1.115,-1.2974,-1.2123,-1.229,-1.3585,-1.2042,-1.0367,-0.8621,-0.6317,-0.5191,-0.504,-0.4269,-0.4163,-0.457,-0.4634,-0.489,-0.5309,-0.534,0.0,0.0,0.0,0.0,0.0,0.0,0.0,0.0,0.0,0.0,0.0,0.0,0.0,-1.0778,-1.1382,-1.1946,-1.2711,-1.4083,-1.5452,-1.6669,-1.7412,-1.8638,0.0,-2.124,-2.2517,0.0,-2.4879,0.0,0.0,0.0,-2.4728,0.0,0.0,0.0,0.0,0.0,0.0,0.0,0.0,0.0,0.0,0.0,0.0,0.0,0.0,0.0,0.0,-3.5442,-3.5672,-3.5588,-3.5107,-3.5369,-3.5532,-3.5603,-3.6334,-3.7565,-3.9296,-3.9354,-3.9773,-4.0519,-4.0642,-4.0752,-4.0816,-4.0955,-4.108,-4.1191,-4.1191,-4.1191,-4.1289,-4.209,-4.3398,-4.4707,-4.3906,-4.3613,-4.3476,0.0,0.0,0.0,0.0,0.0,0.0,0.0,0.0,0.0,0.0,0.0,0.0,0.0,0.0,0.0,0.0,0.0,0.0,0.0,0.0,-0.7634,-0.8469,-0.9667,-1.1053,-1.265,-1.2095,-1.2044,-1.2568,-1.1174,-0.987,-0.8684,-0.7314,-0.6521,-0.6242,-0.6052,-0.5875,-0.5723,-0.5975,-0.606,-0.6037,-0.6037,-0.6366,0.0,0.0,0.0,0.0,0.0,0.0,0.0,0.0,-0.8965,-0.9422,0.0,-1.0175,-1.0806,-1.1412,-1.2168,-1.3022,-1.4178,-1.5966,-1.7545,-1.7688,-1.9209,0.0,0.0,-2.4002,-2.526,-2.5548,-2.7134,0.0,0.0,0.0,0.0,0.0,0.0,0.0,0.0,0.0,0.0,0.0,0.0,0.0,0.0,0.0,0.0,0.0,0.0,0.0,-3.5011,-3.5103,-3.5192,-3.5339,-3.5446,-3.5493,-3.5493,-3.5815,-3.6546,-3.77,-3.8777,-3.9485,-3.9844,-4.0428,-4.0781,-4.0925,-4.0988,-4.108,-4.1191,-4.1191,-4.1484,-4.2031,-4.2871,-4.3945,-4.4824,-4.3418,-4.2891,-4.2773,0.0,0.0,0.0,0.0,0.0,0.0,0.0,0.0,0.0,0.0,0.0,0.0,0.0,0.0,0.0,0.0,0.0,0.0,0.0,-0.6397,-0.7281,-0.8305,-0.9412,-1.0553,-1.1822,-1.1632,-1.1719,-1.2104,-1.0786,-0.9883,-0.9346,-0.8379,-0.7842,-0.7624,-0.7498,-0.7205,-0.6766,-0.6919,-0.6806,-0.6488,-0.6488,-0.6751,0.0,0.0,0.0,0.0,0.0,0.0,0.0,0.0,-0.9143,0.0,0.0,0.0,0.0,-1.1589,-1.2355,-1.3245,-1.4384,-1.6051,-1.7549,-1.7872,0.0,0.0,-2.3504,-2.5436,-2.6991,-2.765,-2.8865,-2.9614,-2.916,0.0,0.0,0.0,0.0,0.0,0.0,0.0,0.0,0.0,0.0,0.0,0.0,0.0,0.0,0.0,0.0,0.0,0.0,-3.4166,-3.4546,-3.507,-3.5084,-3.5218,-3.5507,-3.5493,-3.5795,-3.6353,-3.7796,-3.8791,-3.9393,-4.0243,-4.0752,-4.095,-4.095,-4.1049,-4.1191,-4.1191,-4.1836,-4.2832,-4.3164,-4.416,-4.5176,-4.3144,-4.2578,-4.2656,0.0,0.0,0.0,0.0,0.0,0.0,0.0,0.0,0.0,0.0,0.0,0.0,0.0,0.0,0.0,0.0,0.0,0.0,-0.5218,-0.6016,-0.6832,-0.7566,-0.8676,-0.9792,-1.0859,-1.0897,-1.1509,-1.2786,-1.124,-1.0599,-1.0758,-0.9507,-0.903,-0.9183,-0.8371,-0.7839,-0.7492,-0.7183,-0.6836,-0.6518,-0.651,-0.6751,-0.7109,0.0,0.0,0.0,0.0,0.0,0.0,0.0,-0.9316,-0.9905,0.0,0.0,0.0,-1.1924,-1.2595,-1.3337,-1.4736,-1.561,-1.65,-1.8053,0.0,0.0,-2.4585,-2.6848,-2.9085,-3.1813,-3.0623,-2.9063,-2.9228,0.0,0.0,0.0,0.0,0.0,0.0,0.0,0.0,0.0,0.0,0.0,0.0,0.0,0.0,0.0,0.0,0.0,0.0,-3.2958,-3.3635,-3.4166,-3.418,-3.4603,-3.5488,-3.5488,-3.5474,-3.5512,-3.6334,-3.7603,-3.9296,-4.0104,-4.0604,-4.0793,-4.0801,-4.0955,-4.1191,-4.1211,-4.2187,-4.3594,-4.2734,-4.3984,-4.5957,-4.3359,-4.293,-4.3437,0.0,0.0,0.0,0.0,0.0,0.0,0.0,0.0,0.0,0.0,0.0,0.0,0.0,0.0,0.0,0.0,0.0,0.0,-0.4937,-0.5905,-0.6658,-0.7038,-0.8496,-0.9528,-0.998,-1.0596,-1.0852,-1.0753,-1.0342,-1.0149,-1.0161,-1.0258,-1.0348,-1.0392,-1.0147,-0.9679,-0.9095,-0.9027,-0.8645,-0.8086,-0.755,-0.7598,-0.7898,0.0,0.0,0.0,0.0,0.0,0.0,0.0,0.0,0.0,0.0,0.0,0.0,-1.2549,-1.332,-1.4255,-1.5861,-1.7331,0.0,-1.9973,0.0,0.0,0.0,-2.7113,0.0,0.0,-3.215,-3.132,-3.1345,0.0,0.0,0.0,0.0,0.0,0.0,0.0,0.0,0.0,0.0,0.0,0.0,0.0,0.0,0.0,0.0,0.0,0.0,-3.2315,-3.271,-3.3058,-3.3223,-3.3699,-3.4584,-3.4584,-3.4891,-3.5512,-3.6334,-3.6969,-3.7526,-3.8988,-3.9708,-3.9849,-4.0516,-4.0908,-4.1116,-4.1776,-4.2344,-4.2754,-4.25,-4.2871,-4.3398,-4.2051,-4.1719,-4.1875,0.0,0.0,0.0,0.0,0.0,0.0,0.0,0.0,0.0,0.0,-0.3003,0.0,0.0,0.0,0.0,0.0,0.0,0.0,0.0,0.0,-0.6757,-0.7338,-0.8282,-0.8886,-0.9082,-0.9939,-1.013,-0.9581,-1.0214,-1.0495,-1.0473,-1.1002,-1.1256,-1.1256,-1.1015,-1.0567,-0.9995,-0.9856,-0.9656,-0.9332,-0.8628,-0.8559,-0.8778,0.0,0.0,0.0,0.0,0.0,0.0,0.0,0.0,0.0,0.0,0.0,0.0,-1.3323,-1.404,-1.4891,-1.6894,-1.8251,0.0,-2.0751,-2.2559,-2.4665,-2.6961,0.0,0.0,0.0,0.0,-3.273,-3.273,-3.2256,0.0,0.0,0.0,0.0,0.0,0.0,0.0,0.0,0.0,0.0,0.0,0.0,0.0,0.0,0.0,0.0,0.0,-3.148,-3.1864,-3.2549,-3.2364,-3.2883,-3.418,-3.4199,-3.4641,-3.5526,-3.5988,-3.6219,-3.6276,-3.8007,-3.8832,-3.8983,-3.9953,-4.0613,-4.1058,-4.1677,-4.2109,-4.2402,-4.2402,-4.2617,-4.2812,-4.1973,-4.168,-4.1621,0.0,0.0,0.0,0.0,0.0,0.0,0.0,0.0,0.0,0.0,-0.3072,-0.3394,0.0,0.0,0.0,0.0,0.0,0.0,0.0,0.0,-0.6958,-0.807,-0.8119,-0.8202,-0.844,-0.9224,-0.9471,-0.9176,-1.0524,-1.1244,-1.1359,-1.1652,-1.1835,-1.1858,-1.1215,-1.0726,-1.0332,-1.0097,-1.0118,-1.026,-0.9746,-0.9588,-0.9603,-0.8761,0.0,0.0,0.0,0.0,0.0,0.0,0.0,0.0,-1.155,-1.1769,-1.2191,-1.4122,-1.4721,-1.5256,-1.7731,-1.8619,0.0,-2.0862,-2.3001,0.0,-2.7401,-3.0717,-3.3554,-3.4093,0.0,-3.3389,-3.3322,-3.2205,0.0,0.0,0.0,0.0,0.0,0.0,0.0,0.0,0.0,0.0,0.0,0.0,0.0,0.0,0.0,0.0,0.0,-3.049,-3.1034,-3.22,-3.1543,-3.2082,-3.3949,-3.4045,-3.4526,-3.5391,-3.5468,-3.5493,-3.5551,-3.7161,-3.8003,-3.8257,-3.9265,-4.0137,-4.0902,-4.1111,-4.1621,-4.2285,-4.2285,-4.2773,-4.3379,-4.2578,-4.2285,-4.2187,0.0,0.0,0.0,0.0,0.0,0.0,0.0,0.0,0.0,0.0,0.0,0.0,0.0,0.0,0.0,0.0,0.0,0.0,0.0,0.0,-0.6611,-0.7539,-0.8411,-0.907,-0.9554,-0.9742,-0.9805,-0.9717,-1.0089,-1.0772,-1.1763,-1.1784,-1.2074,-1.2538,-1.1618,-1.1057,-1.0791,-1.1255,-1.1039,-1.0431,-1.0962,-1.0631,-0.9766,-0.9478,-0.9306,0.0,0.0,0.0,0.0,0.0,0.0,0.0,-1.256,-1.3101,-1.3551,-1.4337,-1.4783,-1.5516,-1.7777,-1.9075,0.0,0.0,-2.5668,-2.8046,-2.8307,-3.0561,-3.2359,-3.1297,-3.2326,-3.322,-3.2628,0.0,0.0,0.0,0.0,0.0,0.0,0.0,0.0,0.0,0.0,0.0,0.0,0.0,0.0,0.0,0.0,0.0,-2.9347,-2.9548,-2.9869,-3.0275,-3.0285,-3.0901,-3.2218,-3.2852,-3.3622,0.0,-3.518,-3.5493,-3.5532,-3.6526,-3.7424,-3.8246,-3.921,-3.9764,-4.0047,-4.0857,-4.1308,-4.1465,-4.1465,-4.1562,-4.1719,-4.1523,-4.1465,-4.1426,0.0,0.0,0.0,0.0,0.0,0.0,0.0,0.0,0.0,0.0,0.0,0.0,0.0,0.0,0.0,0.0,0.0,0.0,0.0,0.0,0.0,-0.7648,-0.8835,-0.9366,-0.914,-0.9642,-1.0008,-1.0236,-1.0688,-1.1232,-1.1897,-1.2502,-1.2762,-1.2762,-1.1938,-1.1579,-1.1569,-1.1808,-1.205,-1.2248,-1.2181,-1.1876,-1.1307,-1.0588,-1.019,-1.0041,-1.0025,0.0,0.0,0.0,0.0,0.0,0.0,0.0,-1.37,-1.4419,-1.4962,-1.5776,-1.7938,0.0,0.0,-2.3638,0.0,-2.7891,-2.8579,-2.9858,-3.0775,-3.0212,-3.1867,-3.3169,0.0,0.0,0.0,0.0,0.0,0.0,0.0,0.0,0.0,0.0,0.0,0.0,0.0,0.0,0.0,0.0,0.0,-2.9159,-2.9549,-2.9337,-2.9541,-3.0244,-3.0004,-3.0452,-3.1698,-3.2122,-3.2756,-3.3583,-3.4045,-3.4468,-3.4911,-3.5738,-3.662,-3.7513,-3.8074,-3.8583,-3.9112,-4.0079,-4.0525,-4.0625,-4.1035,-4.1191,-4.1191,-4.1191,-4.1191,-4.1191,0.0,0.0,0.0,0.0,0.0,0.0,0.0,0.0,0.0,0.0,0.0,0.0,0.0,0.0,0.0,0.0,0.0,0.0,0.0,0.0,0.0,0.0,-0.9209,-0.9429,-0.86,-0.9453,-1.0187,-1.0744,-1.1631,-1.2132,-1.2336,-1.3333,-1.357,-1.3121,-1.2449,-1.2266,-1.2466,-1.2368,-1.3017,-1.4053,-1.3291,-1.3004,-1.2897,-1.1715,-1.1089,-1.0807,-1.0738,-1.0955,-1.1336,-1.1766,0.0,0.0,0.0,0.0,-1.3389,-1.438,-1.4979,-1.5769,-1.7711,0.0,-2.0478,-2.3785,-2.5501,0.0,-2.8163,-2.8891,-2.9376,-2.9829,-3.1579,0.0,0.0,0.0,0.0,0.0,0.0,0.0,0.0,0.0,0.0,0.0,0.0,0.0,0.0,0.0,0.0,0.0,0.0,-2.9287,-2.9971,-2.9365,-2.9524,-3.0658,-3.0054,-3.0269,-3.1468,-3.1621,-3.2025,-3.2699,-3.2833,-3.3353,-3.4218,-3.4949,-3.5718,-3.6507,-3.6775,-3.7346,-3.815,-3.9087,-3.9637,-3.9961,-4.0684,-4.1074,-4.1191,-4.1191,-4.1191,-4.1191,0.0,0.0,0.0,0.0,0.0,0.0,0.0,0.0,0.0,0.0,-0.3619,0.0,0.0,0.0,0.0,0.0,0.0,0.0,0.0,0.0,0.0,-0.8661,-0.9189,-0.9546,-0.9692,-0.983,-1.0367,-1.1295,-1.2223,-1.3134,-1.3995,-1.3864,-1.4064,-1.4498,-1.3534,-1.3142,-1.3197,-1.3749,-1.3763,-1.3489,-1.4046,-1.3643,-1.2714,-1.2419,-1.2225,-1.2095,-1.1745,-1.1906,-1.2306,-1.2377,-1.2436,0.0,0.0,0.0,-1.3314,-1.386,-1.4303,-1.4892,0.0,0.0,-2.1199,0.0,-2.4797,-2.6604,0.0,0.0,-2.9036,0.0,0.0,0.0,0.0,0.0,0.0,0.0,0.0,0.0,0.0,0.0,0.0,0.0,0.0,0.0,0.0,0.0,0.0,0.0,-2.8558,-2.9049,-2.914,-2.9049,-2.9265,-2.9829,-2.9753,-2.9969,-3.0571,-3.1314,-3.1756,-3.1872,-3.2564,-3.3353,-3.4199,-3.4314,-3.4834,-3.5699,-3.6555,-3.6996,-3.7261,-3.819,-3.911,-3.9902,-4.0039,-4.0547,-4.1191,-4.1191,-4.1191,-4.1191,0.0,0.0,0.0,0.0,0.0,0.0,0.0,0.0,0.0,0.0,0.0,-0.4374,0.0,0.0,0.0,0.0,0.0,0.0,0.0,0.0,0.0,-0.8789,-0.9182,-0.9555,-0.9905,-1.0097,-1.0846,-1.217,-1.2797,-1.3778,-1.5151,-1.4981,-1.4872,-1.4767,-1.4143,-1.3957,-1.4148,-1.4251,-1.4467,-1.4726,-1.5231,-1.5074,-1.4586,-1.4384,-1.4284,-1.421,-1.4035,-1.4123,-1.4354,-1.465,-1.4314,-1.3823,-1.4046,0.0,0.0,0.0,-1.4,-1.4917,-1.6858,-1.9027,-2.1021,0.0,-2.352,-2.4822,-2.5304,0.0,-2.7523,0.0,0.0,0.0,0.0,0.0,0.0,0.0,0.0,0.0,0.0,0.0,0.0,0.0,0.0,0.0,0.0,0.0,0.0,0.0,-2.72,-2.786,-2.8301,-2.8338,-2.8701,-2.9514,-2.9625,-2.9864,-3.0163,-3.0707,-3.0968,-3.0987,-3.1333,-3.1968,-3.2795,-3.2795,-3.3795,-3.5526,-3.5945,-3.614,-3.6295,-3.7235,-3.7925,-3.8487,-3.9491,-4.0137,-4.0527,-4.1016,-4.1191,-4.1191,0.0,0.0,0.0,0.0,0.0,0.0,0.0,0.0,0.0,0.0,0.0,0.0,0.0,0.0,0.0,0.0,0.0,0.0,0.0,0.0,0.0,-0.8761,-0.9101,-0.9449,-0.9905,-1.0135,-1.1094,-1.2788,-1.3031,-1.4074,-1.5799,-1.5799,-1.5544,-1.5037,-1.4785,-1.4827,-1.5037,-1.4799,-1.5197,-1.6025,-1.6087,-1.6203,-1.6326,-1.6025,-1.5914,-1.5914,-1.5914,-1.5914,-1.5951,-1.6368,-1.5831,-1.5021,-1.5021,-1.4288,0.0,0.0,0.0,0.0,0.0,0.0,-2.0034,-2.1246,-2.2064,-2.2923,0.0,0.0,-2.5758,0.0,0.0,0.0,0.0,0.0,0.0,0.0,0.0,0.0,0.0,0.0,0.0,0.0,0.0,0.0,0.0,0.0,0.0,0.0,-2.6153,-2.6869,-2.7457,-2.7493,-2.7972,-2.9058,-2.9288,-2.9493,-2.9694,-2.9749,-2.9871,-3.0083,-3.0083,-3.0641,-3.1698,-3.1698,-3.2968,-3.518,-3.518,-3.5328,-3.5659,-3.6375,-3.6888,-3.7334,-3.8709,-3.9512,-3.998,-4.0625,-4.1016,-4.1172,0.0,0.0,0.0,0.0,0.0,0.0,0.0,0.0,0.0,0.0,0.0,0.0,0.0,0.0,-0.5295,-0.5309,-0.5295,-0.5619,-0.6425,-0.7246,-0.8023,-0.8761,-0.8816,0.0,-0.9867,-0.9919,-1.086,-1.2788,-1.2815,-1.3839,-1.5799,-1.5799,-1.5784,-1.5754,-1.5725,-1.571,-1.5754,-1.5725,-1.6099,-1.6636,-1.6262,-1.6496,-1.6997,-1.6613,0.0,0.0,0.0,0.0,0.0,0.0,-1.6104,-1.5641,-1.5641,-1.4907,-1.4035,0.0,0.0,0.0,0.0,-1.712,0.0,-1.9606,-2.0622,0.0,0.0,0.0,0.0,0.0,0.0,0.0,0.0,0.0,0.0,0.0,0.0,0.0,0.0,0.0,0.0,0.0,0.0,0.0,0.0,0.0,0.0,0.0,-2.6153,-2.6631,-2.6667,-2.6667,-2.7106,-2.8127,-2.8421,-2.8673,-2.8869,-2.831,-2.8409,-2.9159,-2.9159,-3.0063,-3.1698,-3.1698,-3.2641,-3.4257,-3.4257,-3.4762,-3.5601,-3.5725,-3.6337,-3.7217,-3.7361,-3.8457,-3.9902,-3.9941,-4.0488,-4.1074,0.0,0.0,0.0,0.0,0.0,0.0,0.0,0.0,0.0,0.0,0.0,0.0,0.0,-0.6726,-0.6773,-0.6472,-0.6465,-0.67,-0.7237,-0.7782,-0.8421,-0.9155,-0.9182,-0.9422,-0.9905,-1.0323,-1.1286,-1.2788,-1.3219,-1.4266,-1.5799,-1.5799,-1.5799,-1.5799,-1.5799,-1.5799,-1.5799,-1.5799,-1.6144,0.0,0.0,0.0,0.0,0.0,0.0,0.0,0.0,0.0,0.0,0.0,0.0,0.0,0.0,0.0,0.0,0.0,0.0,0.0,0.0,0.0,0.0,-1.8862,-1.9589,-2.0225,-2.1101,-2.2232,0.0,0.0,0.0,0.0,0.0,0.0,0.0,0.0,0.0,0.0,0.0,0.0,0.0,0.0,0.0,0.0,0.0,0.0,0.0,0.0,0.0,-2.5291,-2.5786,-2.5823,-2.6234,-2.7108,-2.7471,-2.7846,-2.8234,-2.8022,-2.8294,-2.9102,-2.9102,-2.9717,-3.0871,-3.0871,-3.1775,-3.3372,-3.3372,-3.4199,-3.5534,-3.5611,-3.5862,-3.6303,-3.6964,-3.7632,-3.8301,-3.8867,-3.9258,-3.9492,0.0,0.0,0.0,0.0,0.0,0.0,0.0,0.0,0.0,0.0,0.0,0.0,0.0,0.0,-0.8508,-0.8071,-0.8026,-0.8137,-0.842,-0.8632,-0.9018,-0.9643,-0.9586,-0.9699,-1.0072,-1.0845,-1.1797,-1.2977,-1.3651,-1.4611,-1.5799,-1.5799,-1.5799,-1.5799,-1.5799,-1.5799,-1.5799,0.0,0.0,-1.707,0.0,0.0,-1.9041,0.0,0.0,0.0,0.0,0.0,0.0,0.0,0.0,0.0,0.0,0.0,0.0,0.0,0.0,0.0,-1.728,0.0,0.0,0.0,0.0,-1.9115,-2.0195,0.0,0.0,0.0,0.0,0.0,0.0,0.0,0.0,0.0,0.0,0.0,0.0,0.0,0.0,0.0,0.0,0.0,0.0,0.0,0.0,0.0,0.0,0.0,-2.498,-2.5017,-2.5445,-2.6376,-2.6664,-2.7006,-2.7467,-2.7178,-2.7582,-2.8698,-2.8698,-2.9294,-3.0398,-3.0398,-3.1179,-3.2506,-3.2506,-3.3468,-3.5097,-3.545,-3.5446,-3.5325,-3.6363,-3.6975,-3.734,-3.7949,-3.8359,-3.8555,0.0,0.0,0.0,0.0,0.0,0.0,0.0,0.0,0.0,0.0,0.0,0.0,0.0,0.0,0.0,-1.0019,-0.9949,-0.9961,-0.9961,-0.9772,-0.9833,-1.0264,-1.0036,-1.0072,-1.0474,-1.1429,-1.2399,-1.3313,-1.3992,-1.4816,-1.5799,-1.5799,-1.5799,-1.5799,-1.5799,-1.5814,-1.5829,0.0,-1.6548,-1.7712,0.0,-1.8523,-1.969,0.0,0.0,0.0,-1.9711,-1.9711,0.0,-1.9711,0.0,0.0,0.0,0.0,0.0,0.0,0.0,0.0,0.0,0.0,0.0,0.0,0.0,0.0,-1.9808,0.0,-1.9671,0.0,0.0,0.0,0.0,0.0,0.0,0.0,0.0,0.0,0.0,0.0,0.0,0.0,0.0,0.0,0.0,0.0,0.0,0.0,-2.419,-2.419,-2.419,-2.419,-2.4745,-2.5921,-2.5963,-2.6138,-2.6553,-2.5726,-2.6159,-2.7852,-2.789,-2.8756,-3.0359,-3.0379,-3.0891,-3.1698,-3.1698,-3.2622,-3.4193,-3.516,-3.5049,-3.4361,-3.5446,-3.6368,-3.7139,-3.7205,-3.7773,-3.8398,0.0,0.0,0.0,0.0,0.0,0.0,0.0,0.0,0.0,0.0,0.0,0.0,0.0,-1.2234,-1.2078,-1.1752,-1.1135,-1.1034,-1.1602,-1.1312,-1.1394,-1.206,-1.2007,-1.2019,-1.2127,-1.2652,-1.3277,0.0,0.0,0.0,0.0,0.0,0.0,0.0,-1.5799,-1.6024,-1.6443,-1.6443,0.0,-1.8433,-1.8433,-1.8942,0.0,0.0,0.0,0.0,0.0,-2.0124,-2.0124,0.0,-1.9859,-1.9479,0.0,0.0,0.0,0.0,0.0,0.0,-1.8136,0.0,0.0,0.0,0.0,0.0,-1.7693,-1.8206,-1.8998,0.0,0.0,0.0,0.0,0.0,0.0,0.0,0.0,0.0,0.0,0.0,0.0,0.0,0.0,0.0,0.0,0.0,0.0,0.0,-2.419,-2.419,-2.419,-2.419,-2.4414,-2.4912,-2.5054,-2.5224,-2.5432,-2.5358,-2.587,-2.6967,-2.7601,-2.8448,-2.9486,-3.0121,-3.0891,-3.1698,-3.1698,-3.1968,-3.2506,-3.3981,-3.4133,-3.3519,-3.4395,-3.497,-3.5327,-3.5335,-3.5933,-3.668,0.0,0.0,0.0,0.0,0.0,0.0,0.0,0.0,0.0,0.0,0.0,0.0,0.0,0.0,-1.3931,-1.3547,-1.3169,-1.3024,-1.3204,-1.3041,-1.3022,-1.3164,-1.3079,-1.3004,-1.3004,-1.3612,-1.4124,0.0,0.0,0.0,0.0,0.0,0.0,0.0,0.0,0.0,0.0,0.0,0.0,0.0,-1.8771,0.0,0.0,-1.9747,-1.9945,0.0,0.0,0.0,-2.028,-2.0089,-1.9909,0.0,0.0,0.0,0.0,0.0,0.0,0.0,0.0,0.0,0.0,0.0,0.0,0.0,-1.7999,-1.8241,-1.8791,0.0,0.0,0.0,0.0,0.0,0.0,0.0,0.0,0.0,0.0,0.0,0.0,0.0,0.0,0.0,0.0,-2.3996,-2.4054,-2.419,-2.419,-2.419,-2.419,-2.419,-2.4284,-2.4495,-2.4607,-2.4756,-2.4898,-2.5037,-2.5566,-2.6477,-2.6995,-2.77,-2.8621,-2.9467,-3.0121,-3.0641,-3.1006,-3.116,-3.1256,-3.2602,-3.2894,-3.2608,-3.3451,-3.3868,-3.4013,-3.4408,-3.4914,-3.5465,0.0,0.0,0.0,0.0,0.0,0.0,0.0,0.0,0.0,0.0,0.0,0.0,0.0,0.0,0.0,0.0,-1.5584,-1.544,-1.4896,-1.4931,0.0,-1.4162,-1.3839,-1.3697,-1.3697,-1.4495,-1.4902,0.0,0.0,0.0,0.0,0.0,0.0,0.0,0.0,0.0,0.0,0.0,0.0,-1.9527,-1.9012,-1.9379,0.0,0.0,-2.0,-2.0246,-1.9945,-2.0035,-2.0246,-1.9854,-1.9735,0.0,0.0,0.0,0.0,0.0,-1.969,0.0,0.0,0.0,0.0,0.0,-1.9136,0.0,-1.9346,-1.9016,-1.8762,-1.9416,0.0,0.0,0.0,0.0,0.0,0.0,0.0,0.0,0.0,0.0,0.0,0.0,0.0,0.0,-2.3631,-2.3692,-2.3837,-2.417,-2.419,-2.419,-2.419,-2.419,-2.4284,-2.4461,-2.4495,-2.4594,-2.476,-2.479,-2.5262,-2.6174,-2.6251,-2.6814,-2.7775,-2.8602,-2.8967,-2.9006,-2.989,-3.0256,-3.0333,-3.1198,-3.1564,-3.1653,-3.258,-3.2948,-3.3072,-3.3879,-3.4369,-3.4693,0.0,0.0,0.0,0.0,0.0,0.0,0.0,0.0,0.0,0.0,0.0,0.0,0.0,0.0,0.0,0.0,-1.7143,-1.6876,-1.7069,-1.6793,0.0,-1.6924,-1.6351,-1.604,-1.604,-1.5741,0.0,0.0,0.0,0.0,0.0,0.0,0.0,0.0,0.0,0.0,0.0,0.0,0.0,-2.0639,-1.9817,0.0,-1.9839,-2.0089,-2.0212,-2.0348,-2.0632,-2.055,-2.0246,-1.9854,-2.0049,-2.0438,0.0,0.0,0.0,-1.9854,0.0,0.0,0.0,0.0,0.0,0.0,0.0,0.0,-1.816,-1.7981,-1.8052,0.0,-1.8734,0.0,0.0,0.0,0.0,0.0,0.0,0.0,0.0,0.0,0.0,0.0,0.0,0.0,-2.3631,-2.3692,-2.3837,-2.417,-2.419,-2.419,-2.419,-2.419,-2.4209,-2.4266,-2.4428,-2.4528,-2.4561,-2.4716,-2.4945,-2.5258,-2.5964,-2.6477,-2.689,-2.7736,-2.8121,-2.8179,-2.9006,-2.9352,-2.941,-3.0294,-3.0648,-3.0737,-3.1638,-3.2008,-3.2075,-3.2255,-3.3257,-3.4539,0.0,0.0,0.0,0.0,0.0,0.0,0.0,0.0,0.0,0.0,0.0,0.0,0.0,0.0,0.0,0.0,0.0,0.0,0.0,0.0,0.0,0.0,0.0,0.0,0.0,0.0,0.0,0.0,0.0,0.0,0.0,0.0,0.0,0.0,0.0,0.0,0.0,0.0,-2.048,-2.0959,-2.0499,0.0,-2.0616,-2.0382,-2.0449,-2.0616,-2.0431,-2.0208,-2.0025,-2.0152,-2.0198,0.0,0.0,-2.0707,-2.0647,0.0,-2.0198,-2.0124,0.0,0.0,0.0,-1.9271,0.0,0.0,0.0,-1.8702,-1.8771,-1.8992,-1.8799,-1.857,-1.857,0.0,0.0,0.0,0.0,0.0,0.0,0.0,0.0,0.0,0.0,0.0,-2.2635,-2.3,-2.3414,-2.3917,-2.4094,-2.419,-2.419,-2.419,-2.419,-2.419,-2.4303,-2.4339,-2.4339,-2.4561,-2.4727,-2.4904,-2.5412,-2.575,-2.5986,-2.6851,-2.7255,-2.7294,-2.814,-2.8717,-2.9121,-2.9563,-3.0006,-3.0436,-3.0891,-3.1072,-3.1148,-3.1592,-3.2338,-3.323,-1.0108,0.0,0.0,0.0,0.0,0.0,0.0,0.0,0.0,0.0,0.0,0.0,0.0,0.0,0.0,0.0,0.0,0.0,0.0,0.0,0.0,0.0,0.0,-1.7936,0.0,0.0,0.0,0.0,0.0,0.0,0.0,0.0,0.0,0.0,0.0,0.0,0.0,0.0,0.0,-2.1118,0.0,-2.1275,-2.129,-2.0682,-2.0565,-2.0665,-1.9945,-1.969,-1.9765,-2.0318,-2.0228,-2.0049,-2.1006,-2.1036,0.0,0.0,0.0,0.0,0.0,0.0,0.0,0.0,0.0,-1.969,0.0,0.0,0.0,-1.9525,-1.9076,0.0,0.0,0.0,0.0,0.0,0.0,0.0,0.0,0.0,0.0,0.0,0.0,0.0,-2.1539,-2.2173,-2.2887,-2.3631,-2.383,-2.3948,-2.4094,-2.417,-2.419,-2.419,-2.419,-2.419,-2.419,-2.441,-2.4591,-2.4804,-2.4943,-2.5099,-2.5322,-2.6024,-2.6447,-2.6659,-2.7525,-2.8352,-2.9102,-2.9275,-2.9775,-3.0398,-3.0398,-3.0398,-3.0475,-3.1198,-3.1598,-3.1883,-1.1258,-1.2483,0.0,0.0,0.0,0.0,0.0,0.0,0.0,0.0,0.0,0.0,0.0,0.0,0.0,0.0,0.0,0.0,-2.0703,0.0,0.0,0.0,0.0,0.0,-1.945,0.0,0.0,0.0,0.0,0.0,0.0,0.0,0.0,0.0,-2.0358,0.0,0.0,0.0,-2.1869,0.0,-2.1974,-2.1477,0.0,-2.0797,-2.0465,-1.9854,-1.9762,-1.969,-1.969,0.0,-2.0154,-2.0513,0.0,-2.0288,-2.0587,-1.9989,0.0,0.0,0.0,0.0,0.0,0.0,-1.969,0.0,0.0,0.0,-1.9525,-1.8942,0.0,0.0,0.0,0.0,0.0,0.0,0.0,0.0,0.0,0.0,0.0,0.0,0.0,0.0,0.0,-2.1766,-2.2576,-2.3617,-2.3123,-2.3071,-2.372,-2.4036,-2.419,-2.419,-2.419,-2.419,-2.419,-2.441,-2.4591,-2.4804,-2.4943,-2.5099,-2.5303,-2.5399,-2.587,-2.6659,-2.7525,-2.8352,-2.9159,-2.9929,-3.0302,-3.0398,-3.0398,-3.0398,-3.0398,-3.0513,-3.1037,-3.1727,-1.2382,-1.3584,0.0,0.0,0.0,0.0,0.0,0.0,0.0,0.0,0.0,0.0,0.0,0.0,0.0,0.0,0.0,-2.1645,0.0,0.0,0.0,0.0,0.0,0.0,0.0,0.0,0.0,0.0,-1.9136,0.0,0.0,0.0,0.0,0.0,-2.0906,0.0,-2.1751,0.0,-2.1928,0.0,0.0,0.0,0.0,-2.1181,-2.0813,-2.0035,-1.9782,-1.969,-1.969,0.0,-1.9884,0.0,0.0,0.0,0.0,0.0,0.0,0.0,0.0,0.0,0.0,0.0,0.0,0.0,-1.9779,0.0,-1.9615,0.0,0.0,0.0,0.0,0.0,0.0,0.0,-1.6195,0.0,0.0,0.0,0.0,0.0,0.0,0.0,0.0,0.0,0.0,0.0,-2.2611,-2.2736,-2.3656,-2.3837,-2.3996,-2.419,-2.419,-2.419,-2.419,-2.441,-2.4591,-2.4804,-2.4943,-2.5099,-2.5303,-2.5303,-2.5495,-2.589,-2.6774,-2.7621,-2.8467,-2.9294,-2.9948,-3.0398,-3.0398,-3.0398,-3.0398,-3.0398,-3.0629,-3.096,-1.3615,-1.4535,0.0,0.0,0.0,0.0,0.0,0.0,0.0,0.0,0.0,0.0,-2.231,-2.231,0.0,0.0,-2.231,-2.2152,0.0,0.0,-2.1538,0.0,0.0,0.0,0.0,0.0,0.0,0.0,0.0,0.0,0.0,0.0,0.0,0.0,0.0,-2.1584,-2.2282,0.0,-2.2003,-2.2282,-2.1928,-2.1615,-2.1323,-2.1134,-2.0682,-2.0089,-1.9803,-1.969,-1.969,-1.969,-1.969,0.0,-2.0827,0.0,0.0,0.0,0.0,0.0,-1.9914,0.0,0.0,0.0,0.0,0.0,0.0,0.0,0.0,0.0,0.0,0.0,0.0,0.0,0.0,0.0,0.0,-1.5782,0.0,0.0,0.0,0.0,0.0,0.0,0.0,0.0,0.0,-2.2177,-2.1908,-2.2225,-2.349,-2.3649,-2.3837,-2.419,-2.419,-2.419,-2.419,-2.441,-2.4559,-2.4716,-2.4877,-2.5041,-2.5214,-2.5214,-2.5503,-2.6063,-2.6678,-2.7582,-2.8621,-2.9217,-2.9833,-3.0398,-3.0398,-3.0398,-3.0398,-3.0398,-3.0398,-3.0398,-1.4952,-1.5177,0.0,0.0,0.0,0.0,0.0,0.0,0.0,0.0,0.0,0.0,0.0,0.0,0.0,0.0,0.0,-2.2282,-2.2282,0.0,-2.1794,0.0,0.0,-2.1086,0.0,0.0,0.0,0.0,0.0,0.0,0.0,0.0,0.0,0.0,-2.1582,-2.1853,-2.231,-2.2282,-2.2282,-2.231,-2.2282,-2.2282,-2.2077,0.0,-1.9747,-1.9711,-1.9711,0.0,0.0,-1.969,-1.969,0.0,0.0,0.0,0.0,0.0,0.0,0.0,0.0,0.0,0.0,-1.9854,0.0,0.0,0.0,0.0,-1.969,0.0,0.0,0.0,0.0,0.0,0.0,0.0,0.0,0.0,0.0,0.0,0.0,0.0,0.0,0.0,0.0,-1.77,-1.8557,-2.096,-2.0773,-2.1325,-2.3118,-2.3522,-2.3837,-2.419,-2.419,-2.419,-2.419,-2.441,-2.4512,-2.4512,-2.4716,-2.4883,-2.501,-2.501,-2.6041,-2.7813,-2.7852,-2.8794,-3.0321,-3.034,-3.0359,-3.0398,-3.0398,-3.0398,-3.0398,-3.0398,-3.0398,-3.0398,-1.5357,0.0,0.0,0.0,0.0,0.0,0.0,-2.0735,0.0,0.0,-2.209,0.0,0.0,-2.231,-2.231,0.0,0.0,-2.231,-2.231,-2.2135,0.0,0.0,0.0,-2.143,0.0,0.0,0.0,0.0,0.0,0.0,0.0,0.0,0.0,0.0,0.0,-2.1615,0.0,0.0,0.0,0.0,0.0,-2.184,-2.1675,0.0,-2.0243,-2.0846,-2.0015,-1.9874,0.0,-1.9782,-1.969,-1.9765,-2.0228,-2.0213,-2.0079,-2.0303,-2.0363,0.0,0.0,0.0,-2.0557,-1.9854,0.0,0.0,0.0,0.0,0.0,0.0,0.0,0.0,0.0,0.0,0.0,0.0,0.0,0.0,0.0,0.0,0.0,0.0,0.0,0.0,0.0,0.0,0.0,-2.0627,-2.0899,-2.1616,-2.3112,-2.3323,-2.361,-2.417,-2.419,-2.419,-2.419,-2.4284,-2.4375,-2.4495,-2.4559,-2.4982,-2.5669,-2.5806,-2.6524,-2.7669,-2.8384,-2.9025,-2.9583,-3.016,-3.0398,-3.0398,-3.0398,-3.0398,-3.0398,-3.0398,-3.0398,-3.0398,-1.7741,-1.7759,0.0,0.0,0.0,0.0,0.0,0.0,0.0,0.0,-2.231,0.0,-2.231,0.0,-2.231,0.0,-2.231,-2.231,-2.231,-2.231,0.0,-2.231,-2.2003,0.0,0.0,0.0,0.0,0.0,0.0,-2.091,0.0,0.0,0.0,0.0,0.0,-2.1493,-2.231,-2.231,-2.231,0.0,0.0,-2.1688,0.0,0.0,-2.0665,-2.1275,0.0,-2.0089,-2.0246,-1.9854,-1.969,-1.9765,-2.0213,-2.0213,-2.0094,-2.0288,-2.0378,-2.0303,-1.9809,-2.0183,0.0,-2.0168,-2.0378,0.0,-2.0154,0.0,0.0,0.0,0.0,0.0,0.0,0.0,0.0,0.0,0.0,0.0,0.0,-1.508,0.0,0.0,0.0,0.0,0.0,-1.7257,-1.8339,-2.025,-2.0621,-2.1422,0.0,0.0,-2.3437,-2.3996,-2.4151,-2.419,-2.419,-2.419,-2.4284,-2.4393,-2.4671,-2.5203,-2.5911,-2.6389,-2.7105,-2.8011,-2.8763,-2.9275,-2.9602,-3.0179,-3.0398,-3.0398,-3.0398,-3.0398,-3.0398,-3.0398,-3.0398,-3.0398,-2.1515,-2.03,0.0,0.0,-2.1667,0.0,0.0,0.0,-2.231,0.0,-2.231,-2.231,-2.231,-2.231,-2.231,-2.231,-2.231,-2.231,-2.231,-2.231,0.0,0.0,-2.231,-2.231,-2.231,0.0,0.0,0.0,0.0,0.0,0.0,0.0,0.0,0.0,-2.1385,0.0,-2.2282,-2.2282,-2.231,-2.2254,-2.1823,-2.1899,-2.2209,-2.1385,-2.1055,-2.0991,-2.0516,-2.0348,-2.028,-1.9874,-1.9726,-1.969,-1.969,-2.0139,-2.0543,-1.9884,-2.0587,-2.1321,-2.0034,-2.0168,-2.0662,-2.0662,0.0,0.0,0.0,0.0,-2.0483,0.0,0.0,0.0,0.0,0.0,0.0,0.0,0.0,0.0,0.0,0.0,0.0,0.0,0.0,0.0,0.0,-1.5869,-1.7036,-1.9755,-2.0036,-2.0841,0.0,0.0,-2.3333,-2.3692,-2.4034,-2.4208,-2.4263,-2.4226,-2.4226,-2.4263,-2.5035,-2.5521,-2.5782,-2.6789,-2.7827,-2.8869,-2.9058,-2.961,-3.0398,-3.0398,-3.0398,-3.0398,-3.0398,-3.0398,-3.0398,-3.0398,-3.0398,-3.0398,-1.8809,-2.0245,-2.1463,0.0,-2.2141,-2.231,0.0,0.0,0.0,0.0,-2.231,-2.231,-2.231,-2.231,-2.231,-2.231,-2.231,0.0,0.0,0.0,0.0,-2.231,-2.231,-2.231,-2.231,-2.1823,0.0,-2.2106,0.0,0.0,-2.2106,0.0,0.0,0.0,0.0,0.0,-2.1794,-2.2135,-2.231,-2.2282,-2.218,-2.218,-2.2282,0.0,-2.1991,-2.1886,-2.1086,-2.0829,-2.0764,-2.0296,-1.9945,-1.969,-1.969,-1.9809,-1.9914,-1.9735,-1.9929,-2.0124,-1.9779,-1.9809,-1.9944,-1.9944,-1.9944,-1.9944,0.0,0.0,0.0,0.0,0.0,0.0,0.0,0.0,0.0,0.0,0.0,0.0,0.0,0.0,0.0,-1.6487,0.0,0.0,-1.5888,-1.6795,-1.7926,-1.9154,-2.0273,-2.1403,-2.2643,0.0,0.0,-2.3674,-2.4034,-2.4483,-2.509,-2.4502,-2.4502,-2.509,-2.5311,-2.5735,-2.6403,-2.74,-2.8461,-2.9477,-2.9675,-2.9998,-3.0398,-3.0398,-3.0398,-3.0398,-3.0398,-3.0398,-3.0398,-3.0398,-3.0398,-3.0398,-1.9713,0.0,0.0,-2.231,0.0,0.0,-2.231,-2.231,0.0,-2.231,-2.231,0.0,-2.231,-2.231,-2.231,-2.231,-2.231,0.0,-2.231,0.0,0.0,-2.231,-2.231,-2.231,-2.231,-2.2032,0.0,-2.231,0.0,0.0,-2.2282,0.0,0.0,0.0,0.0,-2.1718,-2.1928,-2.218,-2.231,-2.231,-2.231,-2.231,0.0,-2.231,-2.2163,-2.1974,-2.1675,-2.1323,-2.0926,-2.0449,-2.0035,-1.969,-1.969,-1.969,-1.969,-1.969,-1.969,-1.969,-1.969,-1.969,-1.975,-2.0064,-2.0139,-2.0139,-2.0139,-2.0139,-2.0049,0.0,0.0,0.0,0.0,0.0,0.0,0.0,0.0,0.0,0.0,0.0,0.0,0.0,-1.7473,0.0,-1.6293,-1.7525,-1.8688,-1.9367,-2.0539,-2.1589,0.0,0.0,0.0,-2.396,-2.432,-2.4949,-2.5915,-2.5474,-2.5474,-2.5933,-2.6264,-2.6686,-2.7145,-2.8194,-2.8988,-2.9589,-2.9877,-3.0089,-3.0222,-3.0355,-3.0398,-3.0398,-3.0398,-3.0398,-3.0398,-3.0398,-3.0398,-3.0398,-2.219,0.0,0.0,0.0,0.0,0.0,0.0,-2.2405,0.0,-2.2377,0.0,-2.231,-2.231,-2.231,-2.231,-2.231,0.0,-2.231,-2.231,-2.231,-2.231,-2.231,-2.231,-2.231,-2.231,-2.231,-2.2361,0.0,0.0,0.0,0.0,0.0,0.0,0.0,0.0,0.0,0.0,-2.231,-2.231,-2.231,-2.231,-2.231,-2.231,-2.231,-2.2049,-2.1764,-2.2135,-2.1691,-2.0862,-2.0516,-2.007,-1.969,-1.969,-1.969,-1.969,-1.969,-1.969,-1.969,-1.969,-1.969,-1.9824,-2.0423,-2.0572,-2.0572,-2.0572,-2.0572,-2.0408,-1.9809,-1.969,-1.969,0.0,0.0,0.0,0.0,0.0,0.0,0.0,0.0,0.0,0.0,0.0,0.0,-1.6906,-1.8186,-1.9276,-1.9835,-2.0694,-2.1515,0.0,0.0,0.0,-2.4382,-2.4859,-2.5663,-2.6759,0.0,-2.6649,-2.6778,-2.7475,-2.7787,-2.7846,-2.8876,-2.9372,-2.9414,-2.9763,-2.9954,-3.0013,-3.0254,-3.0367,-3.0398,-3.0398,-3.0398,-3.0398,-3.0398,-3.0398,-3.0398,-2.2381,0.0,0.0,0.0,0.0,-2.2642,-2.3707,-2.2968,-2.2415,-2.2747,-2.2508,-2.231,-2.231,-2.231,-2.231,-2.231,-2.231,0.0,0.0,0.0,0.0,-2.231,-2.231,-2.231,-2.231,-2.231,-2.2598,0.0,0.0,0.0,0.0,0.0,0.0,0.0,0.0,0.0,-2.231,-2.231,0.0,-2.231,-2.231,-2.231,-2.231,-2.231,-2.2254,-2.218,-2.2282,-2.1477,-2.0483,-2.0748,-2.0345,-1.969,-1.969,-1.969,-1.969,-1.969,-1.969,-1.969,-1.969,-1.969,-1.972,-1.9839,-1.9869,-1.9869,-1.9869,-1.9869,-1.9824,-1.9705,-1.969,-1.969,-1.969,0.0,0.0,0.0,0.0,0.0,0.0,0.0,0.0,0.0,0.0,-1.8867,0.0,0.0,-1.9626,-1.9203,-2.0423,-2.1515,0.0,0.0,0.0,0.0,-2.5624,0.0,0.0,0.0,-2.6924,-2.7585,-2.7732,-2.7787,-2.7824,-2.8676,-2.9181,-2.9412,-2.9455,-2.9696,-2.9999,-3.0061,-3.0196,-3.0398,-3.0398,-3.0398,-3.0398,-3.0398,-3.0398,-3.0398,-2.2405,0.0,0.0,0.0,0.0,0.0,0.0,-2.3289,-2.2598,-2.2598,-2.2415,-2.231,-2.231,-2.231,-2.231,-2.231,-2.231,-2.231,-2.231,-2.231,-2.231,-2.231,-2.231,-2.231,-2.231,-2.231,-2.2665,-2.3393,0.0,0.0,0.0,0.0,0.0,0.0,0.0,-2.3427,0.0,0.0,0.0,-2.2868,-2.2868,-2.2649,-2.231,-2.231,-2.2135,-2.1974,-2.2209,-2.1584,-2.0698,-2.0926,-2.0565,-1.9965,-1.9782,-1.969,-1.969,-1.969,-1.969,-1.969,-1.969,-1.969,-1.969,-1.969,-1.969,-1.969,-1.969,-1.969,-1.969,-1.969,-1.969,-1.969,-1.969,-1.969,0.0,0.0,0.0,0.0,0.0,0.0,0.0,0.0,0.0,0.0,0.0,0.0,0.0,0.0,0.0,0.0,0.0,0.0,0.0,0.0,0.0,0.0,0.0,0.0,0.0,-2.8429,-2.8429,-2.8429,-2.8448,-2.881,-2.9067,-2.9181,-2.9351,-2.957,-2.9861,-3.0109,-3.0279,-3.0398,-3.0398,-3.0398,-3.0398,-3.0398,-3.0398,-3.0398,0.0,-2.247,0.0,0.0,-2.419,0.0,-2.419,-2.3495,-2.2875,-2.2571,-2.2405,-2.231,-2.231,-2.231,-2.231,-2.231,-2.231,-2.231,-2.231,-2.231,-2.231,-2.231,-2.231,-2.2378,-2.2547,-2.2547,-2.297,0.0,0.0,0.0,0.0,0.0,0.0,0.0,0.0,0.0,0.0,0.0,-2.4154,-2.3613,-2.346,-2.3139,-2.2733,-2.2429,-2.2161,-2.1993,-2.2231,-2.1857,-2.126,-2.1055,-2.0682,-2.0212,-1.9854,-1.969,-1.969,-1.969,-1.969,-1.969,-1.969,-1.969,-1.969,-1.969,-1.969,-1.969,-1.969,-1.969,-1.969,-1.969,-1.969,-1.969,-1.969,-1.969,0.0,0.0,0.0,0.0,0.0,0.0,0.0,0.0,0.0,0.0,-1.8957,0.0,0.0,0.0,0.0,0.0,-2.253,0.0,0.0,0.0,0.0,-2.7572,-2.8718,0.0,-2.8994,-2.8994,-2.8994,-2.8994,-2.8994,-2.8994,-2.8994,-2.9017,-2.9225,-2.9455,-2.9731,-3.0142,-3.0355,-3.0398,-3.0398,-3.0398,-3.0398,-3.0398,-3.0398,-3.0398,0.0,0.0,0.0,0.0,0.0,0.0,-2.419,-2.361,-2.323,-2.3387,-2.2738,-2.231,-2.231,-2.231,-2.231,-2.231,-2.231,-2.231,-2.231,-2.231,-2.231,-2.231,-2.231,-2.2615,-2.3274,-2.3291,-2.3985,0.0,0.0,-2.4763,0.0,0.0,0.0,0.0,0.0,0.0,0.0,-2.4506,-2.4472,-2.4354,-2.3663,-2.3748,-2.4137,-2.2818,-2.2688,-2.3131,-2.2519,-2.2254,-2.2049,-2.126,-2.0682,-2.0212,-1.9854,-1.969,-1.969,-1.969,-1.969,-1.969,-1.969,-1.969,-1.969,-1.969,-1.969,-1.969,-1.969,-1.969,-1.969,-1.969,-1.969,-1.969,-1.969,-1.969,-1.969,0.0,0.0,0.0,0.0,0.0,-1.975,-1.969,0.0,0.0,-1.96,-2.0434,0.0,0.0,-2.1777,0.0,0.0,0.0,0.0,-2.5472,0.0,-2.7779,-2.7915,-2.865,-2.8994,-2.8994,-2.8994,-2.8994,-2.8994,-2.8994,-2.8994,-2.8994,-2.904,-2.9293,-2.9731,-2.9939,-3.0182,-3.0398,-3.0398,-3.0398,-3.0398,-3.0398,-3.0398,-3.0398,0.0,0.0,0.0,0.0,0.0,0.0,0.0,-2.3714,-2.3714,-2.3522,-2.279,-2.231,-2.231,-2.231,-2.231,-2.231,-2.231,-2.231,-2.231,-2.231,-2.231,-2.231,-2.231,-2.2446,-2.2733,-2.3173,-2.39,0.0,0.0,0.0,0.0,0.0,0.0,0.0,0.0,-2.5812,-2.5812,-2.5812,-2.5558,-2.5101,-2.4357,-2.3951,-2.3714,-2.2699,-2.2496,-2.2699,-2.2412,-2.2106,-2.1794,-2.1197,-2.0862,-2.0599,-1.9925,-1.969,-1.969,-1.969,-1.969,-1.969,-1.969,-1.969,-1.969,-1.969,-1.969,-1.969,-1.969,-1.969,-1.969,-1.969,-1.969,-1.969,-1.969,-1.969,-1.969,0.0,0.0,0.0,0.0,0.0,0.0,-1.9735,0.0,-1.969,0.0,-2.0481,0.0,0.0,0.0,0.0,0.0,0.0,0.0,-2.4835,0.0,-2.7852,-2.7805,-2.8613,-2.8994,-2.8994,-2.8994,-2.8994,-2.8994,-2.8994,-2.8994,-2.9017,-2.9178,-2.9415,-2.9769,-3.0475,-3.0642,-3.0436,-3.0987,-3.0871,-3.0398,-3.0398,-3.0398,-3.0398,-2.419,0.0,-2.419,0.0,-2.419,-2.4036,-2.3566,-2.3774,-2.3917,-2.3735,-2.3,-2.248,-2.2561,-2.2405,-2.231,-2.231,-2.231,-2.231,-2.231,-2.231,-2.231,-2.231,-2.231,0.0,-2.2936,-2.346,-2.4171,-2.5167,-2.5659,0.0,0.0,0.0,0.0,0.0,-2.6691,-2.6691,-2.6691,-2.6691,-2.6404,-2.5845,-2.4864,-2.4306,-2.3917,-2.275,-2.2446,-2.2598,-2.2395,-2.2003,-2.1521,-2.1134,-2.0894,-2.0665,-1.9909,-1.969,-1.969,-1.969,-1.969,-1.969,-1.969,-1.969,-1.969,-1.969,-1.969,-1.969,-1.969,-1.969,-1.969,-1.969,-1.969,-1.969,-1.969,-1.969,-1.969,-1.969,0.0,0.0,0.0,-2.0109,0.0,0.0,-1.969,-1.969,-1.969,-2.0481,0.0,0.0,0.0,0.0,0.0,0.0,0.0,0.0,0.0,0.0,-2.7805,-2.8613,-2.8994,-2.8994,-2.8994,-2.8994,-2.8994,-2.8994,-2.9122,-2.9347,-2.9292,-2.9675,-3.0359,-3.0964,-3.113,-3.1053,-3.152,-3.1314,-3.0794,-3.0794,-3.0609,-3.0436,-2.419,-2.419,-2.419,-2.419,-2.419,-2.4208,-2.419,-2.3795,-2.3671,-2.4113,-2.3432,-2.2982,-2.3183,-2.2677,-2.231,-2.231,-2.231,-2.231,-2.231,-2.231,-2.231,0.0,0.0,-2.2987,-2.4455,-2.4489,-2.5186,-2.6657,0.0,0.0,-2.6691,0.0,-2.6691,-2.6691,-2.6691,-2.6691,-2.6691,-2.6691,-2.6691,-2.6556,-2.5067,-2.4915,-2.5338,-2.3156,-2.275,-2.3291,-2.2564,-2.2003,-2.1521,-2.1134,-2.0682,-2.0261,-1.9854,-1.969,-1.969,-1.969,-1.969,-1.969,-1.969,-1.969,-1.969,-1.969,-1.969,-1.969,-1.969,-1.969,-1.969,-1.969,-1.969,-1.969,-1.969,-1.969,-1.969,-1.969,0.0,0.0,0.0,0.0,0.0,-1.969,-1.969,-1.969,-1.969,-2.0481,0.0,0.0,0.0,0.0,0.0,0.0,0.0,-2.6621,-2.7028,0.0,-2.7805,-2.8613,-2.8994,-2.8994,-2.8994,-2.8994,-2.8994,-2.8994,-2.9439,-3.0136,-2.9347,-3.0042,-3.1722,-3.1205,-3.159,-3.2416,-3.1891,-3.1698,-3.1679,-3.1679,-3.1141,-3.0513,-2.419,-2.419,-2.419,-2.419,-2.3491,-2.3212,-2.4074,-2.4074,-2.3876,-2.3566,-2.3671,-2.3795,-2.3858,-2.2943,-2.231,0.0,-2.231,-2.231,0.0,-2.231,-2.231,-2.231,-2.231,-2.2767,-2.3714,-2.4222,-2.4966,-2.5947,0.0,0.0,0.0,-2.6691,-2.6691,-2.6691,-2.6691,-2.6691,-2.6691,-2.6691,-2.6691,-2.6556,-2.5067,-2.4659,-2.4644,-2.2953,-2.2462,-2.2632,-2.2395,-2.2003,-2.1521,-2.1134,-2.0682,-2.0212,-1.9854,-1.969,-1.969,-1.969,-1.969,-1.969,-1.969,-1.969,-1.969,-1.969,-1.969,-1.969,-1.969,-1.969,-1.969,-1.969,-1.969,-1.969,-1.969,-1.969,-1.969,-1.969,-1.969,0.0,-1.969,0.0,-1.9818,-2.007,-1.9874,-1.9818,-2.0089,-2.1108,0.0,0.0,0.0,0.0,0.0,0.0,0.0,0.0,-2.705,0.0,-2.7805,-2.8613,-2.8994,-2.8994,-2.8994,-2.9287,-2.9824,-2.9824,-3.0265,-3.0999,-3.0742,-3.1075,-3.1834,-3.241,-3.2577,-3.2492,-3.2505,-3.2179,-3.1641,-3.1025,-3.0641,-3.0436,-2.419,-2.419,-2.419,-2.419,-2.3535,-2.3283,-2.4074,-2.419,-2.4054,-2.3649,-2.3937,-2.419,-2.419,-2.3491,0.0,-2.2338,-2.231,-2.231,-2.231,-2.231,-2.231,-2.231,-2.231,-2.2784,-2.3782,-2.4269,0.0,-2.6015,-2.6471,-2.6691,-2.6691,-2.6691,-2.6691,-2.6691,-2.6691,-2.6691,-2.6691,-2.6691,-2.6539,-2.6184,-2.4966,-2.4337,-2.3951,-2.2767,-2.231,-2.231,-2.231,-2.2003,-2.1552,-2.1306,-2.091,-2.0516,-2.0277,-2.0085,-1.9909,-1.9747,-1.969,-1.969,-1.969,-1.969,-1.969,-1.969,-1.969,-1.969,-1.969,-1.969,-1.969,-1.969,-1.969,-1.969,-1.969,-1.969,-1.969,-1.969,-1.969,-1.969,-1.969,0.0,-1.9873,0.0,0.0,0.0,0.0,-2.142,-2.1827,0.0,0.0,0.0,0.0,0.0,0.0,-2.6146,-2.7282,-2.7924,-2.8026,-2.8672,-2.8994,-2.8994,-2.9329,-2.9714,-3.021,-3.0503,-3.1091,-3.1825,-3.1513,-3.1839,-3.2604,-3.3178,-3.3374,-3.3329,-3.3374,-3.2872,-3.2083,-3.1545,-3.116,-3.0891,-2.419,-2.419,-2.419,0.0,-2.419,0.0,-2.419,-2.419,-2.419,-2.419,-2.419,-2.419,-2.419,-2.419,-2.3685,-2.2405,0.0,0.0,0.0,-2.231,-2.231,-2.231,-2.231,-2.2987,-2.4438,-2.4489,-2.5203,-2.6691,-2.664,-2.664,-2.6691,-2.664,-2.664,-2.6691,-2.6691,-2.6691,-2.6691,-2.664,-2.6234,-2.5541,-2.4729,-2.4002,-2.3325,-2.2581,-2.231,-2.231,-2.231,-2.2032,-2.1642,-2.1628,-2.1337,-2.1023,-2.1007,-2.0698,-2.0246,-1.9874,-1.9711,-1.969,-1.969,-1.969,-1.969,-1.969,-1.969,-1.969,-1.969,-1.969,-1.969,-1.969,-1.969,-1.969,-1.969,-1.969,-1.969,-1.969,-1.969,-1.969,-1.969,0.0,-1.9981,0.0,0.0,0.0,-2.133,-2.1633,-2.2024,0.0,0.0,0.0,0.0,0.0,-2.5405,-2.7251,-2.7678,-2.8047,-2.8394,-2.8797,-2.9012,-2.9085,-2.9898,-3.032,-3.0393,-3.1127,-3.1916,-3.2651,-3.188,-3.2412,-3.3787,-3.3561,-3.3939,-3.4659,-3.4312,-3.3647,-3.2891,-3.2833,-3.2295,-3.1621,0.0,0.0,-2.419,-2.419,-2.419,-2.419,-2.419,-2.419,-2.419,-2.419,-2.419,-2.419,-2.419,-2.419,-2.3685,-2.2405,-2.231,-2.231,-2.231,-2.231,-2.231,-2.231,-2.231,-2.2818,-2.3947,-2.4337,-2.5203,-2.6691,-2.6133,-2.615,-2.6674,-2.6116,-2.6167,-2.6691,-2.6691,-2.6691,-2.6657,-2.6099,-2.5761,-2.549,-2.4171,-2.3545,-2.3325,-2.2581,-2.231,-2.231,-2.231,-2.2237,-2.2077,-2.1718,-2.1521,-2.1399,-2.1086,-2.0926,-2.0764,-2.0296,-1.9929,-1.969,-1.969,-1.969,-1.969,-1.969,-1.969,-1.969,-1.969,-1.969,-1.969,-1.969,-1.969,-1.969,-1.969,-1.969,-1.969,-1.969,-1.969,-1.969,-1.969,-1.969,-2.0188,0.0,-2.144,-2.1531,-2.2281,-2.2965,-2.3159,0.0,0.0,0.0,0.0,-2.5439,-2.5936,-2.7269,-2.7678,-2.8047,-2.8394,-2.8797,-2.9329,-2.9934,-3.0723,-3.1439,-3.2045,-3.2228,-3.2761,-3.3513,-3.3311,-3.344,-3.3797,-3.3948,-3.428,-3.4659,-3.4099,-3.3499,-3.2833,-3.2218,-3.1448,-3.0717,-2.419,-2.419,-2.419,-2.419,-2.419,-2.419,-2.419,-2.419,-2.419,-2.419,-2.419,-2.419,-2.419,-2.419,-2.4517,-2.5293,-2.3488,-2.231,-2.231,-2.231,-2.2598,-2.3274,-2.3105,-2.3494,-2.4594,-2.4864,-2.5558,-2.6691,-2.6302,-2.6302,-2.6691,-2.6285,-2.6319,-2.6691,-2.6691,-2.6691,-2.6674,-2.6268,-2.5913,-2.5507,-2.4357,-2.3697,-2.3325,-2.2581,-2.231,-2.231,-2.231,-2.231,-2.2254,-2.2003,-2.1928,-2.1869,-2.1645,-2.1446,-2.1213,-2.0975,-2.0449,-1.9965,-1.9965,-1.9839,-1.969,-1.969,-1.969,-1.969,-1.969,-1.969,-1.969,-1.969,-1.969,-1.969,-1.969,-1.969,-1.969,-1.969,-1.969,-1.969,-1.969,-1.9874,-2.0527,-2.2071,-2.2136,-2.2456,-2.3572,-2.3966,-2.4128,-2.4028,-2.462,0.0,-2.6065,-2.6437,-2.6822,-2.7303,-2.8059,-2.861,-2.8943,-2.971,-3.032,-3.076,-3.1568,-3.2173,-3.2614,-3.2981,-3.3385,-3.3807,-3.3807,-3.3807,-3.3815,-3.4074,-3.4311,-3.4473,-3.4413,-3.3719,-3.2675,-3.2366,-3.1948,-3.1429,-2.419,-2.419,-2.419,-2.419,-2.419,-2.419,-2.419,-2.419,-2.419,-2.419,-2.419,-2.4373,-2.4869,-2.4924,-2.6025,-2.8755,-2.5498,-2.3031,-2.2327,-2.231,-2.3054,-2.4746,-2.4472,-2.4712,-2.5744,-2.5778,-2.6065,-2.6691,-2.659,-2.659,-2.6691,-2.659,-2.659,-2.6691,-2.6691,-2.6691,-2.6691,-2.6573,-2.6167,-2.5541,-2.4661,-2.3951,-2.3325,-2.2581,-2.231,-2.231,-2.231,-2.231,-2.231,-2.231,-2.231,-2.231,-2.231,-2.2032,-2.1718,-2.1718,-2.1102,-2.0382,-2.0314,-2.0,-1.969,-1.969,-1.969,-1.969,-1.969,-1.969,-1.969,-1.969,-1.969,-1.969,-1.969,-1.969,-1.969,-1.969,-1.969,-1.9711,-1.9782,0.0,-2.1019,-2.2462,-2.2878,-2.3522,-2.481,-2.486,-2.5084,-2.5727,-2.5879,-2.6268,-2.6996,-2.7638,-2.7879,-2.7618,-2.8675,-2.9469,-2.988,-3.102,-3.1568,-3.1586,-3.2412,-3.2797,-3.2816,-3.3495,-3.3807,-3.3807,-3.3807,-3.3807,-3.3815,-3.4043,-3.4152,-3.4246,-3.4756,-3.3952,-3.2499,-3.2746,-3.2679,-3.2276,-2.419,-2.419,-2.419,-2.419,-2.419,-2.419,-2.419,-2.419,-2.419,-2.419,-2.419,-2.5236,-2.797,-2.8264,-2.8443,-2.8957,-2.8359,-2.634,-2.2547,-2.231,-2.3511,-2.6234,-2.6285,-2.6336,-2.6522,-2.6522,-2.659,-2.6691,-2.6082,-2.6099,-2.6674,-2.6065,-2.6099,-2.6691,-2.6691,-2.6691,-2.6657,-2.6048,-2.571,-2.549,-2.412,-2.3494,-2.3325,-2.2581,-2.231,-2.231,-2.231,-2.231,-2.231,-2.231,-2.231,-2.231,-2.231,-2.2237,-2.218,-2.218,-2.1584,-2.0797,-2.0416,-2.0,-1.969,-1.969,-1.969,-1.969,-1.969,-1.969,-1.969,-1.969,-1.969,-1.969,-1.969,-1.969,-1.969,-1.969,-1.969,-1.9818,-2.0158,0.0,-2.1913,-2.3487,-2.4247,-2.4846,-2.5428,-2.6015,-2.6404,-2.6522,-2.7114,-2.7824,-2.8586,-2.8738,-2.8918,-2.9142,-2.9734,-3.0378,-3.1107,-3.1983,-3.2412,-3.243,-3.3238,-3.3605,-3.3623,-3.3733,-3.3807,-3.3807,-3.3807,-3.3807,-3.3788,-3.3842,-3.4012,-3.42,-3.4292,-3.3477,-3.2277,-3.2483,-3.1665,-3.0548,-2.419,-2.419,-2.419,-2.419,-2.419,-2.419,-2.419,-2.5676,-2.6172,-2.4428,-2.5713,-2.7365,-2.8828,-2.8994,-2.8994,-2.8994,-2.8994,-2.8106,-2.605,-2.3646,-2.3257,-2.5406,-2.6268,-2.6691,-2.6691,-2.6691,-2.6691,-2.6691,-2.6353,-2.637,-2.6691,-2.6353,-2.637,-2.6691,-2.6691,-2.6691,-2.6674,-2.6336,-2.6184,-2.6099,-2.5017,-2.434,-2.39,-2.3173,-2.2649,-2.231,-2.231,-2.231,-2.231,-2.231,-2.231,-2.231,-2.231,-2.231,-2.231,-2.231,-2.1675,-2.0894,-2.0416,-2.0,-1.9747,-1.9965,-1.9874,-1.969,-1.969,-1.9974,-2.0243,-2.0243,-2.0528,-2.0662,-2.0303,-2.0243,-2.0243,-2.0243,-1.9929,0.0,-2.1286,-2.1666,-2.2497,-2.4264,-2.498,-2.5715,-2.6691,-2.7097,-2.7469,-2.7892,-2.8247,-2.8602,-2.8958,-2.9364,-2.9641,-2.9826,-3.0709,-3.165,-3.2687,-3.3054,-3.3256,-3.3256,-3.3623,-3.3807,-3.3807,-3.3807,-3.3807,-3.3807,-3.3807,-3.3807,-3.3807,-3.3807,-3.3876,-3.4012,-3.4147,-3.356,-3.2643,-3.2902,-3.2502,-3.1838,-2.419,-2.419,-2.4447,-2.5199,-2.4704,-2.419,-2.419,-2.63,-2.7273,-2.5548,-2.7475,-2.8994,-2.8994,-2.8994,-2.8994,-2.8994,-2.8994,-2.8994,-2.8994,-2.5778,-2.419,-2.498,-2.6082,-2.6691,-2.6691,-2.6691,-2.6691,-2.6691,-2.6691,-2.6691,-2.6691,-2.6691,-2.6691,-2.6691,-2.6691,-2.6691,-2.6691,-2.6691,-2.6691,-2.6623,-2.5896,-2.5152,-2.4455,-2.3866,-2.319,-2.2564,-2.2564,-2.2564,-2.2547,-2.2361,-2.231,-2.231,-2.231,-2.231,-2.231,-2.231,-2.1751,-2.1023,-2.0449,-2.0158,-2.0035,-2.0246,-2.0177,-2.0044,-1.9951,-2.0453,-2.0946,-2.0946,-2.1335,-2.1545,-2.1036,-2.0946,-2.0946,-2.0946,0.0,0.0,0.0,-2.2681,-2.3438,-2.5195,-2.5832,-2.664,-2.796,-2.8212,-2.8602,-2.9194,-2.9397,-2.9499,-2.9499,-3.004,-3.0383,-3.0479,-3.1553,-3.2658,-3.3788,-3.3807,-3.3807,-3.3807,-3.399,-3.399,-3.3807,-3.399,-3.3972,-3.3807,-3.3807,-3.3807,-3.3807,-3.3807,-3.3807,-3.3815,-3.4018,-3.361,-3.2948,-3.3203,-3.3197,-3.2972,-2.419,-2.419,-2.5144,-2.8136,-2.619,-2.419,-2.419,-2.4392,-2.5548,-2.8301,-2.8847,-2.8994,-2.8994,-2.8994,-2.8994,-2.8994,-2.8994,-2.8994,-2.8994,-2.8686,-2.7924,-2.6589,-2.664,-2.6691,-2.6691,-2.6691,-2.6691,-2.6691,-2.6691,-2.6691,-2.6691,-2.6691,-2.6691,-2.6691,-2.6691,-2.6691,-2.6691,-2.6691,-2.6691,-2.6623,-2.5896,-2.5152,-2.4506,-2.4455,-2.3951,-2.3325,-2.3325,-2.3325,-2.3207,-2.2547,-2.231,-2.231,-2.231,-2.231,-2.231,-2.231,-2.1945,-2.1352,-2.0534,-2.0583,-2.0797,-2.0416,-2.0744,-2.1095,-2.0693,-2.1141,-2.162,-2.162,-2.1665,-2.168,-2.1635,-2.162,-2.162,-2.162,0.0,0.0,-2.298,-2.4056,-2.5228,-2.6438,-2.7198,-2.7977,-2.8822,-2.9533,-2.9973,-3.0023,-3.0649,-3.1038,-3.1038,-3.1089,-3.1304,-3.1666,-3.2194,-3.2911,-3.3788,-3.3807,-3.3807,-3.3807,-3.4578,-3.4523,-3.3825,-3.4578,-3.4504,-3.3807,-3.3807,-3.3807,-3.3807,-3.3807,-3.3807,-3.3788,-3.3815,-3.3338,-3.2647,-3.2948,-3.256,-3.2045,-2.6796,-2.7181,-2.7567,-2.8773,-2.8007,-2.7181,-2.7181,-2.5474,-2.5364,-2.8572,-2.8994,-2.8994,-2.8994,-2.8994,-2.8994,-2.8994,-2.8994,-2.8994,-2.8994,-2.8994,-2.8316,-2.6791,-2.6691,-2.6691,-2.6691,-2.6691,-2.6691,-2.6691,-2.6691,-2.6691,-2.6691,-2.6691,-2.6691,-2.6691,-2.6691,-2.6691,-2.6691,-2.6691,-2.6691,-2.6674,-2.6387,-2.5845,-2.5169,-2.5169,-2.4712,-2.4069,-2.4069,-2.4069,-2.4036,-2.3748,-2.3646,-2.3579,-2.3122,-2.2987,-2.2827,-2.2091,-2.1945,-2.1899,-2.1275,-2.083,-2.0693,-2.1219,-2.1131,-2.1008,-2.1255,-2.1829,-2.2308,-2.2308,-2.2607,-2.2877,-2.2877,-2.2562,-2.2577,-2.3385,0.0,-2.3755,-2.5479,-2.6101,-2.6795,-2.7992,-2.8366,-2.8839,-2.96,-2.9939,-3.0294,-3.0751,-3.1038,-3.119,-3.119,-3.1613,-3.2071,-3.2515,-3.295,-3.3259,-3.3437,-3.368,-3.3807,-3.3807,-3.4119,-3.41,-3.3807,-3.4119,-3.41,-3.3825,-3.4339,-3.4266,-3.3844,-3.4339,-3.4266,-3.3807,-3.3807,-3.3605,-3.3348,-3.346,-3.3308,-3.3112,-2.8553,-2.8994,-2.8994,-2.8994,-2.8994,-2.8994,-2.8994,-2.7145,-2.6502,-2.87,-2.8994,-2.8994,-2.8994,-2.8994,-2.8994,-2.8994,-2.8994,-2.8994,-2.8994,-2.8558,-2.7805,-2.6758,-2.6691,-2.6691,-2.6691,-2.6691,-2.6691,-2.6691,-2.6691,-2.6691,-2.6691,-2.6691,-2.6691,-2.6691,-2.6691,-2.6691,-2.6691,-2.6691,-2.6691,-2.6691,-2.6691,-2.6251,-2.5642,-2.5862,-2.549,-2.4831,-2.4831,-2.4831,-2.4797,-2.4591,-2.4506,-2.4421,-2.39,-2.3748,-2.3549,-2.2478,-2.2396,-2.2546,-2.2035,-2.1392,-2.1023,-2.1818,-2.1766,-2.1581,-2.1929,-2.2503,-2.3026,-2.3236,-2.3625,-2.3984,-2.4193,-2.3879,-2.3894,-2.4792,-2.481,-2.5369,-2.7045,-2.7574,-2.8159,-2.9208,-2.9347,-2.9634,-3.0378,-3.0446,-3.0666,-3.1157,-3.141,-3.1647,-3.1884,-3.2577,-3.3012,-3.3115,-3.3746,-3.3917,-3.3494,-3.3702,-3.3935,-3.4192,-3.4192,-3.4045,-3.3825,-3.4357,-3.4302,-3.3844,-3.4669,-3.4559,-3.3844,-3.4412,-3.4302,-3.3807,-3.3807,-3.3807,-3.3807,-3.3807,-3.3807,-3.3807,-2.8994,-2.8994,-2.8994,-2.8994,-2.8994,-2.8994,-2.8994,-2.8994,-2.8994,-2.8994,-2.8994,-2.8994,-2.8994,-2.8994,-2.8994,-2.8994,-2.8994,-2.8994,-2.903,-2.7589,-2.6708,-2.6708,-2.6708,-2.6691,-2.6691,-2.6691,-2.6691,-2.6708,-2.6691,-2.6691,-2.6708,-2.6691,-2.6691,-2.6691,-2.6691,-2.6691,-2.6691,-2.6691,-2.6691,-2.6691,-2.6691,-2.6251,-2.5693,-2.642,-2.6251,-2.5609,-2.5609,-2.5609,-2.5507,-2.4746,-2.4523,-2.4523,-2.4523,-2.4506,-2.4371,-2.3613,-2.341,-2.3287,-2.2747,-2.2313,-2.2029,-2.1995,-2.265,-2.3191,-2.2791,-2.3176,-2.3804,-2.4492,-2.4582,-2.4837,-2.5495,-2.5615,-2.5615,-2.5615,-2.6582,-2.731,-2.731,-2.8323,-2.9279,-3.0023,-3.0125,-3.0395,-3.1123,-3.119,-3.119,-3.1207,-3.1884,-3.2611,-3.3372,-3.41,-3.4167,-3.344,-3.4569,-3.4846,-3.4103,-3.3916,-3.4229,-3.499,-3.5009,-3.4596,-3.388,-3.5532,-3.5385,-3.3862,-3.4642,-3.4559,-3.3807,-3.3807,-3.3807,-3.3807,-3.3807,-3.3807,-3.3807,-3.3807,-3.3807,-3.3807,-2.8994,-2.8994,-2.8994,-2.8994,-2.8994,-2.8994,-2.8994,-2.8994,-2.8994,-2.8994,-2.8994,-2.8994,-2.8994,-2.8994,-2.8994,-2.8994,-2.8994,-2.9971,-3.2228,-2.9828,-2.8322,-2.8377,-2.7315,-2.6691,-2.6691,-2.6691,-2.6945,-2.7486,-2.6945,-2.6962,-2.7469,-2.6945,-2.6691,-2.6691,-2.6691,-2.6691,-2.6691,-2.6691,-2.6691,-2.6691,-2.6691,-2.6573,-2.6387,-2.6607,-2.6556,-2.637,-2.637,-2.637,-2.6336,-2.6116,-2.6031,-2.5947,-2.5439,-2.4915,-2.4472,-2.4222,-2.4154,-2.4154,-2.3984,-2.3967,-2.3786,-2.3079,-2.2885,-2.3058,-2.3878,-2.4193,-2.4626,-2.5708,-2.5935,-2.6269,-2.7366,-2.7186,-2.7186,-2.8133,-2.8539,-2.8854,-2.9361,-3.0049,-3.0615,-3.0852,-3.0869,-3.0954,-3.1173,-3.119,-3.141,-3.1918,-3.2645,-3.3169,-3.3389,-3.41,-3.4387,-3.4167,-3.4844,-3.5348,-3.57,-3.5238,-3.5108,-3.5362,-3.5736,-3.5789,-3.5569,-3.6064,-3.6028,-3.5569,-3.5807,-3.544,-3.4651,-3.4651,-3.4321,-3.3807,-3.3807,-3.3807,-3.3807,-3.3807,-3.3807,-3.3807,-2.8994,-2.8994,-2.8994,-2.8994,-2.8994,-2.8994,-2.8994,-2.8994,-2.8994,-2.8994,-2.8994,-2.8994,-2.8994,-2.8994,-2.8994,-2.8994,-2.8994,-2.9569,-3.0879,-3.0924,-3.0545,-2.9729,-2.8506,-2.7487,-2.6708,-2.6996,-2.7368,-2.7789,-2.7672,-2.7841,-2.8264,-2.7807,-2.7435,-2.7148,-2.7148,-2.6962,-2.6691,-2.6691,-2.6691,-2.6691,-2.6691,-2.6691,-2.6691,-2.6691,-2.6691,-2.6691,-2.6691,-2.6691,-2.6691,-2.6691,-2.6691,-2.6623,-2.6184,-2.5727,-2.5304,-2.5017,-2.4932,-2.4884,-2.4676,-2.4946,-2.5138,-2.4641,-2.4284,-2.4271,-2.4815,-2.5151,-2.5575,-2.6367,-2.6718,-2.7219,-2.8268,-2.8311,-2.8442,-2.9262,-2.9577,-2.9939,-3.0665,-3.1005,-3.1309,-3.1596,-3.163,-3.1512,-3.1224,-3.1444,-3.1935,-3.2662,-3.3423,-3.3964,-3.4269,-3.4692,-3.4945,-3.4945,-3.5215,-3.5591,-3.6097,-3.5934,-3.5776,-3.5663,-3.5887,-3.5994,-3.5994,-3.6538,-3.6597,-3.6321,-3.6633,-3.6101,-3.499,-3.499,-3.4541,-3.3807,-3.3807,-3.3807,-3.3807,-3.3807,-3.3807,-3.3807,-2.8994,-2.8994,-2.8994,-2.8994,-2.8994,-2.8994,-2.8994,-2.8994,-2.8994,-2.8994,-2.8994,-2.8994,-2.8994,-2.8994,-2.8994,-2.8994,-2.8994,-2.8539,-2.7429,-3.1243,-3.2733,-3.0898,-3.0089,-2.8816,-2.6894,-2.7537,-2.796,-2.7992,-2.867,-2.9008,-2.9076,-2.9008,-2.8602,-2.7891,-2.7823,-2.7435,-2.6793,-2.6725,-2.6691,-2.6691,-2.6691,-2.6691,-2.6691,-2.6691,-2.6691,-2.6691,-2.6691,-2.6691,-2.6691,-2.6691,-2.6691,-2.6691,-2.6691,-2.6691,-2.6573,-2.5896,-2.571,-2.5596,-2.5094,-2.557,-2.6224,-2.6409,-2.655,-2.643,-2.5742,-2.6094,-2.6639,-2.6768,-2.724,-2.7891,-2.8607,-2.9229,-2.9697,-2.9762,-3.0168,-3.074,-3.1494,-3.1431,-3.1562,-3.229,-3.2374,-3.2121,-3.1461,-3.2053,-3.2763,-3.3457,-3.4184,-3.4895,-3.5588,-3.5622,-3.5656,-3.5723,-3.5656,-3.5656,-3.5723,-3.6131,-3.6197,-3.5947,-3.5771,-3.5681,-3.575,-3.6991,-3.7154,-3.6541,-3.7129,-3.656,-3.5192,-3.4972,-3.4504,-3.3899,-3.3825,-3.3807,-3.3807,-3.3807,-3.3807,-3.3807,-2.8994,-2.8994,-2.8994,-2.8994,-2.8994,-2.8994,-2.8994,-2.8994,-2.8994,-2.8994,-2.8994,-2.8994,-2.8994,-2.8994,-2.8994,-2.8994,-2.8994,-2.9942,-3.2117,-3.1962,-3.1987,-3.2442,-3.1179,-2.9695,-2.8077,-2.8492,-2.9025,-2.9617,-2.9194,-2.9296,-2.9854,-2.9262,-2.889,-2.8704,-2.8095,-2.7688,-2.7537,-2.6945,-2.6691,-2.6691,-2.6691,-2.6691,-2.6691,-2.6691,-2.6691,-2.6691,-2.6691,-2.6691,-2.6691,-2.6691,-2.6691,-2.6691,-2.6691,-2.6691,-2.6657,-2.6505,-2.6454,-2.6454,-2.6337,-2.6859,-2.7429,-2.7473,-2.8394,-2.888,-2.741,-2.7177,-2.7442,-2.7965,-2.8545,-2.9329,-3.053,-3.1262,-3.1859,-3.2445,-3.2144,-3.2109,-3.2866,-3.2428,-3.2324,-3.3068,-3.3169,-3.3102,-3.2949,-3.3592,-3.4083,-3.4252,-3.4945,-3.5453,-3.5605,-3.5622,-3.5893,-3.6502,-3.5943,-3.591,-3.6518,-3.6044,-3.5925,-3.6319,-3.6673,-3.7024,-3.7388,-3.7688,-3.7954,-3.812,-3.7019,-3.6707,-3.6798,-3.4853,-3.4339,-3.466,-3.4045,-3.3807,-3.3807,-3.3807,-3.3807,-3.3807,-2.8994,-2.8994,-2.8994,-2.8994,-2.8994,-2.8994,-2.8994,-2.8994,-2.8994,-2.8994,-3.0356,-3.0723,-2.9159,-2.8994,-2.9617,-3.1164,-3.1292,-3.1638,-3.2492,-3.2092,-3.2021,-3.2535,-3.1725,-3.0855,-3.0041,-3.0046,-2.9966,-2.9792,-3.0153,-3.0418,-3.0615,-3.0226,-2.9854,-2.9499,-2.9093,-2.8721,-2.8349,-2.7943,-2.7571,-2.7232,-2.7232,-2.7012,-2.6691,-2.6691,-2.6691,-2.6691,-2.6691,-2.6691,-2.6691,-2.6691,-2.6928,-2.7232,-2.7232,-2.7232,-2.73,-2.7672,-2.752,-2.7317,-2.7689,-2.8332,-2.8907,-2.8907,-2.9786,-3.0224,-2.8656,-2.8846,-2.9393,-2.9453,-3.0204,-3.1075,-3.1808,-3.2445,-3.2949,-3.3339,-3.3068,-3.3068,-3.3812,-3.3288,-3.3102,-3.3829,-3.3931,-3.3931,-3.3931,-3.4269,-3.4489,-3.4489,-3.5182,-3.5622,-3.5622,-3.596,-3.6366,-3.6772,-3.6738,-3.6907,-3.7313,-3.6924,-3.6656,-3.6576,-3.6754,-3.6943,-3.7193,-3.7685,-3.8047,-3.8296,-3.7699,-3.7459,-3.7415,-3.6083,-3.5587,-3.555,-3.4706,-3.4633,-3.4945,-3.4541,-3.4651,-3.4981,-2.8994,-2.8994,-2.8994,-2.8994,-2.8994,-2.8994,-2.8994,-2.9452,-2.9824,-2.9824,-3.2137,-3.2779,-3.0118,-2.9824,-3.0907,-3.3568,-3.3996,-3.3479,-3.2055,-3.2466,-3.2599,-3.2209,-3.2067,-3.1858,-3.1598,-3.1476,-3.0871,-2.9799,-3.113,-3.164,-3.1291,-3.1291,-3.0968,-3.0374,-3.0197,-2.9753,-2.9161,-2.9025,-2.8602,-2.8027,-2.8027,-2.7638,-2.708,-2.708,-2.6996,-2.6911,-2.7029,-2.6996,-2.6911,-2.7046,-2.7418,-2.7806,-2.7977,-2.8027,-2.8146,-2.8789,-2.8518,-2.8163,-2.8805,-2.9533,-3.0108,-3.0108,-3.0649,-3.0937,-2.9945,-3.0575,-3.1249,-3.0776,-3.1645,-3.2529,-3.2644,-3.3155,-3.3643,-3.3761,-3.3677,-3.3846,-3.4573,-3.4049,-3.3863,-3.459,-3.4692,-3.4692,-3.4692,-3.4692,-3.4692,-3.4692,-3.5385,-3.5825,-3.5825,-3.6552,-3.7026,-3.7144,-3.7652,-3.7973,-3.8091,-3.7973,-3.7584,-3.6958,-3.6637,-3.6429,-3.6416,-3.7342,-3.7825,-3.7928,-3.8319,-3.8193,-3.7661,-3.7404,-3.6964,-3.6413,-3.5569,-3.5661,-3.6211,-3.5495,-3.5771,-3.6486,-2.8994,-2.8994,-2.8994,-2.8994,-2.8994,-2.8994,-2.8994,-3.1366,-3.3146,-3.3146,-3.3532,-3.3623,-3.3201,-3.3146,-3.333,-3.3752,-3.4763,-3.5241,-3.5013,-3.4347,-3.3581,-3.2649,-3.2775,-3.2187,-3.0784,-3.1794,-3.1881,-3.0946,-3.1537,-3.1789,-3.1733,-3.1733,-3.1681,-3.1524,-3.0534,-3.004,-2.9922,-2.9262,-2.8924,-2.8822,-2.8822,-2.8772,-2.8706,-2.8706,-2.8264,-2.7757,-2.8433,-2.823,-2.7774,-2.845,-2.8298,-2.7943,-2.8619,-2.8822,-2.8839,-2.8994,-2.8907,-2.8839,-2.8958,-2.9533,-3.0108,-3.0108,-3.0649,-3.1326,-3.177,-3.1616,-3.1396,-3.1451,-3.2004,-3.2677,-3.3333,-3.3952,-3.4556,-3.5216,-3.4776,-3.4607,-3.5368,-3.4827,-3.4624,-3.5368,-3.547,-3.547,-3.547,-3.547,-3.547,-3.547,-3.618,-3.662,-3.662,-3.7347,-3.8041,-3.8667,-3.8176,-3.821,-3.8836,-3.8227,-3.7855,-3.7736,-3.7068,-3.6635,-3.6416,-3.702,-3.7506,-3.7891,-3.7716,-3.7991,-3.8432,-3.7037,-3.6798,-3.7239,-3.6431,-3.6193,-3.6285,-3.6174,-3.6633,-3.7221,-3.1678,-3.1678,-3.1678,-3.1678,-3.1678,-3.1678,-3.1678,-3.2889,-3.3807,-3.3807,-3.3807,-3.3807,-3.3807,-3.3807,-3.3807,-3.3807,-3.5972,-3.6847,-3.5694,-3.5061,-3.4271,-3.3136,-3.3172,-3.2696,-3.1568,-3.2347,-3.2256,-3.119,-3.1603,-3.1789,-3.1789,-3.1565,-3.1603,-3.1771,-3.1049,-3.0717,-3.0683,-3.0362,-2.9989,-2.96,-2.96,-2.9364,-2.9011,-2.9011,-2.8772,-2.8518,-2.8856,-2.8755,-2.8518,-2.8873,-2.9042,-2.9161,-2.9499,-2.96,-2.9702,-3.0108,-2.9939,-2.9702,-3.0108,-3.0463,-3.0717,-3.0717,-3.1258,-3.2002,-3.2747,-3.3035,-3.3128,-3.3222,-3.3756,-3.4337,-3.4655,-3.4919,-3.5233,-3.5571,-3.5707,-3.5893,-3.6214,-3.5977,-3.5893,-3.6231,-3.6265,-3.6434,-3.6857,-3.6891,-3.6891,-3.6891,-3.7212,-3.7398,-3.7398,-3.8108,-3.8667,-3.8988,-3.9073,-3.9276,-3.9597,-3.9276,-3.8717,-3.7905,-3.7567,-3.7131,-3.6618,-3.7036,-3.7323,-3.7524,-3.7986,-3.8377,-3.8652,-3.7936,-3.7845,-3.8083,-3.7276,-3.6964,-3.7019,-3.7459,-3.7863,-3.812]},{"header":{"parameterUnit":"m.s-1","parameterCategory":1,"la1":30.6,"la2":28.766,"lo1":-90.7593,"lo2":-88.6598,"dy":0.0162,"dx":0.0183,"nx":116,"ny":114,"refTime":"2023-11-09T06:00:00:Z","depth":0,"parameterNumber":3,"parameterNumberName":"V-component_of_WINDS"},"data":[0.0,0.0,0.0,0.0,0.0,0.0,0.0,0.0,0.0,0.0,0.0,0.0,0.0,0.0,0.0,0.0,0.0,0.0,0.0,0.0,0.0,0.0,0.0,0.0,0.0,0.0,0.0,0.0,0.0,0.0,0.0,0.0,0.0,0.0,0.0,0.0,0.0,0.0,0.0,0.0,0.0,0.0,0.0,0.0,0.0,0.0,0.0,0.0,0.0,0.0,0.0,0.0,0.0,0.0,0.0,0.0,0.0,0.0,0.0,0.0,0.0,0.0,0.0,0.0,0.0,0.0,0.0,0.0,0.0,0.0,0.0,0.0,0.0,0.0,0.0,0.0,0.0,0.0,0.0,0.0,0.0,0.0,0.0,0.0,0.0,0.0,0.0,0.0,0.0,0.0,0.0,0.0,0.0,0.0,0.0,0.0,0.0,0.0,0.0,0.0,0.0,0.0,0.0,0.0,0.0,0.0,0.0,0.0,0.0,0.0,0.0,0.0,0.0,0.0,0.0,0.0,0.0,0.0,0.0,0.0,0.0,0.0,0.0,0.0,0.0,0.0,0.0,0.0,0.0,0.0,0.0,0.0,0.0,0.0,0.0,0.0,0.0,0.0,0.0,0.0,0.0,0.0,0.0,0.0,0.0,0.0,0.0,0.0,0.0,0.0,0.0,0.0,0.0,0.0,0.0,0.0,0.0,0.0,0.0,0.0,0.0,0.0,0.0,0.0,0.0,0.0,0.0,0.0,0.0,0.0,0.0,0.0,0.0,0.0,0.0,0.0,0.0,0.0,0.0,0.0,0.0,0.0,0.0,0.0,0.0,0.0,0.0,0.0,0.0,0.0,0.0,0.0,0.0,0.0,0.0,0.0,0.0,0.0,0.0,0.0,0.0,0.0,0.0,0.0,0.0,0.0,0.0,0.0,0.0,0.0,0.0,0.0,0.0,0.0,0.0,0.0,0.0,0.0,0.0,0.0,0.0,0.0,0.0,0.0,0.0,0.0,0.0,0.0,0.0,0.0,0.0,0.0,0.0,0.0,0.0,0.0,0.0,0.0,0.0,0.0,0.0,0.0,0.0,0.0,0.0,0.0,0.0,0.0,0.0,0.0,0.0,0.0,0.0,0.0,0.0,0.0,0.0,0.0,0.0,0.0,0.0,0.0,0.0,0.0,0.0,0.0,0.0,0.0,0.0,0.0,0.0,0.0,0.0,0.0,0.0,0.0,0.0,0.0,0.0,0.0,0.0,0.0,0.0,0.0,0.0,0.0,0.0,0.0,0.0,0.0,0.0,0.0,0.0,0.0,0.0,0.0,0.0,0.0,0.0,0.0,0.0,0.0,0.0,0.0,0.0,0.0,0.0,0.0,0.0,0.0,0.0,0.0,0.0,0.0,0.0,0.0,0.0,0.0,0.0,0.0,0.0,0.0,0.0,0.0,0.0,0.0,0.0,0.0,0.0,0.0,0.0,0.0,0.0,0.0,0.0,0.0,0.0,0.0,0.0,0.0,0.0,0.0,0.0,0.0,0.0,0.0,0.0,0.0,0.0,0.0,0.0,0.0,0.0,0.0,0.0,0.0,0.0,0.0,0.0,0.0,0.0,0.0,0.0,0.0,0.0,0.0,0.0,0.0,0.0,0.0,0.0,0.0,0.0,0.0,0.0,0.0,0.0,0.0,0.0,0.0,0.0,0.0,0.0,0.0,0.0,0.0,0.0,0.0,0.0,0.0,0.0,0.0,0.0,0.0,0.0,0.0,0.0,0.0,0.0,0.0,0.0,0.0,0.0,0.0,0.0,0.0,0.0,0.0,0.0,0.0,0.0,0.0,0.0,0.0,0.0,0.0,0.0,0.0,0.0,0.0,0.0,0.0,0.0,0.0,0.0,0.0,0.0,0.0,0.0,0.0,0.0,0.0,0.0,0.0,0.0,0.0,0.0,0.0,0.0,0.0,0.0,0.0,0.0,0.0,0.0,0.0,0.0,0.0,0.0,0.0,0.0,0.0,0.0,0.0,0.0,0.0,0.0,0.0,0.0,0.0,0.0,0.0,0.0,0.0,0.0,0.0,0.0,0.0,0.0,0.0,0.0,0.0,0.0,0.0,0.0,0.0,0.0,0.0,0.0,0.0,0.0,0.0,0.0,0.0,0.0,0.0,0.0,0.0,0.0,0.0,0.0,0.0,0.0,0.0,0.0,0.0,0.0,0.0,0.0,0.0,0.0,0.0,0.0,0.0,0.0,0.0,0.0,0.0,0.0,0.0,0.0,0.0,0.0,0.0,0.0,0.0,0.0,0.0,0.0,0.0,0.0,0.0,0.0,0.0,0.0,0.0,0.0,0.0,0.0,0.0,0.0,0.0,0.0,0.0,0.0,0.0,0.0,0.0,0.0,0.0,0.0,0.0,0.0,0.0,0.0,0.0,0.0,0.0,0.0,0.0,0.0,0.0,0.0,0.0,0.0,0.0,0.0,0.0,0.0,0.0,0.0,0.0,0.0,0.0,0.0,0.0,0.0,0.0,0.0,0.0,0.0,0.0,0.0,0.0,0.0,0.0,0.0,0.0,0.0,0.0,0.0,0.0,0.0,0.0,0.0,0.0,0.0,0.0,0.0,0.0,0.0,0.0,0.0,0.0,0.0,0.0,0.0,0.0,0.0,0.0,0.0,0.0,0.0,0.0,0.0,0.0,0.0,0.0,0.0,0.0,0.0,0.0,0.0,0.0,0.0,0.0,0.0,0.0,0.0,0.0,0.0,0.0,0.0,0.0,0.0,0.0,0.0,0.0,0.0,0.0,0.0,0.0,0.0,0.0,0.0,0.0,0.0,0.0,0.0,0.0,0.0,0.0,0.0,0.0,0.0,0.0,0.0,0.0,0.0,0.0,0.0,0.0,0.0,0.0,0.0,0.0,0.0,0.0,0.0,0.0,0.0,0.0,0.0,0.0,0.0,0.0,0.0,0.0,0.0,0.0,0.0,0.0,0.0,0.0,0.0,0.0,0.0,0.0,0.0,0.0,0.0,0.0,0.0,0.0,0.0,0.0,0.0,0.0,0.0,0.0,0.0,0.0,0.0,0.0,0.0,0.0,0.0,0.0,0.0,0.0,0.0,0.0,0.0,0.0,0.0,0.0,0.0,0.0,0.0,0.0,0.0,0.0,0.0,0.0,0.0,0.0,0.0,0.0,0.0,0.0,0.0,0.0,0.0,0.0,0.0,0.0,0.0,0.0,0.0,0.0,0.0,0.0,0.0,0.0,0.0,0.0,0.0,0.0,0.0,0.0,0.0,0.0,0.0,0.0,0.0,0.0,0.0,0.0,0.0,0.0,0.0,0.0,0.0,0.0,0.0,0.0,0.0,0.0,0.0,0.0,0.0,0.0,0.0,0.0,0.0,0.0,0.0,0.0,0.0,0.0,0.0,0.0,0.0,0.0,0.0,0.0,0.0,0.0,0.0,0.0,0.0,0.0,0.0,0.0,0.0,0.0,0.0,0.0,0.0,0.0,0.0,0.0,0.0,0.0,0.0,0.0,0.0,0.0,0.0,0.0,0.0,0.0,0.0,0.0,0.0,0.0,0.0,0.0,0.0,0.0,0.0,0.0,0.0,0.0,0.0,0.0,0.0,0.0,0.0,0.0,0.0,0.0,0.0,0.0,0.0,0.0,0.0,0.0,0.0,0.0,0.0,0.0,0.0,0.0,0.0,0.0,0.0,0.0,0.0,0.0,0.0,0.0,0.0,0.0,0.0,0.0,0.0,0.0,0.0,0.0,0.0,0.0,0.0,0.0,0.0,0.0,0.0,0.0,0.0,0.0,0.0,0.0,0.0,0.0,0.0,0.0,0.0,0.0,0.0,0.0,0.0,0.0,0.0,0.0,0.0,0.0,0.0,0.0,0.0,0.0,0.0,0.0,0.0,0.0,0.0,0.0,0.0,0.0,0.0,0.0,0.0,0.0,0.0,0.0,0.0,0.0,0.0,0.0,0.0,0.0,0.0,0.0,0.0,0.0,0.0,0.0,0.0,0.0,0.0,0.0,0.0,0.0,0.0,0.0,0.0,0.0,0.0,0.0,0.0,0.0,0.0,0.0,0.0,0.0,0.0,0.0,0.0,0.0,0.0,0.0,0.0,0.0,0.0,0.0,0.0,0.0,0.0,0.0,0.0,0.0,0.0,0.0,0.0,0.0,0.0,0.0,0.0,0.0,0.0,0.0,0.0,0.0,0.0,0.0,0.0,0.0,0.0,0.0,0.0,0.0,0.0,0.0,0.0,0.0,0.0,0.0,0.0,0.0,0.0,0.0,0.0,0.0,0.0,0.0,0.0,0.0,0.0,0.0,0.0,0.0,0.0,0.0,0.0,0.0,0.0,0.0,0.0,0.0,0.0,0.0,0.0,0.0,0.0,0.0,0.0,0.0,0.0,0.0,0.0,0.0,0.0,0.0,0.0,0.0,0.0,0.0,0.0,0.0,0.0,0.0,0.0,0.0,0.0,0.0,0.0,0.0,0.0,0.0,0.0,0.0,0.0,0.0,0.0,0.0,0.0,0.0,0.0,0.0,0.0,0.0,0.0,0.0,0.0,0.0,0.0,0.0,0.0,0.0,0.0,0.0,0.0,0.0,0.0,0.0,0.0,0.0,0.0,0.0,0.0,0.0,0.0,0.0,0.0,0.0,0.0,0.0,0.0,0.0,0.0,0.0,0.0,0.0,0.0,0.0,0.0,0.0,0.0,0.0,0.0,0.0,0.0,0.0,0.0,0.0,0.0,0.0,0.0,0.0,0.0,0.0,0.0,0.0,0.0,0.0,0.0,0.0,0.0,0.0,0.0,0.0,0.0,0.0,0.0,0.0,0.0,0.0,0.0,0.0,0.0,0.0,0.0,0.0,0.0,0.0,0.0,0.0,0.0,0.0,0.0,0.0,0.0,0.0,0.0,0.0,0.0,0.0,0.0,0.0,0.0,0.0,0.0,0.0,0.0,0.0,0.0,0.0,0.0,0.0,0.0,0.0,0.0,0.0,0.0,0.0,0.0,0.0,0.0,0.0,0.0,0.0,0.0,0.0,0.0,0.0,0.0,0.0,0.0,0.0,0.0,0.0,0.0,0.0,0.0,0.0,0.0,0.0,0.0,0.0,0.0,0.0,0.0,0.0,0.0,0.0,0.0,0.0,0.0,0.0,0.0,0.0,0.0,0.0,0.0,0.0,0.0,0.0,0.0,0.0,0.0,0.0,0.0,0.0,0.0,0.0,0.0,0.0,0.0,0.0,0.0,0.0,0.0,0.0,0.0,0.0,0.0,0.0,0.0,0.0,0.0,0.0,0.0,0.0,0.0,0.0,0.0,0.0,0.0,0.0,0.0,0.0,0.0,0.0,0.0,0.0,0.0,0.0,0.0,0.0,0.0,0.0,0.0,0.0,0.0,0.0,0.0,0.0,0.0,0.0,0.0,0.0,0.0,0.0,0.0,0.0,0.0,0.0,0.0,0.0,0.0,0.0,0.0,0.0,0.0,0.0,0.0,0.0,0.0,0.0,0.0,0.0,0.0,0.0,0.0,0.0,0.0,0.0,0.0,0.0,0.0,0.0,0.0,0.0,0.0,0.0,0.0,0.0,0.0,0.0,0.0,0.0,0.0,0.0,0.0,0.0,0.0,0.0,0.0,0.0,0.0,0.0,0.0,0.0,0.0,0.0,0.0,0.0,0.0,0.0,0.0,0.0,0.0,0.0,0.0,0.0,0.0,0.0,0.0,0.0,0.0,0.0,0.0,0.0,0.0,0.0,0.0,0.0,0.0,0.0,0.0,0.0,0.0,0.0,0.0,0.0,0.0,0.0,0.0,0.0,0.0,0.0,0.0,0.0,0.0,0.0,0.0,0.0,0.0,0.0,0.0,0.0,0.0,0.0,0.0,0.0,0.0,0.0,0.0,0.0,0.0,0.0,0.0,0.0,0.0,0.0,0.0,0.0,0.0,0.0,0.0,0.0,0.0,0.0,0.0,0.0,0.0,0.0,0.0,0.0,0.0,0.0,0.0,0.0,0.0,0.0,0.0,0.0,0.0,0.0,0.0,0.0,0.0,0.0,0.0,0.0,0.0,0.0,0.0,0.0,0.0,0.0,0.4833,0.0,0.0,0.0,0.0,0.0,0.0,0.0,0.0,0.0,0.0,0.0,0.0,0.0,0.0,0.0,0.0,0.0,0.0,0.0,0.0,0.0,0.0,0.0,0.0,0.0,0.0,0.0,0.0,0.0,0.0,0.0,0.0,0.0,0.0,0.0,0.0,0.0,0.0,0.0,0.0,0.0,0.0,0.0,0.0,0.0,0.0,0.0,0.0,0.0,0.0,0.0,0.0,0.0,0.0,0.0,0.0,0.0,0.0,0.0,0.0,0.0,0.0,0.0,0.0,0.0,0.0,0.0,0.0,0.0,0.0,0.0,0.0,0.0,0.0,0.0,0.0,0.0,0.0,0.0,0.0,0.0,0.0,0.0,0.0,0.0,0.0,0.0,0.0,0.0,0.0,0.0,0.0,0.0,0.0,0.0,0.0,0.0,0.0,0.0,0.0,0.0,0.0,0.0,0.0,0.0,0.0,0.0,0.0,0.0,0.0,0.0,0.0,0.0,0.0,0.0,0.0,0.4294,0.0,0.0,0.0,0.0,0.0,0.0,0.0,0.0,0.0,0.0,0.0,0.0,0.0,0.0,0.0,0.0,0.0,0.0,0.0,0.0,0.0,0.0,0.0,0.0,0.0,0.0,0.0,0.0,0.0,0.0,0.0,0.0,0.0,0.0,0.0,0.0,0.0,0.0,0.0,0.0,0.0,0.0,0.0,0.0,0.0,0.0,0.0,0.0,0.0,0.0,0.0,0.0,0.0,0.0,0.0,0.0,0.0,0.0,0.0,0.0,0.0,0.0,0.0,0.0,0.0,0.0,0.0,0.0,0.0,0.0,0.0,0.0,0.0,0.0,0.0,0.0,0.0,0.0,0.0,0.0,0.0,0.0,0.0,0.0,0.0,0.0,0.0,0.0,0.0,0.0,0.0,0.0,0.0,0.0,0.0,0.0,0.0,0.0,0.0,0.0,0.0,0.0,0.0,0.0,0.0,0.0,0.0,0.0,0.3709,0.3738,0.325,0.325,0.3066,0.2801,0.2801,0.3149,0.3772,0.4083,0.0,0.0,0.0,0.0,0.0,0.0,0.0,0.0,0.0,0.0,0.0,0.0,0.0,0.0,0.0,0.0,0.0,0.0,0.0,0.0,0.0,0.0,0.0,0.0,0.0,0.0,0.0,0.0,0.0,0.0,0.0,0.0,0.0,0.0,0.0,0.0,0.0,0.8578,0.8586,0.9267,1.0148,1.1359,1.3619,0.0,0.0,0.0,0.0,0.0,0.0,0.0,0.0,0.0,0.0,0.0,0.0,0.0,0.0,0.0,0.0,0.0,0.0,0.0,0.0,0.0,0.0,0.0,0.0,0.0,0.0,0.0,0.0,0.0,0.0,0.0,0.0,0.0,0.0,0.0,0.0,0.0,0.0,0.0,0.0,0.0,0.0,0.0,0.9064,1.1038,0.0,0.0,0.0,0.0,0.0,0.0,0.0,0.0,0.0,0.0,0.0,0.0,0.0,0.4162,0.3388,0.3326,0.3047,0.2589,0.252,0.24,0.2186,0.2186,0.2102,0.1956,0.1956,0.0,0.3144,0.3343,0.0,0.0,0.0,0.0,0.0,0.0,0.0,0.0,0.0,0.0,0.0,0.0,0.0,0.0,0.0,0.0,0.0,0.0,0.0,0.0,0.0,0.0,0.0,0.0,0.0,0.0,0.0,0.0,0.0,0.0,0.0,0.0,0.0,0.0,0.0,0.0,0.8578,0.7874,0.787,0.819,0.8911,0.9963,1.1079,1.3182,1.5981,1.7477,0.0,0.0,0.0,0.0,0.0,0.0,0.0,0.0,0.0,0.0,0.0,0.0,0.0,0.0,0.0,0.0,0.0,0.0,0.0,0.0,0.0,0.0,0.0,0.0,0.0,0.0,0.0,0.0,0.0,0.0,0.0,0.0,0.0,0.0,0.0,0.0,0.0,0.0,0.0,1.0427,0.8602,0.9786,1.0384,1.1094,0.0,0.0,0.0,0.0,0.0,0.0,0.0,0.0,0.0,0.4392,0.4058,0.3622,0.3082,0.3011,0.2816,0.2513,0.2417,0.2283,0.211,0.211,0.203,0.1909,0.1909,0.2106,0.2428,0.2358,0.2426,0.2543,0.0,0.0,0.0,0.0,0.0957,0.0897,0.0,0.0,0.0,0.0,0.0,0.0,0.0,0.0,0.0,0.0,0.0,0.0,0.0,0.0,0.0,1.1379,0.0,0.0,0.0,0.0,0.0,0.0,0.0,0.0,0.0,0.0,0.0,0.8415,0.8416,0.8343,0.8232,0.8311,0.8935,1.0012,1.0153,1.1533,1.3802,1.5362,1.7103,0.0,0.0,0.0,0.0,0.0,0.0,0.0,0.0,0.0,0.0,0.0,0.0,0.0,0.0,0.0,0.0,0.0,0.0,0.0,0.0,0.0,0.0,0.0,0.0,0.0,0.0,0.0,0.0,0.0,0.0,0.0,0.0,0.0,0.0,0.0,0.0,0.0,0.0,0.8259,0.7889,0.805,0.8863,0.9616,0.0,0.0,0.0,0.0,0.0,0.0,0.4701,0.4029,0.3672,0.3629,0.3392,0.3129,0.291,0.291,0.2774,0.2541,0.2541,0.2465,0.2264,0.2264,0.2184,0.2043,0.2043,0.1989,0.1893,0.1691,0.1632,0.1619,0.1385,0.1063,0.0691,0.0691,0.0614,0.0469,0.0,0.0,0.0,0.0,0.0,0.0,0.0,0.0,0.0,0.0,0.0,0.0,0.0,0.0,1.0488,1.0647,1.1044,1.2018,0.0,0.0,0.0,0.0,0.0,0.0,0.0,0.0,0.0,0.9231,0.9631,0.9951,1.0283,1.0524,1.0689,1.0764,1.1405,1.2541,1.3943,1.3628,1.4814,1.6998,0.0,0.0,0.0,0.0,0.0,0.0,0.0,0.0,0.0,0.0,0.0,0.0,0.0,0.0,0.0,0.0,0.0,0.0,0.0,0.0,0.0,0.0,0.0,0.0,0.0,0.0,0.0,0.0,0.0,0.0,0.0,0.0,0.0,0.0,0.0,0.0,0.0,0.0,0.0,0.5173,0.5927,0.0,0.0,0.0,0.0,0.6784,0.5689,0.4828,0.4256,0.366,0.3269,0.3124,0.3127,0.3059,0.291,0.291,0.2829,0.2702,0.2702,0.262,0.2472,0.2472,0.2364,0.2197,0.2197,0.1971,0.1607,0.1612,0.1679,0.1754,0.1438,0.1071,0.0711,0.0711,0.0431,0.0026,0.0,0.0,0.0,0.0,0.0,0.0,0.0,0.0,0.0,0.0,0.0,0.0,0.0,1.0919,1.0658,1.0712,1.1838,1.2622,1.2901,0.0,0.0,0.0,0.0,0.0,0.0,0.0,0.9819,0.929,1.0076,1.0548,1.0681,1.0755,1.1015,1.1458,1.1715,1.2374,1.3294,1.3176,1.3788,1.4991,1.5497,1.6925,0.0,0.0,0.0,0.0,0.0,0.0,0.0,0.0,0.0,0.0,0.0,0.0,0.0,0.0,0.0,0.0,0.0,0.0,0.0,0.0,0.0,0.0,0.0,0.0,0.0,0.0,0.0,0.0,0.0,0.0,0.0,0.0,0.0,0.0,0.0,0.0,0.0,0.5095,0.5541,0.0,0.555,0.5496,0.5392,0.5084,0.4342,0.3878,0.3835,0.3626,0.3514,0.3551,0.3463,0.3344,0.3155,0.3055,0.2971,0.2825,0.2727,0.2685,0.2634,0.2634,0.2548,0.2374,0.208,0.1873,0.1693,0.1068,0.0843,0.0862,0.0566,0.0376,0.0245,0.0236,0.0141,0.0,0.0,0.0,0.0,0.0,0.0,0.0,0.0,0.0,0.0,0.0,0.0,1.0591,1.0889,1.0737,1.07,1.0803,1.1524,1.2,1.198,0.0,0.0,0.0,1.246,0.0,0.0,1.0309,1.0413,1.0295,1.1094,1.1484,1.1484,1.1484,1.1733,1.2187,1.2187,1.2452,1.291,1.2973,1.3121,1.3336,1.3642,1.5043,1.6916,0.0,0.0,0.0,0.0,0.0,0.0,0.0,0.0,0.0,0.0,0.0,0.0,0.0,0.0,0.0,0.0,0.0,0.0,0.0,0.0,0.0,0.0,0.0,0.0,0.0,0.0,0.0,0.0,0.0,0.0,0.0,0.0,0.0,0.0,0.0,0.575,0.5334,0.5256,0.5067,0.4778,0.4418,0.416,0.405,0.3713,0.3565,0.3721,0.368,0.3693,0.3788,0.3653,0.3507,0.3351,0.3159,0.3049,0.2907,0.2805,0.2757,0.2757,0.2757,0.2633,0.237,0.2012,0.171,0.1395,0.0761,0.0413,0.0254,0.0063,0.0,-0.0031,-0.0177,-0.0143,0.0,0.0,0.0,0.0,0.0,0.0,0.0,0.0,0.0,0.0,0.0,0.9914,0.9516,1.0119,1.0256,1.0469,1.0879,0.9983,0.9853,1.0901,0.965,0.0,0.0,0.0,0.0,1.0342,1.1175,1.1777,1.218,1.2666,1.2881,1.2881,1.2881,1.2881,1.2881,1.2881,1.2881,1.2881,1.2881,1.2646,1.2233,1.2263,1.3402,1.5126,0.0,0.0,0.0,0.0,0.0,0.0,0.0,0.0,0.0,0.0,0.0,0.0,0.0,0.0,0.0,0.0,0.0,0.0,0.0,0.0,0.0,0.0,0.0,0.0,0.0,0.0,0.0,0.0,0.0,0.0,0.0,0.0,0.0,0.8391,0.6587,0.5438,0.5697,0.4875,0.4112,0.3681,0.3983,0.4133,0.3835,0.3802,0.387,0.4019,0.388,0.3799,0.3799,0.3656,0.355,0.3403,0.3205,0.3056,0.2917,0.2917,0.2913,0.291,0.291,0.2651,0.2208,0.2031,0.1481,0.0708,0.0674,0.0404,0.0,0.0,0.0,-0.0062,-0.0522,-0.0415,-0.0028,0.0,0.0,0.0,0.0,0.0,0.0,0.0,0.0,0.0,0.0,0.956,0.9529,1.0148,1.0515,1.0781,1.0898,0.981,0.9458,1.0204,0.0,0.0,0.0,0.0,0.0,1.0723,1.1322,1.1777,1.218,1.2666,1.2881,1.2881,1.2881,1.2881,1.2881,1.2881,1.2881,1.2881,1.2881,1.2988,1.3047,1.2148,1.2496,1.3619,0.0,0.0,0.0,0.0,0.0,0.0,0.0,0.0,0.0,0.0,0.0,0.0,0.0,0.0,0.0,0.0,0.0,0.0,0.0,0.0,0.0,0.0,0.0,0.0,0.0,0.0,0.0,0.0,0.0,0.0,0.0,0.0,0.8669,0.8018,0.7324,0.6657,0.6003,0.6151,0.5887,0.4797,0.4797,0.4578,0.4,0.406,0.409,0.413,0.4039,0.3958,0.3958,0.371,0.3602,0.3561,0.3364,0.3169,0.3063,0.3063,0.3008,0.291,0.291,0.2631,0.2175,0.1707,0.1175,0.0677,0.0321,0.0105,0.0,0.0,0.0,-0.0061,-0.0526,-0.0615,-0.0452,0.0,0.0,0.0,0.0,0.0,0.0,0.0,0.0,0.0,0.0,0.955,0.9831,0.9688,1.035,1.0746,1.0497,0.9331,0.8849,0.9371,0.0,0.0,0.0,0.0,1.0794,1.1162,1.1611,1.2061,1.25,1.2754,1.2881,1.2881,1.2881,1.2881,1.2881,1.2881,1.2881,1.2881,1.2881,1.3125,1.3437,1.2686,1.2926,1.3718,1.331,1.3809,1.4799,1.5128,1.5783,1.6604,1.7316,0.0,0.0,0.0,0.0,0.0,0.0,0.0,0.0,0.0,0.0,0.0,0.0,0.0,0.0,0.0,0.0,0.0,0.0,0.0,0.0,0.0,0.0,0.0,0.0,0.9635,0.8692,0.8117,0.7682,0.7265,0.6743,0.6829,0.6558,0.5789,0.543,0.5071,0.4662,0.4442,0.4338,0.4338,0.4138,0.4019,0.4019,0.3734,0.3581,0.3581,0.3383,0.3262,0.3175,0.3215,0.3174,0.3055,0.3093,0.2706,0.2005,0.1607,0.105,0.0376,0.0113,0.0,0.0,0.0,0.0,0.0,0.0,-0.065,-0.0893,0.0,0.0,0.0,0.0,0.0,0.0,0.0,0.0,0.0,0.0,0.0,1.0079,0.8904,0.9831,1.0342,0.9788,0.8729,0.8227,0.0,0.0,0.0,0.9209,1.0352,1.1191,1.1675,1.208,1.249,1.2881,1.2881,1.2881,1.2881,1.2881,1.2881,1.2881,1.2881,1.291,1.2949,1.2949,1.3223,1.3652,1.3652,1.4072,1.459,1.3457,1.373,1.4661,1.3979,1.408,1.4591,1.5603,0.0,0.0,0.0,0.0,0.0,0.0,0.0,0.0,0.0,0.0,0.0,0.0,0.0,0.0,0.0,0.0,0.0,0.0,0.0,0.0,0.0,0.0,0.0,0.0,0.9787,0.9098,0.8579,0.7948,0.761,0.7806,0.7235,0.6804,0.675,0.614,0.5706,0.5487,0.4948,0.457,0.4519,0.0,0.0,0.0,0.0,0.3595,0.3581,0.3442,0.3326,0.3306,0.3368,0.3368,0.3306,0.3351,0.2811,0.1806,0.165,0.0987,0.0,0.0,0.0,0.0,0.0,-0.0068,-0.0171,-0.0137,-0.0682,-0.1364,0.0,0.0,0.0,0.0,0.0,0.0,0.0,0.0,0.0,0.8696,0.918,0.9181,0.8137,0.8941,0.9382,0.8901,0.8344,0.8236,0.0,0.0,0.9534,1.0498,1.1113,1.1641,1.209,1.2529,1.2803,1.2881,1.2881,1.2881,1.2881,1.2881,1.2881,1.2881,1.2881,1.3066,1.3389,1.3389,1.3828,1.4541,1.4541,1.4424,1.4238,1.3984,1.4043,1.418,1.3738,1.4076,1.472,1.4744,1.5103,1.5539,1.5484,0.0,0.0,0.0,0.0,0.0,0.0,0.0,0.0,0.0,0.0,0.0,0.0,0.0,0.0,0.0,0.0,0.0,0.0,0.0,0.0,1.0597,1.0004,0.9457,0.9105,0.8908,0.8782,0.8612,0.848,0.8156,0.7557,0.7343,0.6794,0.5597,0.5378,0.5058,0.4515,0.4297,0.4097,0.4022,0.3843,0.3697,0.3581,0.3551,0.3473,0.3309,0.0,0.0,0.3306,0.3306,0.2771,0.1802,0.1647,0.0996,0.0,0.0,0.0,0.0,0.0,-0.0533,-0.1256,-0.0875,-0.1367,-0.2204,0.0,0.0,0.0,0.0,0.0,0.0,0.0,0.0,0.0,0.0,0.9387,0.9422,0.791,0.9156,0.9762,0.8923,0.8476,0.0,0.0,0.9277,0.9893,1.1172,1.166,1.21,1.2549,1.2773,1.2881,1.2881,1.2881,1.2881,1.2881,1.2881,1.2881,1.2881,1.2881,1.2998,1.3203,1.3418,1.3877,1.4473,1.4697,1.4775,1.4775,1.4775,1.4775,1.4717,1.4297,1.4287,1.4439,1.4302,1.4417,1.4582,1.4645,1.479,1.4959,0.0,0.0,0.0,0.0,0.0,0.0,0.0,0.0,0.0,0.0,0.0,0.0,0.0,0.0,1.3652,0.0,0.0,1.1472,1.1272,1.0743,1.0016,0.9279,0.9183,0.9077,0.8844,0.8804,0.8646,0.8262,0.7937,0.7396,0.6632,0.5923,0.5378,0.5003,0.4481,0.4127,0.4026,0.387,0.3724,0.3581,0.3581,0.3541,0.3466,0.3544,0.3541,0.3463,0.3463,0.2843,0.1784,0.1748,0.1041,0.0,0.0,0.0,0.0,0.0,-0.049,-0.1134,-0.0977,-0.1407,-0.2073,0.0,0.0,0.0,0.0,0.0,0.0,0.0,0.0,0.0,0.0,0.9758,0.9962,0.8132,0.9703,1.0479,0.0,0.0,0.0,0.0,0.9945,1.0517,1.2014,1.2246,1.2567,1.3055,1.2968,1.2881,1.2881,1.2881,1.2881,1.2881,1.2881,1.2881,1.2881,1.2881,1.2969,1.3145,1.3486,1.3916,1.4414,1.4766,1.5221,1.5575,1.5486,1.5448,1.5352,1.5101,1.4607,1.4129,1.4261,1.3955,1.355,1.4013,1.4139,1.4102,1.4105,1.4639,0.0,0.0,0.0,0.0,0.0,0.0,0.0,0.0,0.0,1.544,1.4399,1.3894,1.3497,1.3096,1.2735,1.2349,1.2072,1.1282,1.0379,0.9422,0.9223,0.9077,0.8844,0.8804,0.8804,0.8804,0.8268,0.783,0.7723,0.647,0.5651,0.5487,0.472,0.4167,0.407,0.3944,0.3812,0.3666,0.3636,0.3622,0.3622,0.3592,0.3581,0.3581,0.3581,0.2962,0.1808,0.155,0.0917,0.0,0.0,0.0,0.0,0.0,-0.0303,-0.0763,-0.1004,-0.1406,-0.1889,0.0,0.0,0.0,0.0,0.0,0.0,0.0,0.0,0.0,0.0,0.0,0.0,0.0,0.0,0.0,0.0,0.0,0.0,1.2083,1.1237,1.1594,1.3706,1.317,1.3102,1.3684,1.3152,1.2881,1.2881,1.2881,1.2881,1.2881,1.2881,1.2881,1.2881,1.2881,1.3301,1.3941,1.399,1.4531,1.5273,1.5322,1.5766,1.6327,1.5877,1.5578,1.5409,1.5528,1.4942,1.4185,1.479,1.4306,1.3488,1.3965,1.3892,1.3674,1.374,0.0,1.3766,1.552,1.6578,1.7298,1.7574,1.6924,1.6541,0.0,0.0,1.6676,1.5556,1.5583,1.5372,1.374,1.2887,1.2423,1.2348,1.1123,1.0079,0.9673,0.9406,0.9077,0.8844,0.8804,0.8804,0.8804,0.8699,0.8427,0.7723,0.6966,0.6199,0.5538,0.4824,0.4372,0.4174,0.4153,0.4073,0.3972,0.3836,0.3768,0.3768,0.3639,0.3581,0.3581,0.3581,0.2965,0.1748,0.0688,0.015,0.0,0.0,0.0,0.0,0.0,-0.0369,-0.0926,-0.1497,-0.2067,-0.2682,0.0,0.0,0.0,0.0,0.0,0.0,0.0,0.0,0.0,0.0,0.0,0.0,0.0,0.0,0.0,0.0,0.0,0.0,1.2572,1.1532,1.1927,1.4362,1.415,1.4061,1.4329,1.3732,1.342,1.342,1.3065,1.2881,1.2881,1.2881,1.2881,1.2929,1.3286,1.3767,1.442,1.5038,1.5691,1.6371,1.6581,1.6695,1.6645,1.645,1.5816,1.5012,1.4942,1.4622,0.0,0.0,1.4121,1.4121,1.4595,1.445,1.4093,1.3895,1.3933,0.0,1.6275,1.6712,1.6761,0.0,1.7037,1.6871,1.7575,1.7238,1.656,1.6007,1.595,1.5648,1.4493,1.3818,1.3322,0.0,1.1653,1.0531,0.9778,0.9426,0.9077,0.8844,0.8804,0.8804,0.8804,0.8804,0.8699,0.8374,0.7235,0.6475,0.6145,0.5117,0.4395,0.42,0.4197,0.4123,0.4022,0.3958,0.3924,0.3924,0.3866,0.3836,0.3836,0.3405,0.2514,0.1231,0.0351,0.0,0.0,0.0,0.0,0.0,0.0,-0.0147,-0.048,-0.1541,-0.2311,-0.2912,0.0,0.0,0.0,0.0,0.0,0.0,0.0,0.0,0.0,0.0,0.0,0.0,0.0,0.0,0.0,0.0,0.0,0.0,0.0,1.1765,1.2184,1.4644,1.4564,1.4609,1.4926,1.4376,1.405,1.405,1.361,1.3382,1.3382,1.3248,1.3308,1.3614,1.3882,1.4478,1.5315,1.6069,1.6721,1.7182,1.7342,1.7261,1.7047,1.6541,1.5961,1.5363,1.4643,1.4216,0.0,0.0,1.3526,1.3781,1.4558,1.4358,1.3884,1.4036,1.4552,1.5277,1.6283,1.6485,1.6512,1.7115,1.7277,1.7433,1.7756,1.7476,1.7015,1.6684,1.649,1.6037,1.5018,1.4475,1.3879,1.2997,1.1968,1.0931,0.9836,0.9595,0.9398,0.9095,0.9061,0.9061,0.9061,0.891,0.8804,0.8804,0.745,0.6588,0.6588,0.5281,0.4412,0.4311,0.4307,0.4253,0.4144,0.4104,0.4033,0.4033,0.3786,0.3717,0.3667,0.2743,0.1839,0.0871,0.0259,0.0,0.0,0.0,0.0,0.0,0.0,-0.0102,-0.0403,-0.1628,-0.2287,-0.2747,0.0,0.0,0.0,0.0,0.0,0.0,0.0,0.0,0.0,0.0,0.0,0.0,0.0,0.0,0.0,0.0,0.0,0.0,0.0,1.2135,1.2495,1.4801,1.4285,1.4425,1.5531,1.4971,1.4652,1.4652,1.4652,1.4663,1.4606,1.405,1.4344,1.5415,1.4822,1.5452,1.6924,1.6946,1.7227,1.7511,1.7053,1.7219,1.7654,1.5824,1.5948,1.6899,1.5199,0.0,0.0,1.3026,1.2422,1.1861,1.3304,1.3081,0.0,1.4113,1.5094,1.5528,1.495,1.5634,1.6612,1.7083,1.7286,1.7685,1.8731,1.8933,1.8657,1.7759,1.7544,1.6972,1.5133,1.4475,1.3791,1.2605,1.176,1.0931,0.9836,1.003,1.0134,0.9799,0.9762,0.9762,0.0,0.9159,0.8804,0.8804,0.745,0.6588,0.6588,0.5281,0.4515,0.4512,0.4512,0.4508,0.4505,0.4311,0.4187,0.4187,0.3324,0.2913,0.2866,0.1567,0.0957,0.0853,0.0275,0.0,0.0,0.0,0.0,0.0,0.0,-0.0364,-0.0962,-0.1879,-0.212,-0.2209,0.0,0.0,0.0,0.0,0.0,0.0,0.0,0.0,0.0,0.0,0.0,0.0,0.0,0.0,0.0,0.0,1.2764,0.0,0.0,1.2512,1.2562,1.4037,1.4225,1.4543,1.511,1.4879,1.4949,1.5276,1.488,1.4698,1.4698,1.4468,1.478,1.5533,1.5713,1.6518,1.7725,1.7759,1.8065,1.8464,1.7847,1.7806,1.7925,1.6308,1.6145,1.6499,0.0,0.0,1.4303,1.369,1.3723,1.4101,1.4593,1.4531,1.439,1.5018,1.5438,1.5811,1.6344,1.6778,1.7332,1.8185,1.8425,1.8656,1.9371,1.9547,1.9218,1.8031,1.747,1.664,1.4852,1.386,1.3046,1.2117,1.1352,1.0639,0.9809,0.9822,0.9736,0.9221,0.9286,0.0,0.0,0.0,0.0,0.8804,0.745,0.6588,0.6588,0.5281,0.4519,0.4519,0.4519,0.4519,0.4519,0.4412,0.4392,0.4389,0.3633,0.2696,0.1674,0.1258,0.0771,0.0276,0.0112,0.0,0.0,0.0,0.0,0.0,0.0,-0.0437,-0.1136,-0.1912,-0.2503,-0.3062,0.0,0.0,0.0,0.0,0.0,0.0,0.0,0.0,0.0,0.0,0.0,0.0,0.0,0.0,0.0,0.0,0.0,1.2838,0.0,0.0,1.2673,1.3391,1.3925,1.4356,1.4653,1.4588,1.4705,1.4918,1.4663,1.4388,1.4173,1.424,1.4641,1.5297,1.5887,1.6774,1.7849,1.8041,1.805,1.7903,1.7735,1.7489,1.7114,1.5875,1.5955,0.0,0.0,0.0,1.5267,1.424,1.4254,1.4759,1.4947,1.5169,1.5305,1.5058,1.5618,1.6459,1.7187,1.7664,1.8179,1.9083,1.9309,1.9397,1.9723,1.966,1.9207,1.8103,1.7431,1.6542,1.5034,1.4022,1.3109,1.2061,1.132,1.0602,0.984,0.9904,0.9931,0.9535,0.9605,0.9646,0.0,0.0,0.0,0.8447,0.7372,0.6614,0.6204,0.5117,0.4519,0.4519,0.4519,0.4519,0.4519,0.4519,0.4236,0.3677,0.3178,0.2189,0.0683,0.0731,0.0454,0.0,0.0,0.0,0.0,0.0,0.0,0.0,0.0,-0.0464,-0.1273,-0.2023,-0.2832,-0.3618,0.0,0.0,0.0,0.0,0.0,0.0,0.0,0.0,0.0,0.0,0.0,0.0,0.0,0.0,0.0,0.0,0.0,0.0,0.0,0.0,0.0,1.2884,1.3389,1.3819,1.4156,1.421,1.4044,1.3769,1.4084,1.3888,1.3267,1.3518,1.4088,1.4916,1.5405,1.6259,1.7339,1.7756,1.7167,1.6021,1.6696,1.6379,1.5491,1.4746,0.0,0.0,0.0,0.0,1.562,1.4639,1.4113,1.3947,1.4426,1.5059,1.5472,1.4572,1.5822,1.7513,1.7539,1.8329,1.9271,1.9736,1.9849,1.9823,1.9773,1.9384,1.8797,1.8034,1.7454,1.6701,0.0,0.0,1.3891,1.2501,1.1737,1.095,0.9969,1.0314,1.071,0.0,0.0,0.0,0.0,0.0,0.0,0.7877,0.0,0.6665,0.5635,0.4923,0.4536,0.4529,0.4529,0.4525,0.4519,0.4525,0.3749,0.2242,0.2242,0.1427,0.0,0.0,0.0,0.0,0.0,0.0,0.0,0.0,0.0,0.0,0.0,-0.0555,-0.1477,-0.2213,-0.3073,-0.3901,0.0,0.0,0.0,0.0,0.0,0.0,0.0,0.0,0.0,0.0,0.0,0.0,0.0,0.0,0.0,0.0,0.0,0.0,0.0,0.0,0.0,0.0,0.0,0.0,0.0,0.0,0.0,1.4598,1.4526,1.4397,1.4251,1.4106,1.4369,1.5012,1.5601,1.6021,1.6218,1.6637,1.6323,1.5606,0.0,1.6337,1.6443,0.0,0.0,0.0,0.0,0.0,0.0,0.0,0.0,0.0,1.5687,1.6431,1.7316,1.7094,1.8053,1.9284,1.9762,2.0338,2.079,2.0514,2.0451,2.0238,1.9409,1.912,1.8745,1.7718,1.7024,1.6289,0.0,0.0,0.0,1.3036,1.2327,0.0,1.1299,1.1263,0.0,1.0684,0.0,1.0877,1.0657,1.0458,0.0,0.0,0.7806,0.7125,0.6832,0.5557,0.4752,0.4636,0.4633,0.4579,0.4519,0.4575,0.3926,0.24,0.24,0.1568,0.0,0.0,0.0,0.0,0.0,0.0,0.0,0.0,0.0,0.0,0.0,-0.0924,-0.2213,-0.2398,-0.3381,-0.4661,0.0,0.0,0.0,0.0,0.0,0.0,0.0,0.0,0.0,0.0,0.0,0.0,0.0,0.0,0.0,0.0,0.0,0.0,0.0,0.0,0.0,0.0,0.0,0.0,0.0,0.0,0.0,0.0,0.0,0.0,1.3411,1.3648,1.3896,1.4156,1.4963,1.5262,1.5244,1.6041,0.0,0.0,0.0,0.0,0.0,0.0,0.0,0.0,0.0,0.0,0.0,0.0,0.0,1.7048,1.6636,1.7533,1.8725,1.8202,0.0,2.0614,2.0941,2.143,2.1882,2.1886,2.1085,2.0229,1.9949,1.905,1.8129,1.7513,1.688,0.0,1.5764,1.4695,0.0,0.0,0.0,0.0,1.1466,1.1255,1.1015,0.0,1.1082,0.0,1.0955,1.0942,1.0666,0.0,0.8421,0.727,0.6818,0.557,0.488,0.4796,0.4792,0.4752,0.4663,0.4748,0.4228,0.3073,0.2705,0.1797,0.0566,0.0186,0.0,0.0,0.0,0.0,0.0,0.0,0.0,0.0,0.0,-0.1088,-0.2622,-0.2657,-0.3744,-0.5114,0.0,0.0,0.0,0.0,0.0,0.0,0.0,0.0,0.0,0.0,0.0,0.0,0.0,0.0,0.0,0.0,0.0,0.0,0.0,0.0,0.0,0.0,0.0,0.0,0.0,0.0,0.0,0.0,0.0,0.0,0.0,0.0,0.0,0.0,0.0,0.0,0.0,0.0,0.0,0.0,0.0,0.0,0.0,0.0,0.0,0.0,0.0,0.0,0.0,0.0,1.7061,1.7874,1.739,1.8522,1.9863,1.8917,2.01,2.1744,2.1895,2.2279,2.2776,2.3267,2.177,2.0296,2.0758,1.9126,1.7485,1.7409,0.0,1.6522,1.6522,1.5255,1.415,1.3999,0.0,1.1094,1.1391,1.1156,1.1066,1.1476,1.1577,1.159,1.1543,1.1543,1.1523,1.149,0.9349,0.7606,0.6564,0.5705,0.5151,0.5009,0.4969,0.4955,0.4979,0.4958,0.4584,0.3794,0.2935,0.2095,0.1302,0.0383,0.0,0.0,0.0,0.0,0.0,0.0,0.0,0.0,0.0,-0.1083,-0.2715,-0.2851,-0.4008,-0.542,0.0,0.0,0.0,0.0,0.0,0.0,0.0,0.0,0.0,0.0,1.1817,0.0,0.0,0.0,0.0,0.0,0.0,0.0,0.0,0.0,0.0,0.0,0.0,0.0,0.0,1.3849,1.3716,1.3639,1.3482,0.0,0.0,0.0,0.0,0.0,0.0,0.0,0.0,0.0,0.0,0.0,0.0,0.0,0.0,0.0,0.0,0.0,0.0,0.0,0.0,0.0,1.8287,1.9182,1.8173,1.9441,2.126,2.1,2.1832,2.3062,2.3991,2.4448,2.4387,2.3559,2.2711,2.1757,2.0384,1.9061,0.0,0.0,1.6859,1.6522,1.6522,1.5452,1.482,1.5505,1.4087,1.3031,1.3397,1.2998,1.2536,0.0,1.2365,1.2418,1.2171,1.2151,0.0,0.0,0.0,0.9258,0.826,0.7367,0.6478,0.5477,0.5226,0.5155,0.5284,0.5159,0.4705,0.3959,0.3107,0.2194,0.1241,0.0422,0.0,0.0,0.0,0.0,0.0,0.0,0.0,0.0,0.0,-0.1198,-0.2867,-0.288,-0.4094,-0.5725,0.0,0.0,0.0,0.0,0.0,0.0,0.0,0.0,0.0,0.0,1.2302,1.2934,0.0,0.0,0.0,0.0,0.0,0.0,0.0,0.0,0.0,0.0,0.0,0.0,0.0,1.427,1.4162,1.4069,0.0,1.3856,1.3856,1.3757,1.3771,1.3874,1.4064,1.3998,1.378,0.0,0.0,0.0,0.0,0.0,0.0,0.0,0.0,0.0,0.0,0.0,0.0,0.0,1.8113,1.9589,1.9049,2.0357,2.1979,2.1629,2.2313,2.3443,2.4709,2.4849,2.4744,2.4901,2.3547,2.1944,2.1107,0.0,0.0,0.0,1.6879,1.6522,1.6522,1.5511,0.0,1.5277,1.3925,1.2841,1.2977,1.2741,0.0,1.2298,1.2565,1.2768,0.0,0.0,0.0,0.0,0.0,1.0456,0.8709,0.7283,0.6261,0.5701,0.5555,0.5515,0.5589,0.5443,0.5238,0.4888,0.3418,0.253,0.2068,0.0651,0.0,0.0,0.0,0.0,0.0,0.0,0.0,0.0,0.0,-0.1224,-0.2909,-0.295,-0.4184,-0.5813,0.0,0.0,0.0,0.0,0.0,0.0,0.0,1.1627,1.1574,1.2052,1.2732,1.3348,1.3876,1.4437,0.0,0.0,0.0,0.0,0.0,0.0,0.0,0.0,0.0,0.0,0.0,0.0,0.0,1.427,1.427,0.0,0.0,0.0,0.0,0.0,1.432,1.427,1.4306,1.4935,0.0,0.0,0.0,1.5435,0.0,0.0,0.0,0.0,0.0,0.0,0.0,0.0,1.738,1.9006,1.922,2.0694,2.2151,2.1499,2.2326,2.3689,2.4688,2.497,2.5129,2.5805,2.4042,2.2073,2.1917,1.9586,0.0,1.7463,1.6951,1.6522,1.6522,1.5511,1.4731,0.0,1.3521,1.2475,1.2264,1.2437,1.2491,0.0,1.2845,0.0,1.2923,0.0,0.0,0.0,0.0,0.0,0.8862,0.7122,0.6117,0.5901,0.5867,0.585,0.585,0.5708,0.5691,0.58,0.3928,0.3013,0.2857,0.1107,0.0222,0.0,0.0,0.0,0.0,0.0,0.0,0.0,0.0,-0.1177,-0.2959,-0.3093,-0.4276,-0.5915,0.0,0.0,0.0,0.0,0.0,0.0,0.0,1.1414,1.2159,1.1877,1.3092,1.3988,1.3992,1.3838,0.0,0.0,0.0,0.0,0.0,0.0,0.0,0.0,0.0,0.0,0.0,0.0,0.0,1.4476,1.4476,0.0,0.0,0.0,0.0,0.0,0.0,1.4476,1.4476,1.4549,0.0,0.0,0.0,0.0,0.0,0.0,0.0,0.0,0.0,0.0,0.0,0.0,0.0,1.6747,1.7627,1.9613,2.1561,2.0801,0.0,0.0,2.408,2.5544,2.6578,2.4858,2.3912,2.3137,2.1973,0.0,1.8027,1.8027,1.7188,1.6522,1.6522,1.5511,1.4797,1.5185,0.0,1.3227,0.0,1.3732,1.3941,1.2483,0.0,0.0,0.0,0.0,0.0,0.0,0.0,0.0,0.9326,0.8183,0.7202,0.6294,0.6081,0.601,0.601,0.5857,0.5789,0.5803,0.4811,0.3819,0.2859,0.1926,0.0923,0.0,0.0,0.0,0.0,0.0,0.0,0.0,0.0,-0.1297,-0.3103,-0.3112,-0.4431,-0.622,0.0,0.0,0.0,0.0,0.0,0.0,0.0,1.2498,1.2594,1.2848,1.3271,1.3661,1.3898,1.4066,1.4139,0.0,0.0,0.0,0.0,0.0,0.0,0.0,0.0,0.0,0.0,0.0,1.4488,1.4488,1.4488,0.0,0.0,0.0,0.0,0.0,0.0,1.4697,1.4614,1.4614,0.0,0.0,0.0,0.0,0.0,0.0,0.0,0.0,0.0,0.0,1.4185,0.0,0.0,0.0,1.6707,1.7954,0.0,0.0,2.181,2.3431,2.4563,2.5813,2.6533,2.5317,2.4007,2.2802,2.1904,0.0,1.8007,1.8062,1.7504,1.6879,1.6552,1.5832,1.5165,0.0,0.0,0.0,1.2602,0.0,1.3317,1.2734,0.0,0.0,0.0,0.0,0.0,0.0,0.0,0.0,0.9576,0.8453,0.7326,0.6338,0.62,0.6169,0.6169,0.6017,0.5986,0.6078,0.438,0.3341,0.2929,0.1404,0.0391,0.0,0.0,0.0,0.0,0.0,0.0,0.0,0.0,-0.1258,-0.3134,-0.3226,-0.4603,-0.6403,0.0,0.0,0.0,0.0,0.0,0.0,1.348,1.3193,1.2983,1.3259,1.3361,1.3496,1.3748,1.4214,1.4313,1.3837,0.0,0.0,0.0,0.0,0.0,0.0,0.0,0.0,0.0,0.0,1.4277,1.4005,1.404,1.3936,0.0,0.0,1.4101,1.4344,0.0,0.0,0.0,0.0,0.0,0.0,0.0,0.0,0.0,0.0,0.0,0.0,0.0,0.0,0.0,0.0,0.0,0.0,0.0,0.0,0.0,0.0,2.0666,2.2216,2.3362,2.4675,2.5451,2.459,2.3207,2.1969,0.0,0.0,1.7933,1.806,1.7666,1.7146,1.6595,1.6008,1.541,0.0,0.0,1.3446,1.2443,1.2671,1.2991,0.0,0.0,0.0,0.0,0.0,0.0,0.0,0.0,0.0,0.98,0.8581,0.7378,0.6338,0.6338,0.6338,0.6338,0.6152,0.6152,0.6257,0.4688,0.3613,0.3044,0.1565,0.0549,0.0,0.0,0.0,0.0,0.0,0.0,0.0,0.0,-0.1049,-0.2643,-0.2733,-0.3977,-0.5569,0.0,0.0,0.0,0.0,0.0,0.0,0.0,1.3039,1.3339,1.2691,1.3352,1.3783,1.3517,1.4095,1.4488,1.4499,0.0,0.0,0.0,0.0,0.0,0.0,0.0,0.0,0.0,0.0,1.3746,1.2806,1.2956,1.2643,1.1926,1.2124,1.2686,1.3523,0.0,0.0,0.0,0.0,0.0,0.0,0.0,0.0,0.0,0.0,0.0,0.0,0.0,0.0,0.0,0.0,0.0,0.0,0.0,1.6355,1.5951,0.0,1.8673,2.0563,1.9854,2.1657,2.3374,2.1979,2.1156,2.0703,0.0,1.9244,1.7933,1.806,1.7666,1.7146,1.6595,1.6008,1.541,1.4789,0.0,0.0,1.2443,1.3012,0.0,0.0,0.0,0.0,0.0,0.0,0.0,0.0,0.0,0.0,0.9948,0.8697,0.7497,0.6342,0.6338,0.6338,0.6338,0.6335,0.6335,0.6338,0.6257,0.5157,0.3124,0.3046,0.1955,0.0,0.0,0.0,0.0,0.0,0.0,0.0,0.0,-0.0659,-0.1591,-0.1592,-0.2262,-0.3265,0.0,0.0,0.0,0.0,0.0,0.0,0.0,1.2545,1.2523,1.2404,1.3106,1.3515,1.3187,1.3962,1.4488,1.4488,0.0,0.0,0.0,0.0,0.0,0.0,0.0,0.0,0.0,0.0,1.3343,1.3541,1.3596,1.3283,1.2661,1.2869,1.3169,1.3586,1.3728,1.4194,0.0,0.0,0.0,0.0,0.0,0.0,0.0,0.0,0.0,0.0,0.0,0.0,0.0,0.0,0.0,0.0,0.0,0.0,0.0,1.6395,1.7824,1.9294,1.8985,2.0597,2.1909,2.0033,1.943,1.9457,1.9907,1.8832,1.7835,1.804,1.7947,1.7585,1.668,1.6324,1.6008,1.541,1.4835,0.0,0.0,0.0,0.0,0.0,0.0,0.0,0.0,0.0,0.0,0.0,0.0,0.0,1.0254,0.8254,0.688,0.6489,0.6312,0.6338,0.6338,0.6338,0.6338,0.6261,0.555,0.4453,0.3046,0.2425,0.1332,0.0,0.0,0.0,0.0,0.0,0.0,0.0,0.0,-0.0677,-0.1599,-0.1735,-0.2344,-0.3348,0.0,0.0,0.0,0.0,0.0,0.0,0.0,1.2371,1.2321,1.2054,1.3033,1.3449,1.2651,1.373,1.4389,1.4077,0.0,0.0,0.0,0.0,0.0,0.0,0.0,0.0,0.0,1.2269,1.2406,1.2837,1.2554,1.2287,1.2018,1.1976,1.2362,1.3157,1.331,1.3944,0.0,0.0,0.0,0.0,0.0,0.0,1.4362,0.0,0.0,0.0,0.0,0.0,0.0,0.0,0.0,0.0,0.0,0.0,0.0,0.0,1.7025,1.7644,1.787,1.904,1.9932,1.8636,1.8144,0.0,1.8817,1.8313,1.7699,1.772,1.7901,1.7787,1.671,1.6324,1.6051,1.5676,1.4915,0.0,0.0,0.0,0.0,0.0,0.0,0.0,0.0,0.0,0.0,0.0,0.0,0.0,1.0444,0.8425,0.7111,0.6555,0.6386,0.6315,0.6338,0.6338,0.6338,0.6261,0.5628,0.4766,0.3671,0.2657,0.1574,0.0,0.0,0.0,0.0,0.0,0.0,0.0,0.0,-0.0433,-0.1037,-0.1065,-0.1511,-0.2111,0.0,0.0,0.0,0.0,0.0,0.0,0.0,0.0,0.0,0.0,1.307,1.3546,1.2,1.334,1.407,0.0,0.0,0.0,0.0,0.0,0.0,0.0,0.0,0.0,0.0,1.1174,1.1104,1.1138,1.047,1.0235,1.0427,1.0092,1.0798,1.2387,1.2515,1.3436,1.4877,1.4611,1.4488,1.4488,1.4488,1.4375,0.0,0.0,0.0,0.0,0.0,0.0,0.0,0.0,0.0,0.0,0.0,0.0,0.0,0.0,0.0,0.0,0.0,1.7184,1.7641,1.7598,1.7155,1.6891,1.7495,1.7623,0.0,1.7181,1.7611,1.7733,1.6667,1.6008,1.5588,1.5588,1.4617,0.0,0.0,0.0,0.0,0.0,0.0,0.0,0.0,0.0,0.0,0.0,0.0,0.0,1.0533,0.916,0.7833,0.6635,0.6551,0.6403,0.6264,0.6338,0.6345,0.6278,0.6278,0.5727,0.4711,0.361,0.2545,0.0,0.0,0.0,0.0,0.0,0.0,0.0,0.0,0.0,0.0,0.0,0.0,-0.018,0.0,0.0,0.0,0.0,0.0,0.0,0.0,0.0,0.0,0.0,0.0,1.3176,1.2279,1.2521,0.0,0.0,0.0,0.0,0.0,0.0,0.0,0.0,0.0,0.0,0.0,1.0202,1.0572,1.1482,1.1512,1.1265,1.0805,1.1671,1.2122,1.229,1.3002,1.3854,1.4737,1.4578,1.4488,1.4488,1.4488,1.4375,0.0,0.0,0.0,0.0,1.2911,1.2799,0.0,0.0,0.0,0.0,0.0,0.0,0.0,0.0,1.5883,1.583,1.598,0.0,1.6157,1.5625,1.5788,1.6188,0.0,1.695,1.696,1.7098,1.7243,1.7166,1.6591,1.6008,1.5588,1.5588,1.4849,1.3909,1.2861,0.0,0.0,0.0,0.0,0.0,0.0,0.0,0.0,0.0,0.0,1.1844,1.1532,0.9408,0.8077,0.766,0.6864,0.6403,0.6264,0.6338,0.6315,0.6424,0.6424,0.5913,0.4941,0.3872,0.273,0.0,0.0,0.0,0.0,0.0,0.0,0.0,0.0,0.0,0.0,0.0,0.0,0.0,0.0,0.0,0.0,0.0,0.0,0.0,0.0,0.0,0.0,0.0,0.0,0.0,0.0,0.0,0.0,0.0,0.0,0.0,0.0,0.0,0.0,0.0,0.0,0.0,0.9801,0.9595,1.0159,1.1551,1.1266,1.1042,1.0901,1.1359,1.1791,1.226,1.3607,1.4372,1.4697,1.4567,1.4488,1.4488,1.4488,0.0,0.0,0.0,0.0,0.0,1.282,1.261,0.0,1.2392,1.2948,1.3769,0.0,0.0,0.0,0.0,1.5526,1.5424,1.5724,1.5994,1.607,1.5492,1.5639,1.5946,1.603,1.6301,1.6488,1.6399,0.0,0.0,1.6574,1.5776,0.0,0.0,1.4505,0.0,0.0,0.0,0.0,0.0,0.0,0.0,0.0,0.0,0.0,0.0,0.0,1.2349,1.1611,0.9862,0.8591,0.793,0.692,0.6369,0.6359,0.6359,0.643,0.6576,0.6576,0.6286,0.5773,0.4101,0.3033,0.0,0.0,0.0,0.0,0.0,0.0,0.0,0.0,0.0,0.0,0.0,0.0,0.0,0.0,0.0,0.0,0.0,0.0,0.0,0.0,0.0,0.0,0.0,0.0,0.0,0.0,0.0,0.0,0.0,0.0,0.0,0.0,0.0,0.0,0.0,0.0,0.9254,0.9725,0.9328,0.9862,1.1384,1.0573,1.0362,1.0709,1.051,1.1126,1.2435,1.4141,1.4841,1.4697,1.4589,1.4511,1.4488,1.4488,0.0,0.0,0.0,0.0,0.0,0.0,0.0,0.0,1.2092,1.2645,1.3528,1.3528,0.0,0.0,0.0,0.0,0.0,1.5533,1.6263,1.6701,1.603,1.5974,1.5957,1.5426,0.0,0.0,0.0,0.0,0.0,0.0,1.5492,0.0,0.0,0.0,0.0,0.0,0.0,0.0,0.0,0.0,0.0,0.0,0.0,0.0,0.0,0.0,1.2991,1.1594,1.035,0.9213,0.8093,0.6872,0.6329,0.6471,0.6471,0.6559,0.6736,0.6736,0.6746,0.6682,0.4398,0.3333,0.3219,0.0,0.0,0.0,0.0,0.0,0.0,0.0,0.0,0.0,0.0,0.0,0.0,0.0,0.0,0.0,0.0,0.0,0.0,0.0,0.0,0.0,0.0,0.0,0.0,0.0,0.0,0.0,0.0,0.0,0.0,0.0,0.0,0.0,0.0,1.0638,1.0169,1.0362,0.96,0.9727,1.0805,1.0684,1.0331,0.9826,1.1234,1.234,1.3188,1.4436,1.4881,1.4707,1.4687,1.4603,1.4488,1.4488,0.0,0.0,0.0,0.0,0.0,0.0,0.0,0.0,1.2572,1.2597,1.2771,1.2771,0.0,0.0,0.0,0.0,0.0,1.5125,1.6387,1.7254,1.565,1.5679,1.5964,1.5408,0.0,0.0,0.0,0.0,0.0,0.0,1.5441,1.5086,0.0,0.0,0.0,0.0,0.0,0.0,0.0,0.0,0.0,0.0,0.0,0.0,0.0,0.0,1.3413,1.2916,1.0835,0.9524,0.9079,0.7249,0.6329,0.6471,0.6471,0.6614,0.6895,0.6895,0.6956,0.6984,0.4594,0.3542,0.3466,0.0,0.0,0.0,0.0,0.0,0.0,0.0,0.0,0.0,0.0,0.0,0.0,0.0,0.0,0.0,0.0,0.0,0.0,0.0,0.0,0.0,0.0,0.0,0.0,0.0,0.0,0.0,0.0,0.0,0.0,0.0,0.0,0.0,1.2026,1.1262,1.0748,1.0552,0.9917,0.9971,1.0811,1.0807,1.0389,0.9625,1.072,1.1772,1.275,1.375,1.4425,1.4794,1.4645,1.4556,1.4488,0.0,0.0,0.0,0.0,0.0,0.0,0.0,0.0,0.0,0.0,1.2475,1.2572,1.2416,0.0,0.0,0.0,0.0,0.0,1.5065,1.5976,1.6556,1.5208,1.5581,1.6061,1.5235,0.0,0.0,0.0,0.0,0.0,0.0,0.0,1.5153,1.5019,0.0,0.0,0.0,0.0,0.0,0.0,0.0,0.0,0.0,0.0,0.0,0.0,0.0,0.0,1.196,1.0352,0.9173,0.8542,0.7099,0.6329,0.6471,0.6471,0.6624,0.6929,0.7007,0.6724,0.616,0.4372,0.3215,0.2503,0.0,0.0,0.0,0.0,0.0,0.0,0.0,0.0,0.0,0.0,0.0,0.0,0.0,0.0,0.0,0.0,0.0,0.0,0.0,0.0,0.0,0.0,0.0,0.0,0.0,0.0,0.0,0.0,0.0,0.0,0.0,0.0,1.2902,1.1999,1.154,1.1189,1.0935,1.0244,1.0282,1.105,1.0889,1.0495,0.9943,1.0183,1.1048,1.2424,1.3178,1.3989,1.4832,1.4624,1.4522,1.4488,0.0,0.0,0.0,0.0,0.0,0.0,0.0,0.0,0.0,0.0,0.0,0.0,0.0,0.0,0.0,1.3912,1.444,1.4807,1.4932,1.5519,1.5865,1.4971,0.0,0.0,0.0,0.0,0.0,0.0,0.0,0.0,0.0,1.512,0.0,0.0,0.0,0.0,0.0,0.0,0.0,0.0,0.0,0.0,0.0,0.0,0.0,0.0,0.0,0.0,1.0982,0.9905,0.8894,0.7859,0.6795,0.6315,0.642,0.6458,0.6624,0.6929,0.7037,0.6574,0.5716,0.4552,0.3393,0.2147,0.0986,0.0269,0.0,0.0,0.0,0.0,0.0,0.0,0.0,0.0,0.0,0.0,0.0,0.0,0.0,0.0,0.0,0.0,0.0,0.0,0.0,0.0,0.0,0.0,0.0,0.0,0.0,0.0,0.0,0.0,0.0,0.0,1.2772,1.1592,1.1401,1.1496,1.1889,1.0585,1.0451,1.1551,1.0795,1.0596,1.0887,1.0308,1.107,1.2961,1.3337,1.3942,1.4717,1.4697,1.4614,1.4488,1.4476,0.0,0.0,0.0,0.0,0.0,0.0,0.0,0.0,0.0,0.0,0.0,0.0,0.0,1.2959,1.3625,1.43,1.4752,1.4583,1.5318,1.5887,1.5069,1.5709,0.0,1.7743,1.7592,0.0,1.8748,0.0,0.0,0.0,1.4932,0.0,0.0,0.0,0.0,0.0,0.0,0.0,0.0,0.0,0.0,0.0,0.0,0.0,0.0,0.0,0.0,1.126,1.0229,0.9121,0.7863,0.6795,0.6345,0.6278,0.6407,0.6624,0.6929,0.6939,0.6924,0.6962,0.5802,0.4643,0.3392,0.2236,0.1076,0.0,0.0,0.0,0.0,0.0,0.0,0.0,0.0,0.0,0.0,0.0,0.0,0.0,0.0,0.0,0.0,0.0,0.0,0.0,0.0,0.0,0.0,0.0,0.0,0.0,0.0,0.0,0.0,0.0,0.0,1.3025,1.2095,1.1572,1.1346,1.1491,1.0468,1.0106,1.0546,1.0239,1.0044,0.9946,1.0113,1.0961,1.2317,1.2477,1.3119,1.4076,1.3992,1.402,1.4136,1.4136,1.3969,0.0,0.0,0.0,0.0,0.0,0.0,0.0,0.0,1.251,1.2169,0.0,1.2343,1.2936,1.36,1.4059,1.4399,1.4491,1.5351,1.6007,1.5107,1.5694,0.0,0.0,1.7438,1.7038,1.7723,1.7959,0.0,0.0,0.0,0.0,0.0,0.0,0.0,0.0,0.0,0.0,0.0,0.0,0.0,0.0,0.0,0.0,0.0,0.0,0.0,1.0122,0.9653,0.8693,0.6949,0.649,0.6338,0.6338,0.6315,0.6444,0.6647,0.6837,0.6519,0.5866,0.5502,0.4376,0.2413,0.1969,0.1076,0.0,0.0,0.0,0.0,0.0,0.0,0.0,0.0,0.0,0.0,0.0,0.0,0.0,0.0,0.0,0.0,0.0,0.0,0.0,0.0,0.0,0.0,0.0,0.0,0.0,0.0,0.0,0.0,0.0,1.3718,1.3204,1.2256,1.178,1.1416,1.1121,1.052,1.0187,1.0157,0.9883,0.9755,0.9763,0.9898,1.0646,1.1909,1.1827,1.2416,1.3497,1.3507,1.3651,1.3913,1.3913,1.3766,0.0,0.0,0.0,0.0,0.0,0.0,0.0,0.0,1.2356,0.0,0.0,0.0,0.0,1.345,1.3843,1.4141,1.4259,1.5034,1.5594,1.4798,0.0,0.0,1.8199,1.7645,1.703,1.7956,1.7602,1.7184,1.7262,0.0,0.0,0.0,0.0,0.0,0.0,0.0,0.0,0.0,0.0,0.0,0.0,0.0,0.0,0.0,0.0,0.0,0.0,0.9155,0.8294,0.6263,0.6186,0.621,0.6261,0.6338,0.6312,0.641,0.6664,0.6404,0.5712,0.5835,0.4643,0.2325,0.2325,0.1433,0.0,0.0,0.0,0.0,0.0,0.0,0.0,0.0,0.0,0.0,0.0,0.0,0.0,0.0,0.0,0.0,0.0,0.0,0.0,0.0,0.0,0.0,0.0,0.0,0.0,0.0,0.0,0.0,1.3163,1.3591,1.3266,1.1877,1.1996,1.1721,1.0907,1.0897,1.0826,1.0681,0.9814,0.9884,1.0758,0.9716,1.0161,1.186,1.1469,1.1956,1.3108,1.3368,1.3636,1.3899,1.3881,1.3766,1.3584,0.0,0.0,0.0,0.0,0.0,0.0,0.0,1.2251,1.1805,0.0,0.0,0.0,1.3127,1.3625,1.4054,1.3923,1.4303,1.4598,1.4105,0.0,0.0,1.9036,1.8625,1.8175,2.0365,1.8583,1.7119,1.8352,0.0,0.0,0.0,0.0,0.0,0.0,0.0,0.0,0.0,0.0,0.0,0.0,0.0,0.0,0.0,0.0,0.0,0.0,0.8908,0.8153,0.6101,0.6027,0.6101,0.6257,0.6257,0.6335,0.6342,0.6407,0.663,0.6929,0.7071,0.5797,0.3659,0.357,0.2236,0.0,0.0,0.0,0.0,0.0,0.0,0.0,0.0,0.0,0.0,0.0,0.0,0.0,0.0,0.0,0.0,0.0,0.0,0.0,0.0,0.0,0.0,0.0,0.0,0.0,0.0,0.0,0.0,1.3292,1.3661,1.3354,1.2129,1.2077,1.161,1.0562,1.0782,1.0664,1.0204,0.99,0.993,1.0251,1.0348,1.0669,1.1193,1.1074,1.1434,1.2124,1.2199,1.252,1.3003,1.3344,1.3362,1.321,0.0,0.0,0.0,0.0,0.0,0.0,0.0,0.0,0.0,0.0,0.0,0.0,1.3694,1.3555,1.3351,1.3727,1.4287,0.0,1.4444,0.0,0.0,0.0,1.8202,0.0,0.0,1.8844,1.8174,1.8556,0.0,0.0,0.0,0.0,0.0,0.0,0.0,0.0,0.0,0.0,0.0,0.0,0.0,0.0,0.0,0.0,0.0,0.0,0.9038,0.8155,0.6801,0.6158,0.5942,0.6098,0.6098,0.6152,0.6342,0.6407,0.6519,0.6617,0.6875,0.6112,0.4628,0.3901,0.2681,0.1166,0.0365,0.0,0.0,0.0,0.0,0.0,0.0,0.0,0.0,0.0,0.0,0.0,0.0,0.0,0.0,0.0,0.0,0.0,0.0,1.161,0.0,0.0,0.0,0.0,0.0,0.0,0.0,0.0,0.0,1.3479,1.252,1.2106,1.1374,1.022,1.052,1.0581,1.032,1.017,1.0135,1.0158,1.0395,1.0496,1.0496,1.0777,1.1136,1.1549,1.1642,1.2085,1.2727,1.2792,1.2932,1.3138,0.0,0.0,0.0,0.0,0.0,0.0,0.0,0.0,0.0,0.0,0.0,0.0,1.404,1.3857,1.3526,1.3803,1.4517,0.0,1.4665,1.5796,1.7111,1.7761,0.0,0.0,0.0,0.0,1.8896,1.8896,1.8623,0.0,0.0,0.0,0.0,0.0,0.0,0.0,0.0,0.0,0.0,0.0,0.0,0.0,0.0,0.0,0.0,0.0,0.9325,0.8463,0.7216,0.6585,0.6169,0.6027,0.603,0.6108,0.6264,0.6346,0.6386,0.6396,0.6702,0.615,0.4959,0.3408,0.2395,0.1703,0.0455,0.0,0.0,0.0,0.0,0.0,0.0,0.0,0.0,0.0,0.0,0.0,0.0,0.0,0.0,0.0,0.0,0.0,0.0,1.0985,1.1278,0.0,0.0,0.0,0.0,0.0,0.0,0.0,0.0,1.3509,1.2852,1.1981,1.1084,1.0103,1.038,1.0658,1.0887,1.0524,1.0394,1.05,1.0085,0.9931,0.9994,1.0597,1.101,1.1275,1.1564,1.2111,1.2727,1.2363,1.2609,1.3157,1.3173,0.0,0.0,0.0,0.0,0.0,0.0,0.0,0.0,1.3765,1.3964,1.3962,1.4245,1.4278,1.4226,1.4041,1.4744,0.0,1.488,1.5808,0.0,1.6627,1.9101,2.1376,2.1511,0.0,1.9277,1.9238,1.8594,0.0,0.0,0.0,0.0,0.0,0.0,0.0,0.0,0.0,0.0,0.0,0.0,0.0,0.0,0.0,0.0,0.0,0.9687,0.8972,0.7434,0.7065,0.66,0.5986,0.6003,0.6088,0.624,0.6254,0.6338,0.6349,0.6552,0.6019,0.4782,0.266,0.1752,0.1696,0.0448,0.0,0.0,0.0,0.0,0.0,0.0,0.0,0.0,0.0,0.0,0.0,0.0,0.0,0.0,0.0,0.0,0.0,0.0,0.0,0.0,0.0,0.0,0.0,0.0,0.0,0.0,0.0,0.0,1.2699,1.2124,1.1367,1.1102,1.1386,1.1457,1.1531,1.158,1.0539,1.0494,1.1409,1.0379,1.0131,1.0521,1.0507,1.0678,1.1029,1.1503,1.1684,1.1738,1.2778,1.2726,1.2222,1.3986,1.4194,0.0,0.0,0.0,0.0,0.0,0.0,0.0,1.5237,1.5138,1.4789,1.4526,1.4214,1.3971,1.4014,1.4051,0.0,0.0,1.6669,1.874,2.0284,2.0808,2.0417,1.8713,1.8852,1.918,1.8838,0.0,0.0,0.0,0.0,0.0,0.0,0.0,0.0,0.0,0.0,0.0,0.0,0.0,0.0,0.0,0.0,0.0,1.0392,0.9744,0.8918,0.79,0.7131,0.6427,0.5681,0.5793,0.5928,0.0,0.6203,0.6338,0.6345,0.6441,0.5927,0.4866,0.3603,0.2519,0.1573,0.0446,0.0,0.0,0.0,0.0,0.0,0.0,0.0,0.0,0.0,0.0,0.0,0.0,0.0,0.0,0.0,0.0,0.0,0.0,0.0,0.0,0.0,0.0,0.0,0.0,0.0,0.0,0.0,0.0,0.0,1.1777,1.1463,1.1161,1.0892,1.1491,1.1718,1.1519,1.102,1.1086,1.1691,1.1012,1.0709,1.0709,1.0939,1.1036,1.1075,1.1503,1.1842,1.2141,1.2836,1.296,1.2893,1.4178,1.4419,1.4142,1.4724,0.0,0.0,0.0,0.0,0.0,0.0,0.0,1.5417,1.5261,1.4897,1.4584,1.4656,0.0,0.0,1.5204,0.0,1.8725,1.9277,1.9576,1.923,1.7708,1.8398,1.915,0.0,0.0,0.0,0.0,0.0,0.0,0.0,0.0,0.0,0.0,0.0,0.0,0.0,0.0,0.0,0.0,0.0,1.0685,1.0755,1.0245,0.9385,0.8245,0.762,0.6751,0.5589,0.5664,0.5776,0.5922,0.6003,0.6078,0.6156,0.6302,0.6128,0.5606,0.4506,0.3376,0.2307,0.1225,0.0442,0.0,0.0,0.0,0.0,0.0,0.0,0.0,0.0,0.0,0.0,0.0,0.0,0.0,0.0,0.0,0.0,0.0,0.0,0.0,0.0,0.0,0.0,0.0,0.0,0.0,0.0,0.0,0.0,0.0,1.184,1.1337,1.0249,1.1266,1.1667,1.1372,1.1682,1.187,1.1912,1.1693,1.1387,1.101,1.1508,1.1589,1.1373,1.1737,1.2245,1.2764,1.2947,1.329,1.377,1.4338,1.4583,1.4672,1.4916,1.4805,1.464,1.5196,0.0,0.0,0.0,0.0,1.5816,1.5831,1.5511,1.5161,1.5261,0.0,1.4878,1.5372,1.6639,0.0,1.6838,1.7446,1.8002,1.7396,1.8232,0.0,0.0,0.0,0.0,0.0,0.0,0.0,0.0,0.0,0.0,0.0,0.0,0.0,0.0,0.0,0.0,0.0,0.0,1.0732,1.0909,1.0688,0.9879,0.8358,0.8123,0.7197,0.5549,0.5576,0.5647,0.5766,0.5789,0.5881,0.6034,0.6162,0.6298,0.6437,0.525,0.4172,0.317,0.2048,0.0951,0.0,0.0,0.0,0.0,0.0,0.0,0.0,0.0,0.0,0.0,0.0,0.0,0.0,0.0,0.0,0.0,0.0,1.2026,0.0,0.0,0.0,0.0,0.0,0.0,0.0,0.0,0.0,0.0,1.2485,1.2249,1.1948,1.155,1.1715,1.1873,1.206,1.2277,1.2519,1.2712,1.1946,1.1801,1.2165,1.2027,1.1937,1.1935,1.2489,1.2502,1.2252,1.3683,1.3702,1.3109,1.52,1.5507,1.4936,1.6092,1.6312,1.6037,1.613,1.6134,0.0,0.0,0.0,1.5727,1.5326,1.4941,1.4634,0.0,0.0,1.4569,0.0,1.527,1.5906,0.0,0.0,1.6933,0.0,0.0,0.0,0.0,0.0,0.0,0.0,0.0,0.0,0.0,0.0,0.0,0.0,0.0,0.0,0.0,0.0,0.0,0.0,1.0394,1.0645,1.0678,1.0645,0.9792,0.8132,0.8042,0.7195,0.5459,0.5521,0.5599,0.562,0.5742,0.5881,0.603,0.6051,0.6142,0.6295,0.5137,0.4133,0.3014,0.2001,0.0939,0.0,0.0,0.0,0.0,0.0,0.0,0.0,0.0,0.0,0.0,0.0,0.0,0.0,0.0,0.0,0.0,0.0,0.0,1.2437,0.0,0.0,0.0,0.0,0.0,0.0,0.0,0.0,0.0,1.261,1.2352,1.2066,1.1805,1.1615,1.1784,1.2384,1.225,1.2515,1.3055,1.2683,1.2479,1.2391,1.2458,1.2403,1.2245,1.2719,1.2799,1.2801,1.408,1.4305,1.4024,1.5906,1.636,1.6062,1.6652,1.6756,1.6585,1.6271,1.6179,1.6114,1.5946,0.0,0.0,0.0,1.5013,1.4468,1.4335,1.4666,1.4994,0.0,1.5421,1.589,1.6043,0.0,1.6538,0.0,0.0,0.0,0.0,0.0,0.0,0.0,0.0,0.0,0.0,0.0,0.0,0.0,0.0,0.0,0.0,0.0,0.0,0.0,0.99,1.014,1.0301,1.0314,0.9813,0.8742,0.8285,0.7377,0.6137,0.5691,0.546,0.5464,0.5525,0.5637,0.5783,0.5783,0.5959,0.6264,0.5774,0.4999,0.3895,0.2849,0.1822,0.084,0.0258,0.0,0.0,0.0,0.0,0.0,0.0,0.0,0.0,0.0,0.0,0.0,0.0,0.0,0.0,0.0,0.0,0.0,0.0,0.0,0.0,0.0,0.0,0.0,0.0,0.0,0.0,1.263,1.2412,1.2149,1.1805,1.1557,1.1793,1.2512,1.2258,1.2507,1.3198,1.3198,1.2985,1.2617,1.2852,1.2833,1.2617,1.2865,1.3152,1.3506,1.4358,1.4783,1.5025,1.6236,1.6697,1.6697,1.6697,1.6697,1.6662,1.6225,1.618,1.625,1.625,1.6149,0.0,0.0,0.0,0.0,0.0,0.0,1.4824,1.4946,1.5378,1.5681,0.0,0.0,1.6017,0.0,0.0,0.0,0.0,0.0,0.0,0.0,0.0,0.0,0.0,0.0,0.0,0.0,0.0,0.0,0.0,0.0,0.0,0.0,0.9519,0.978,0.9993,1.0007,0.9768,0.9162,0.8329,0.749,0.6651,0.5715,0.5267,0.5304,0.5304,0.5403,0.5589,0.5589,0.5813,0.6203,0.6203,0.5674,0.4616,0.3502,0.2499,0.1467,0.0422,0.0,0.0,0.0,0.0,0.0,0.0,0.0,0.0,0.0,0.0,0.0,0.0,0.0,0.0,0.0,0.0,0.0,0.0,0.0,1.4451,1.4488,1.4451,1.4265,1.3856,1.3556,1.3157,1.263,1.2591,0.0,1.1811,1.1768,1.2009,1.2512,1.2484,1.2737,1.3198,1.3198,1.3185,1.316,1.3195,1.3182,1.316,1.3195,1.3509,1.4083,1.4514,1.4984,1.5507,1.5973,0.0,0.0,0.0,0.0,0.0,0.0,1.6459,1.6847,1.6847,1.6775,1.6652,0.0,0.0,0.0,0.0,1.3617,0.0,1.3984,1.4373,0.0,0.0,0.0,0.0,0.0,0.0,0.0,0.0,0.0,0.0,0.0,0.0,0.0,0.0,0.0,0.0,0.0,0.0,0.0,0.0,0.0,0.0,0.0,0.9519,0.9693,0.9706,0.9706,0.9466,0.8868,0.7949,0.7149,0.64,0.5439,0.5009,0.5142,0.5142,0.5301,0.5589,0.5589,0.5755,0.604,0.604,0.5506,0.4608,0.3519,0.2541,0.1462,0.0408,0.0,0.0,0.0,0.0,0.0,0.0,0.0,0.0,0.0,0.0,0.0,0.0,0.0,0.0,0.0,0.0,0.0,0.0,1.5285,1.5392,1.4884,1.4268,1.3813,1.3539,1.3278,1.2906,1.2372,1.2352,1.2169,1.1805,1.1415,1.1637,1.2512,1.2113,1.2347,1.3198,1.3198,1.3198,1.3198,1.3198,1.3198,1.3198,1.3198,1.3546,0.0,0.0,0.0,0.0,0.0,0.0,0.0,0.0,0.0,0.0,0.0,0.0,0.0,0.0,0.0,0.0,0.0,0.0,0.0,0.0,0.0,0.0,1.5004,1.4896,1.4762,1.4982,1.4855,0.0,0.0,0.0,0.0,0.0,0.0,0.0,0.0,0.0,0.0,0.0,0.0,0.0,0.0,0.0,0.0,0.0,0.0,0.0,0.0,0.0,0.9205,0.9385,0.9399,0.9354,0.94,0.8072,0.675,0.5424,0.5067,0.4989,0.5131,0.5131,0.524,0.5443,0.5443,0.5603,0.5884,0.5884,0.58,0.5628,0.453,0.3532,0.2459,0.1452,0.0575,0.0,0.0,0.0,0.0,0.0,0.0,0.0,0.0,0.0,0.0,0.0,0.0,0.0,0.0,0.0,0.0,0.0,0.0,1.527,1.4864,1.4331,1.3953,1.3807,1.342,1.2999,1.2567,1.2215,1.1924,1.1637,1.1329,1.1542,1.2315,1.213,1.2424,1.3198,1.3198,1.3198,1.3198,1.3198,1.3198,1.3198,0.0,0.0,1.4387,0.0,0.0,1.6048,0.0,0.0,0.0,0.0,0.0,0.0,0.0,0.0,0.0,0.0,0.0,0.0,0.0,0.0,0.0,1.5834,0.0,0.0,0.0,0.0,1.4935,1.5357,0.0,0.0,0.0,0.0,0.0,0.0,0.0,0.0,0.0,0.0,0.0,0.0,0.0,0.0,0.0,0.0,0.0,0.0,0.0,0.0,0.0,0.0,0.0,0.903,0.9044,0.8948,0.8761,0.7772,0.6484,0.4843,0.4792,0.4863,0.506,0.506,0.5165,0.5428,0.5428,0.5498,0.5732,0.5732,0.5901,0.611,0.514,0.4274,0.3401,0.2144,0.113,0.0489,0.0166,0.0,0.0,0.0,0.0,0.0,0.0,0.0,0.0,0.0,0.0,0.0,0.0,0.0,0.0,0.0,0.0,0.0,1.4443,1.4681,1.4767,1.4767,1.402,1.3473,1.3197,1.2229,1.1586,1.133,1.1579,1.1818,1.2039,1.2598,1.2994,1.3198,1.3198,1.3198,1.3198,1.3198,1.321,1.3223,0.0,1.3885,1.4928,0.0,1.5542,1.6522,0.0,0.0,0.0,1.6466,1.6466,0.0,1.6466,0.0,0.0,0.0,0.0,0.0,0.0,0.0,0.0,0.0,0.0,0.0,0.0,0.0,0.0,1.5476,0.0,1.4756,0.0,0.0,0.0,0.0,0.0,0.0,0.0,0.0,0.0,0.0,0.0,0.0,0.0,0.0,0.0,0.0,0.0,0.0,0.0,0.8804,0.8804,0.8804,0.8804,0.8219,0.6946,0.7017,0.6335,0.4742,0.4594,0.4613,0.4911,0.4918,0.507,0.5422,0.5425,0.5447,0.5589,0.5589,0.5752,0.5952,0.5098,0.4614,0.4295,0.2401,0.1667,0.1459,0.0406,0.0,0.0,0.0,0.0,0.0,0.0,0.0,0.0,0.0,0.0,0.0,0.0,0.0,0.0,0.0,1.3768,1.3956,1.4384,1.4252,1.3934,1.3465,1.3481,1.3282,1.2708,1.2434,1.2231,1.218,1.2006,1.2166,0.0,0.0,0.0,0.0,0.0,0.0,0.0,1.3198,1.3446,1.3858,1.3858,0.0,1.5467,1.5467,1.5894,0.0,0.0,0.0,0.0,0.0,1.5864,1.5864,0.0,1.6225,1.671,0.0,0.0,0.0,0.0,0.0,0.0,1.6402,0.0,0.0,0.0,0.0,0.0,1.4585,1.4353,1.4187,0.0,0.0,0.0,0.0,0.0,0.0,0.0,0.0,0.0,0.0,0.0,0.0,0.0,0.0,0.0,0.0,0.0,0.0,0.0,0.8804,0.8804,0.8804,0.8804,0.8406,0.7498,0.7007,0.6289,0.529,0.4757,0.4562,0.4755,0.4867,0.5016,0.5199,0.5311,0.5447,0.5589,0.5589,0.5637,0.5732,0.5686,0.5101,0.4264,0.3843,0.2752,0.1311,0.108,0.0549,0.0,0.0,0.0,0.0,0.0,0.0,0.0,0.0,0.0,0.0,0.0,0.0,0.0,0.0,0.0,1.369,1.4151,1.4371,1.4213,1.3613,1.3742,1.3544,1.2937,1.252,1.2287,1.2287,1.2203,1.2332,0.0,0.0,0.0,0.0,0.0,0.0,0.0,0.0,0.0,0.0,0.0,0.0,0.0,1.5611,0.0,0.0,1.6423,1.6151,0.0,0.0,0.0,1.5632,1.5908,1.6194,0.0,0.0,0.0,0.0,0.0,0.0,0.0,0.0,0.0,0.0,0.0,0.0,0.0,1.5103,1.4903,1.4747,0.0,0.0,0.0,0.0,0.0,0.0,0.0,0.0,0.0,0.0,0.0,0.0,0.0,0.0,0.0,0.0,0.9211,0.9113,0.8804,0.8804,0.8804,0.8804,0.8804,0.848,0.7723,0.7289,0.6691,0.5977,0.555,0.5318,0.5147,0.5247,0.5196,0.5047,0.5196,0.5311,0.5403,0.5467,0.5494,0.5511,0.5749,0.5431,0.4728,0.4478,0.3634,0.2453,0.2105,0.1372,0.0542,0.0,0.0,0.0,0.0,0.0,0.0,0.0,0.0,0.0,0.0,0.0,0.0,0.0,0.0,0.0,0.0,1.4789,1.5107,1.4574,1.4482,0.0,1.3676,1.2737,1.2225,1.2225,1.238,1.2504,0.0,0.0,0.0,0.0,0.0,0.0,0.0,0.0,0.0,0.0,0.0,0.0,1.4849,1.5533,1.5763,0.0,0.0,1.6051,1.5676,1.6151,1.6008,1.5676,1.6293,1.6559,0.0,0.0,0.0,0.0,0.0,1.6522,0.0,0.0,0.0,0.0,0.0,1.6057,0.0,1.6233,1.5957,1.5743,1.6148,0.0,0.0,0.0,0.0,0.0,0.0,0.0,0.0,0.0,0.0,0.0,0.0,0.0,0.0,0.9909,0.9814,0.951,0.8857,0.8804,0.8804,0.8804,0.8804,0.848,0.783,0.7723,0.7402,0.675,0.6642,0.6298,0.5743,0.576,0.5455,0.4897,0.5043,0.5108,0.5114,0.527,0.5335,0.5348,0.5501,0.5566,0.551,0.4651,0.4265,0.4061,0.3337,0.2403,0.1515,0.0,0.0,0.0,0.0,0.0,0.0,0.0,0.0,0.0,0.0,0.0,0.0,0.0,0.0,0.0,0.0,1.4902,1.5262,1.4838,1.5121,0.0,1.4648,1.4027,1.3699,1.3699,1.3267,0.0,0.0,0.0,0.0,0.0,0.0,0.0,0.0,0.0,0.0,0.0,0.0,0.0,1.4789,1.5905,0.0,1.6281,1.5908,1.572,1.5543,1.5197,1.5276,1.5676,1.6293,1.6823,1.7149,0.0,0.0,0.0,1.666,0.0,0.0,0.0,0.0,0.0,0.0,0.0,0.0,1.5306,1.5155,1.4947,0.0,1.4375,0.0,0.0,0.0,0.0,0.0,0.0,0.0,0.0,0.0,0.0,0.0,0.0,0.0,0.9909,0.9814,0.951,0.8857,0.8804,0.8804,0.8804,0.8804,0.8752,0.8593,0.7996,0.7616,0.7509,0.6912,0.6277,0.5542,0.5697,0.5447,0.4741,0.4891,0.4958,0.4969,0.5114,0.5176,0.5186,0.5342,0.5473,0.542,0.5365,0.4784,0.4009,0.3818,0.3276,0.2491,0.0,0.0,0.0,0.0,0.0,0.0,0.0,0.0,0.0,0.0,0.0,0.0,0.0,0.0,0.0,0.0,0.0,0.0,0.0,0.0,0.0,0.0,0.0,0.0,0.0,0.0,0.0,0.0,0.0,0.0,0.0,0.0,0.0,0.0,0.0,0.0,0.0,0.0,1.4743,1.4744,1.5377,0.0,1.5186,1.5499,1.541,1.5186,1.5466,1.5788,1.6144,1.676,1.6948,0.0,0.0,1.7375,1.7325,0.0,1.6948,1.6886,0.0,0.0,0.0,1.617,0.0,0.0,0.0,1.5693,1.5611,1.5311,1.502,1.4837,1.4837,0.0,0.0,0.0,0.0,0.0,0.0,0.0,0.0,0.0,0.0,0.0,1.0615,1.0664,1.0364,0.9361,0.9008,0.8804,0.8804,0.8804,0.8804,0.8804,0.8427,0.8262,0.8262,0.7509,0.6799,0.6036,0.575,0.5297,0.4582,0.4735,0.4806,0.4813,0.4962,0.5064,0.5135,0.5213,0.5291,0.5435,0.5447,0.52,0.4725,0.4792,0.4257,0.3346,1.1476,0.0,0.0,0.0,0.0,0.0,0.0,0.0,0.0,0.0,0.0,0.0,0.0,0.0,0.0,0.0,0.0,0.0,0.0,0.0,0.0,0.0,0.0,1.5117,0.0,0.0,0.0,0.0,0.0,0.0,0.0,0.0,0.0,0.0,0.0,0.0,0.0,0.0,0.0,1.4514,0.0,1.4283,1.4226,1.5096,1.5287,1.5152,1.6151,1.6522,1.6584,1.7049,1.6974,1.6823,1.7626,1.7652,0.0,0.0,0.0,0.0,0.0,0.0,0.0,0.0,0.0,1.6522,0.0,0.0,0.0,1.6384,1.6007,0.0,0.0,0.0,0.0,0.0,0.0,0.0,0.0,0.0,0.0,0.0,0.0,0.0,1.1453,1.142,1.1039,0.9909,0.9207,0.8894,0.9008,0.8857,0.8804,0.8804,0.8804,0.8804,0.8804,0.8049,0.7343,0.6588,0.5873,0.5164,0.4522,0.4589,0.4663,0.4701,0.4853,0.4999,0.5131,0.5162,0.525,0.5428,0.5428,0.5428,0.5442,0.5501,0.5005,0.4268,1.0637,1.1092,0.0,0.0,0.0,0.0,0.0,0.0,0.0,0.0,0.0,0.0,0.0,0.0,0.0,0.0,0.0,0.0,1.4631,0.0,0.0,0.0,0.0,0.0,1.6321,0.0,0.0,0.0,0.0,0.0,0.0,0.0,0.0,0.0,1.3861,0.0,0.0,0.0,1.3467,0.0,1.3334,1.4014,0.0,1.4971,1.5421,1.6293,1.6436,1.6522,1.6522,0.0,1.6911,1.7212,0.0,1.7024,1.7275,1.6773,0.0,0.0,0.0,0.0,0.0,0.0,1.6522,0.0,0.0,0.0,1.6384,1.5894,0.0,0.0,0.0,0.0,0.0,0.0,0.0,0.0,0.0,0.0,0.0,0.0,0.0,0.0,0.0,1.0971,1.0229,0.9843,0.9401,0.9321,0.9644,0.9106,0.8804,0.8804,0.8804,0.8804,0.8804,0.8049,0.7343,0.6588,0.5873,0.5164,0.4519,0.4536,0.4562,0.4701,0.4853,0.4999,0.5142,0.5277,0.5411,0.5428,0.5428,0.5428,0.5428,0.5449,0.5403,0.5309,1.0763,1.1248,0.0,0.0,0.0,0.0,0.0,0.0,0.0,0.0,0.0,0.0,0.0,0.0,0.0,0.0,0.0,1.3789,0.0,0.0,0.0,0.0,0.0,0.0,0.0,0.0,0.0,0.0,1.6057,0.0,0.0,0.0,0.0,0.0,1.4167,0.0,1.3658,0.0,1.3372,0.0,0.0,0.0,0.0,1.4422,1.4915,1.6008,1.638,1.6522,1.6522,0.0,1.6685,0.0,0.0,0.0,0.0,0.0,0.0,0.0,0.0,0.0,0.0,0.0,0.0,0.0,1.6597,0.0,1.6459,0.0,0.0,0.0,0.0,0.0,0.0,0.0,1.4265,0.0,0.0,0.0,0.0,0.0,0.0,0.0,0.0,0.0,0.0,0.0,1.0245,0.9768,0.9799,0.951,0.9211,0.8804,0.8804,0.8804,0.8804,0.8049,0.7343,0.6588,0.5873,0.5164,0.4519,0.4519,0.4553,0.4565,0.4721,0.487,0.502,0.5165,0.5281,0.5428,0.5428,0.5428,0.5428,0.5428,0.547,0.5389,1.1025,1.1407,0.0,0.0,0.0,0.0,0.0,0.0,0.0,0.0,0.0,0.0,1.2881,1.2881,0.0,0.0,1.2881,1.3113,0.0,0.0,1.392,0.0,0.0,0.0,0.0,0.0,0.0,0.0,0.0,0.0,0.0,0.0,0.0,0.0,0.0,1.3884,1.2929,0.0,1.3286,1.2929,1.3372,1.3836,1.4247,1.4457,1.5096,1.5908,1.6324,1.6522,1.6522,1.6522,1.6522,0.0,1.7476,0.0,0.0,0.0,0.0,0.0,1.671,0.0,0.0,0.0,0.0,0.0,0.0,0.0,0.0,0.0,0.0,0.0,0.0,0.0,0.0,0.0,0.0,1.4462,0.0,0.0,0.0,0.0,0.0,0.0,0.0,0.0,0.0,1.1792,1.0863,1.0246,1.0092,0.9917,0.951,0.8804,0.8804,0.8804,0.8804,0.8049,0.745,0.6912,0.6145,0.5437,0.4787,0.4787,0.4727,0.4596,0.4704,0.4863,0.5047,0.5152,0.526,0.5428,0.5428,0.5428,0.5428,0.5428,0.5428,0.5428,1.1216,1.1437,0.0,0.0,0.0,0.0,0.0,0.0,0.0,0.0,0.0,0.0,0.0,0.0,0.0,0.0,0.0,1.2929,1.2929,0.0,1.3552,0.0,0.0,1.456,0.0,0.0,0.0,0.0,0.0,0.0,0.0,0.0,0.0,0.0,1.3815,1.3457,1.2881,1.2929,1.2929,1.2881,1.2929,1.2929,1.32,0.0,1.6423,1.6466,1.6466,0.0,0.0,1.6522,1.6522,0.0,0.0,0.0,0.0,0.0,0.0,0.0,0.0,0.0,0.0,1.666,0.0,0.0,0.0,0.0,1.6522,0.0,0.0,0.0,0.0,0.0,0.0,0.0,0.0,0.0,0.0,0.0,0.0,0.0,0.0,0.0,0.0,1.133,1.1095,1.1859,1.1104,1.0632,1.078,1.0167,0.951,0.8804,0.8804,0.8804,0.8804,0.8049,0.767,0.767,0.6912,0.6204,0.5487,0.5487,0.5239,0.4904,0.4911,0.5077,0.5415,0.5418,0.5422,0.5428,0.5428,0.5428,0.5428,0.5428,0.5428,0.5428,1.2381,0.0,0.0,0.0,0.0,0.0,0.0,1.2093,0.0,0.0,1.2754,0.0,0.0,1.2881,1.2881,0.0,0.0,1.2881,1.2881,1.3104,0.0,0.0,0.0,1.405,0.0,0.0,0.0,0.0,0.0,0.0,0.0,0.0,0.0,0.0,0.0,1.3836,0.0,0.0,0.0,0.0,0.0,1.3515,1.3742,0.0,1.5744,1.4869,1.6064,1.6238,0.0,1.638,1.6522,1.6584,1.6974,1.6961,1.6848,1.7036,1.7087,0.0,0.0,0.0,1.725,1.666,0.0,0.0,0.0,0.0,0.0,0.0,0.0,0.0,0.0,0.0,0.0,0.0,0.0,0.0,0.0,0.0,0.0,0.0,0.0,0.0,0.0,0.0,0.0,1.2579,1.2005,1.1433,1.0839,1.0568,0.9961,0.8857,0.8804,0.8804,0.8804,0.854,0.8156,0.7723,0.745,0.7046,0.6519,0.5958,0.5698,0.5755,0.5261,0.5118,0.5216,0.5318,0.5428,0.5428,0.5428,0.5428,0.5428,0.5428,0.5428,0.5428,1.2831,1.2435,0.0,0.0,0.0,0.0,0.0,0.0,0.0,0.0,1.2881,0.0,1.2881,0.0,1.2881,0.0,1.2881,1.2881,1.2881,1.2881,0.0,1.2881,1.3286,0.0,0.0,0.0,0.0,0.0,0.0,1.4778,0.0,0.0,0.0,0.0,0.0,1.4025,1.2881,1.2881,1.2881,0.0,0.0,1.3684,0.0,0.0,1.5152,1.4283,0.0,1.5908,1.5676,1.6293,1.6522,1.6584,1.6961,1.6961,1.6861,1.7024,1.7099,1.7036,1.6622,1.6936,0.0,1.6923,1.7099,0.0,1.6911,0.0,0.0,0.0,0.0,0.0,0.0,0.0,0.0,0.0,0.0,0.0,0.0,1.4185,0.0,0.0,0.0,0.0,0.0,1.2028,1.1853,1.3213,1.2513,1.1752,0.0,0.0,1.0312,0.9211,0.891,0.8804,0.8804,0.8804,0.854,0.8103,0.8195,0.7946,0.7491,0.6702,0.632,0.621,0.5461,0.5162,0.522,0.5321,0.5428,0.5428,0.5428,0.5428,0.5428,0.5428,0.5428,0.5428,1.2422,1.244,0.0,0.0,1.251,0.0,0.0,0.0,1.2881,0.0,1.2881,1.2881,1.2881,1.2881,1.2881,1.2881,1.2881,1.2881,1.2881,1.2881,0.0,0.0,1.2881,1.2881,1.2881,0.0,0.0,0.0,0.0,0.0,0.0,0.0,0.0,0.0,1.4154,0.0,1.2929,1.2929,1.2881,1.2978,1.3505,1.342,1.3017,1.4154,1.4606,1.4698,1.532,1.5543,1.5632,1.6238,1.6479,1.6522,1.6522,1.6898,1.7237,1.6685,1.7275,1.789,1.681,1.6923,1.7338,1.7338,0.0,0.0,0.0,0.0,1.7187,0.0,0.0,0.0,0.0,0.0,0.0,0.0,0.0,0.0,0.0,0.0,0.0,0.0,0.0,0.0,0.0,1.185,1.1764,1.3704,1.2459,1.1672,0.0,0.0,1.045,0.9814,0.9166,0.8811,0.8831,0.8818,0.8818,0.8831,0.905,0.885,0.8253,0.7618,0.7067,0.64,0.5583,0.5288,0.5428,0.5428,0.5428,0.5428,0.5428,0.5428,0.5428,0.5428,0.5428,0.5428,1.0859,1.1925,1.2706,0.0,1.2783,1.2881,0.0,0.0,0.0,0.0,1.2881,1.2881,1.2881,1.2881,1.2881,1.2881,1.2881,0.0,0.0,0.0,0.0,1.2881,1.2881,1.2881,1.2881,1.3505,0.0,1.3152,0.0,0.0,1.3152,0.0,0.0,0.0,0.0,0.0,1.3552,1.3104,1.2881,1.2929,1.3065,1.3065,1.2929,0.0,1.3344,1.3478,1.456,1.4926,1.5017,1.5644,1.6151,1.6522,1.6522,1.6622,1.671,1.6559,1.6722,1.6886,1.6597,1.6622,1.6735,1.6735,1.6735,1.6735,0.0,0.0,0.0,0.0,0.0,0.0,0.0,0.0,0.0,0.0,0.0,0.0,0.0,0.0,0.0,1.3957,0.0,0.0,1.3273,1.2371,1.2263,1.3164,1.2484,1.1986,1.1787,0.0,0.0,0.9806,0.9166,0.8911,0.907,0.8918,0.8918,0.907,0.915,0.924,0.9285,0.8705,0.8094,0.7555,0.6647,0.5967,0.5428,0.5428,0.5428,0.5428,0.5428,0.5428,0.5428,0.5428,0.5428,0.5428,1.1324,0.0,0.0,1.2881,0.0,0.0,1.2881,1.2881,0.0,1.2881,1.2881,0.0,1.2881,1.2881,1.2881,1.2881,1.2881,0.0,1.2881,0.0,0.0,1.2881,1.2881,1.2881,1.2881,1.3238,0.0,1.2881,0.0,0.0,1.2929,0.0,0.0,0.0,0.0,1.3637,1.3372,1.3065,1.2881,1.2881,1.2881,1.2881,0.0,1.2881,1.3055,1.3334,1.3742,1.4247,1.4789,1.541,1.6008,1.6522,1.6522,1.6522,1.6522,1.6522,1.6522,1.6522,1.6522,1.6522,1.6572,1.6835,1.6898,1.6898,1.6898,1.6898,1.6823,0.0,0.0,0.0,0.0,0.0,0.0,0.0,0.0,0.0,0.0,0.0,0.0,0.0,1.4727,0.0,1.3672,1.3027,1.2844,1.3373,1.2648,1.2214,0.0,0.0,0.0,1.048,0.9826,0.9452,0.9432,0.9272,0.9272,0.9439,0.9559,0.9713,0.988,0.9297,0.8862,0.8484,0.7242,0.6396,0.5943,0.5557,0.5428,0.5428,0.5428,0.5428,0.5428,0.5428,0.5428,0.5428,1.2619,0.0,0.0,0.0,0.0,0.0,0.0,1.2676,0.0,1.2725,0.0,1.2881,1.2881,1.2881,1.2881,1.2881,0.0,1.2881,1.2881,1.2881,1.2881,1.2881,1.2881,1.2881,1.2881,1.2881,1.291,0.0,0.0,0.0,0.0,0.0,0.0,0.0,0.0,0.0,0.0,1.2881,1.2881,1.2881,1.2881,1.2881,1.2881,1.2881,1.3248,1.36,1.3104,1.3752,1.488,1.532,1.5964,1.6522,1.6522,1.6522,1.6522,1.6522,1.6522,1.6522,1.6522,1.6522,1.6635,1.7137,1.7262,1.7262,1.7262,1.7262,1.7124,1.6622,1.6522,1.6522,0.0,0.0,0.0,0.0,0.0,0.0,0.0,0.0,0.0,0.0,0.0,0.0,1.4249,1.3642,1.3435,1.376,1.2806,1.2422,0.0,0.0,0.0,1.1305,1.0616,1.0044,0.974,0.0,0.9699,0.9746,1.0,1.0114,1.0066,0.9662,0.9402,0.9204,0.7697,0.6915,0.6654,0.5881,0.5491,0.5428,0.5428,0.5428,0.5428,0.5428,0.5428,0.5428,1.2598,0.0,0.0,0.0,0.0,1.2166,0.988,1.1451,1.2618,1.1841,1.2412,1.2881,1.2881,1.2881,1.2881,1.2881,1.2881,0.0,0.0,0.0,0.0,1.2881,1.2881,1.2881,1.2881,1.2881,1.3047,0.0,0.0,0.0,0.0,0.0,0.0,0.0,0.0,0.0,1.2881,1.2881,0.0,1.2881,1.2881,1.2881,1.2881,1.2881,1.2978,1.3065,1.2929,1.4014,1.5365,1.5005,1.5611,1.6522,1.6522,1.6522,1.6522,1.6522,1.6522,1.6522,1.6522,1.6522,1.6547,1.6647,1.6672,1.6672,1.6672,1.6672,1.6635,1.6534,1.6522,1.6522,1.6522,0.0,0.0,0.0,0.0,0.0,0.0,0.0,0.0,0.0,0.0,1.5831,0.0,0.0,1.3615,1.3198,1.2576,1.2422,0.0,0.0,0.0,0.0,1.0353,0.0,0.0,0.0,0.98,1.004,1.0094,1.0114,1.0127,1.0296,0.9977,0.9274,0.9005,0.8027,0.6719,0.6527,0.6075,0.5428,0.5428,0.5428,0.5428,0.5428,0.5428,0.5428,1.2676,0.0,0.0,0.0,0.0,0.0,0.0,1.0736,1.2206,1.2206,1.2618,1.2881,1.2881,1.2881,1.2881,1.2881,1.2881,1.2881,1.2881,1.2881,1.2881,1.2881,1.2881,1.2881,1.2881,1.2881,1.3086,1.3506,0.0,0.0,0.0,0.0,0.0,0.0,0.0,1.3525,0.0,0.0,0.0,1.3203,1.3203,1.3076,1.2881,1.2881,1.3104,1.3334,1.3017,1.3884,1.5107,1.4789,1.5287,1.6095,1.638,1.6522,1.6522,1.6522,1.6522,1.6522,1.6522,1.6522,1.6522,1.6522,1.6522,1.6522,1.6522,1.6522,1.6522,1.6522,1.6522,1.6522,1.6522,1.6522,0.0,0.0,0.0,0.0,0.0,0.0,0.0,0.0,0.0,0.0,0.0,0.0,0.0,0.0,0.0,0.0,0.0,0.0,0.0,0.0,0.0,0.0,0.0,0.0,0.0,1.0347,1.0347,1.0347,1.0354,1.0557,1.0364,0.9977,0.9466,0.8549,0.7307,0.64,0.5749,0.5428,0.5428,0.5428,0.5428,0.5428,0.5428,0.5428,0.0,1.252,0.0,0.0,0.8804,0.0,0.8804,1.0277,1.1592,1.2255,1.2676,1.2881,1.2881,1.2881,1.2881,1.2881,1.2881,1.2881,1.2881,1.2881,1.2881,1.2881,1.2881,1.292,1.3018,1.3018,1.3262,0.0,0.0,0.0,0.0,0.0,0.0,0.0,0.0,0.0,0.0,0.0,1.3945,1.3633,1.3545,1.3359,1.3125,1.2949,1.325,1.3676,1.3095,1.3525,1.434,1.4606,1.5096,1.572,1.6293,1.6522,1.6522,1.6522,1.6522,1.6522,1.6522,1.6522,1.6522,1.6522,1.6522,1.6522,1.6522,1.6522,1.6522,1.6522,1.6522,1.6522,1.6522,1.6522,0.0,0.0,0.0,0.0,0.0,0.0,0.0,0.0,0.0,0.0,1.5906,0.0,0.0,0.0,0.0,0.0,1.3008,0.0,0.0,0.0,0.0,1.1421,1.0524,0.0,1.0624,1.0624,1.0624,1.0624,1.0624,1.0624,1.0624,1.0561,0.9849,0.9005,0.7897,0.6338,0.5557,0.5428,0.5428,0.5428,0.5428,0.5428,0.5428,0.5428,0.0,0.0,0.0,0.0,0.0,0.0,0.8804,0.9961,1.0771,1.0474,1.19,1.2881,1.2881,1.2881,1.2881,1.2881,1.2881,1.2881,1.2881,1.2881,1.2881,1.2881,1.2881,1.3057,1.3437,1.3447,1.3848,0.0,0.0,1.4297,0.0,0.0,0.0,0.0,0.0,0.0,0.0,1.4077,1.4058,1.399,1.3662,1.3711,1.3936,1.3174,1.3165,1.349,1.3067,1.2978,1.3248,1.434,1.5096,1.572,1.6293,1.6522,1.6522,1.6522,1.6522,1.6522,1.6522,1.6522,1.6522,1.6522,1.6522,1.6522,1.6522,1.6522,1.6522,1.6522,1.6522,1.6522,1.6522,1.6522,1.6522,0.0,0.0,0.0,0.0,0.0,1.6572,1.6522,0.0,0.0,1.6446,1.5398,0.0,0.0,1.3542,0.0,0.0,0.0,0.0,1.1878,0.0,1.0248,1.016,1.0428,1.0624,1.0624,1.0624,1.0624,1.0624,1.0624,1.0624,1.0624,1.0498,0.9518,0.7897,0.6981,0.6141,0.5428,0.5428,0.5428,0.5428,0.5428,0.5428,0.5428,0.0,0.0,0.0,0.0,0.0,0.0,0.0,0.9762,0.9762,1.0167,1.1801,1.2881,1.2881,1.2881,1.2881,1.2881,1.2881,1.2881,1.2881,1.2881,1.2881,1.2881,1.2881,1.2959,1.3125,1.3379,1.3799,0.0,0.0,0.0,0.0,0.0,0.0,0.0,0.0,1.4902,1.4902,1.4902,1.4756,1.4492,1.4062,1.3828,1.3691,1.3105,1.2988,1.3105,1.2939,1.3152,1.3552,1.4433,1.488,1.5242,1.6207,1.6522,1.6522,1.6522,1.6522,1.6522,1.6522,1.6522,1.6522,1.6522,1.6522,1.6522,1.6522,1.6522,1.6522,1.6522,1.6522,1.6522,1.6522,1.6522,1.6522,0.0,0.0,0.0,0.0,0.0,0.0,1.6559,0.0,1.6522,0.0,1.5433,0.0,0.0,0.0,0.0,0.0,0.0,0.0,1.1581,0.0,1.1253,1.012,1.0414,1.0624,1.0624,1.0624,1.0624,1.0624,1.0624,1.0624,1.0561,1.0047,0.9134,0.7907,0.7176,0.6234,0.5435,0.5464,0.5443,0.5428,0.5428,0.5428,0.5428,0.8804,0.0,0.8804,0.0,0.8804,0.9106,1.0064,0.9666,0.9361,0.971,1.1342,1.2461,1.2314,1.2676,1.2881,1.2881,1.2881,1.2881,1.2881,1.2881,1.2881,1.2881,1.2881,0.0,1.3242,1.3545,1.3955,1.4457,1.4814,0.0,0.0,0.0,0.0,0.0,1.541,1.541,1.541,1.541,1.5244,1.4922,1.4355,1.4033,1.3809,1.3135,1.2959,1.3047,1.293,1.3286,1.3909,1.4525,1.4835,1.5152,1.6194,1.6522,1.6522,1.6522,1.6522,1.6522,1.6522,1.6522,1.6522,1.6522,1.6522,1.6522,1.6522,1.6522,1.6522,1.6522,1.6522,1.6522,1.6522,1.6522,1.6522,1.6522,0.0,0.0,0.0,1.6873,0.0,0.0,1.6522,1.6522,1.6522,1.5433,0.0,0.0,0.0,0.0,0.0,0.0,0.0,0.0,0.0,0.0,1.012,1.0414,1.0624,1.0624,1.0624,1.0624,1.0624,1.0624,1.0672,1.0681,1.0015,0.9285,0.8562,0.7648,0.6759,0.5966,0.57,0.5521,0.543,0.543,0.5466,0.5435,0.8804,0.8804,0.8804,0.8804,0.8804,0.8811,0.8804,0.9614,0.9865,0.8956,1.0372,1.1334,1.0872,1.2058,1.2881,1.2881,1.2881,1.2881,1.2881,1.2881,1.2881,0.0,0.0,1.3271,1.4048,1.4068,1.4541,1.5391,0.0,0.0,1.541,0.0,1.541,1.541,1.541,1.541,1.541,1.541,1.541,1.5332,1.4473,1.4385,1.4629,1.3369,1.3135,1.3447,1.3027,1.3286,1.3909,1.4525,1.5096,1.5688,1.6293,1.6522,1.6522,1.6522,1.6522,1.6522,1.6522,1.6522,1.6522,1.6522,1.6522,1.6522,1.6522,1.6522,1.6522,1.6522,1.6522,1.6522,1.6522,1.6522,1.6522,1.6522,0.0,0.0,0.0,0.0,0.0,1.6522,1.6522,1.6522,1.6522,1.5433,0.0,0.0,0.0,0.0,0.0,0.0,0.0,1.2555,1.1752,0.0,1.012,1.0414,1.0624,1.0624,1.0624,1.0624,1.0624,1.0624,1.0715,1.0969,1.0681,1.0418,1.0002,0.8727,0.7803,0.7186,0.6055,0.5589,0.5586,0.5586,0.5491,0.5449,0.8804,0.8804,0.8804,0.8804,1.0336,1.0947,0.9061,0.9061,0.9465,1.0064,0.9865,0.9614,0.9458,1.1501,1.2881,0.0,1.2881,1.2881,0.0,1.2881,1.2881,1.2881,1.2881,1.3145,1.3691,1.3984,1.4414,1.498,0.0,0.0,0.0,1.541,1.541,1.541,1.541,1.541,1.541,1.541,1.541,1.5332,1.4473,1.4165,1.4228,1.3252,1.2969,1.3066,1.293,1.3286,1.3909,1.4525,1.5096,1.572,1.6293,1.6522,1.6522,1.6522,1.6522,1.6522,1.6522,1.6522,1.6522,1.6522,1.6522,1.6522,1.6522,1.6522,1.6522,1.6522,1.6522,1.6522,1.6522,1.6522,1.6522,1.6522,1.6522,0.0,1.6522,0.0,1.6337,1.5964,1.6238,1.6337,1.5908,1.5407,0.0,0.0,0.0,0.0,0.0,0.0,0.0,0.0,1.2327,0.0,1.012,1.0414,1.0624,1.0624,1.0624,1.0732,1.0855,1.0855,1.1015,1.1283,1.1189,1.0776,1.0037,0.8988,0.8122,0.7203,0.6171,0.5674,0.5579,0.5471,0.5403,0.5435,0.8804,0.8804,0.8804,0.8804,1.0233,1.0795,0.9061,0.8804,0.9113,0.9917,0.9309,0.8804,0.8804,1.0336,0.0,1.2832,1.2881,1.2881,1.2881,1.2881,1.2881,1.2881,1.2881,1.3154,1.373,1.3941,0.0,1.5019,1.5283,1.541,1.541,1.541,1.541,1.541,1.541,1.541,1.541,1.541,1.5322,1.5117,1.4414,1.398,1.3828,1.3145,1.2881,1.2881,1.2881,1.3286,1.3862,1.4236,1.4778,1.532,1.57,1.5976,1.6194,1.6423,1.6522,1.6522,1.6522,1.6522,1.6522,1.6522,1.6522,1.6522,1.6522,1.6522,1.6522,1.6522,1.6522,1.6522,1.6522,1.6522,1.6522,1.6522,1.6522,1.6522,1.6522,0.0,1.6455,0.0,0.0,0.0,0.0,1.5208,1.4722,0.0,0.0,0.0,0.0,0.0,0.0,1.2823,1.294,1.2287,1.0758,1.0649,1.0624,1.0624,1.0675,1.0815,1.0995,1.1102,1.1316,1.1583,1.147,1.1197,1.083,0.9357,0.8476,0.7925,0.6412,0.5796,0.5657,0.5562,0.5494,0.5447,0.8804,0.8804,0.8804,0.0,0.8804,0.0,0.8804,0.8804,0.8804,0.8804,0.8804,0.8804,0.8804,0.8804,0.9932,1.2676,0.0,0.0,0.0,1.2881,1.2881,1.2881,1.2881,1.3271,1.4038,1.4068,1.4551,1.541,1.5381,1.5381,1.541,1.5381,1.5381,1.541,1.541,1.541,1.541,1.5381,1.5146,1.4746,1.4277,1.3857,1.3467,1.3037,1.2881,1.2881,1.2881,1.3238,1.3721,1.3779,1.419,1.4652,1.4709,1.5107,1.5676,1.6238,1.6466,1.6522,1.6522,1.6522,1.6522,1.6522,1.6522,1.6522,1.6522,1.6522,1.6522,1.6522,1.6522,1.6522,1.6522,1.6522,1.6522,1.6522,1.6522,1.6522,1.6522,0.0,1.6691,0.0,0.0,0.0,1.622,1.4799,1.4031,0.0,0.0,0.0,0.0,0.0,1.4155,1.4186,1.3425,1.2634,1.1834,1.0982,1.0631,1.0658,1.0882,1.1035,1.1062,1.1329,1.1617,1.1884,1.1603,1.1797,1.2131,0.9862,0.9094,0.9125,0.6903,0.6009,0.58,0.5789,0.5694,0.5576,0.0,0.0,0.8804,0.8804,0.8804,0.8804,0.8804,0.8804,0.8804,0.8804,0.8804,0.8804,0.8804,0.8804,0.9932,1.2676,1.2881,1.2881,1.2881,1.2881,1.2881,1.2881,1.2881,1.3174,1.3756,1.398,1.4551,1.541,1.5088,1.5098,1.54,1.5078,1.5107,1.541,1.541,1.541,1.5391,1.5068,1.4873,1.4717,1.3955,1.3594,1.3467,1.3037,1.2881,1.2881,1.2881,1.2968,1.32,1.3637,1.3909,1.4097,1.456,1.4789,1.5017,1.5644,1.6139,1.6522,1.6522,1.6522,1.6522,1.6522,1.6522,1.6522,1.6522,1.6522,1.6522,1.6522,1.6522,1.6522,1.6522,1.6522,1.6522,1.6522,1.6522,1.6522,1.6522,1.6522,1.6348,0.0,1.601,1.5787,1.4958,1.4842,1.4683,0.0,0.0,0.0,0.0,1.4687,1.4525,1.4195,1.3425,1.2634,1.1834,1.0982,1.0675,1.0895,1.1182,1.1443,1.1663,1.173,1.1924,1.2198,1.2124,1.2171,1.2218,1.0867,0.9911,0.9125,0.7716,0.6587,0.5789,0.5681,0.5545,0.5416,0.8804,0.8804,0.8804,0.8804,0.8804,0.8804,0.8804,0.8804,0.8804,0.8804,0.8804,0.8804,0.8804,0.8804,0.9596,1.166,1.2489,1.2881,1.2881,1.2881,1.3047,1.3437,1.334,1.3564,1.4199,1.4355,1.4756,1.541,1.5186,1.5186,1.541,1.5176,1.5195,1.541,1.541,1.541,1.54,1.5166,1.4961,1.4727,1.4062,1.3682,1.3467,1.3037,1.2881,1.2881,1.2881,1.2881,1.2978,1.3286,1.3372,1.3467,1.3789,1.4061,1.4376,1.4687,1.541,1.6095,1.6095,1.6281,1.6522,1.6522,1.6522,1.6522,1.6522,1.6522,1.6522,1.6522,1.6522,1.6522,1.6522,1.6522,1.6522,1.6522,1.6522,1.6522,1.6522,1.6238,1.611,1.6109,1.5717,1.5361,1.509,1.4831,1.4641,1.458,1.4502,0.0,1.5049,1.5264,1.5021,1.4213,1.3534,1.2813,1.1989,1.133,1.1035,1.1196,1.149,1.171,1.187,1.2004,1.2151,1.2305,1.2305,1.2305,1.2224,1.1236,1.049,0.9804,0.8262,0.7167,0.6425,0.5853,0.5633,0.5542,0.8804,0.8804,0.8804,0.8804,0.8804,0.8804,0.8804,0.8804,0.8804,0.8804,0.8804,0.8871,0.9051,0.9072,0.9472,1.0537,1.1822,1.2635,1.2891,1.2881,1.3311,1.4287,1.4058,1.4268,1.4863,1.4883,1.5049,1.541,1.5352,1.5352,1.541,1.5352,1.5352,1.541,1.541,1.541,1.541,1.5342,1.5107,1.4746,1.4238,1.3828,1.3467,1.3037,1.2881,1.2881,1.2881,1.2881,1.2881,1.2881,1.2881,1.2881,1.2881,1.3238,1.3637,1.3637,1.4503,1.5499,1.5588,1.6051,1.6522,1.6522,1.6522,1.6522,1.6522,1.6522,1.6522,1.6522,1.6522,1.6522,1.6522,1.6522,1.6522,1.6522,1.6522,1.6466,1.638,0.0,1.5984,1.6697,1.5504,1.4913,1.5654,1.4864,1.4482,1.4853,1.4941,1.5166,1.5586,1.5957,1.5613,1.4454,1.3831,1.3043,1.2072,1.1675,1.149,1.1496,1.1797,1.1937,1.1944,1.2191,1.2305,1.2305,1.2305,1.2305,1.2224,1.1391,1.0932,1.0634,0.8908,0.7917,0.7354,0.6365,0.5983,0.5909,0.8804,0.8804,0.8804,0.8804,0.8804,0.8804,0.8804,0.8804,0.8804,0.8804,0.8804,0.9185,1.018,1.0287,1.0423,1.0611,1.0815,1.1522,1.2821,1.2881,1.3574,1.5146,1.5176,1.5205,1.5312,1.5312,1.5352,1.541,1.5059,1.5068,1.54,1.5049,1.5068,1.541,1.541,1.541,1.5391,1.5039,1.4844,1.4717,1.3926,1.3564,1.3467,1.3037,1.2881,1.2881,1.2881,1.2881,1.2881,1.2881,1.2881,1.2881,1.2881,1.2968,1.3065,1.3065,1.3884,1.4971,1.5454,1.6051,1.6522,1.6522,1.6522,1.6522,1.6522,1.6522,1.6522,1.6522,1.6522,1.6522,1.6522,1.6522,1.6522,1.6522,1.6522,1.6337,1.582,0.0,1.5994,1.5472,1.5447,1.5375,1.4978,1.5096,1.5244,1.5312,1.5654,1.6064,1.6504,1.6592,1.6195,1.5333,1.4422,1.3209,1.1553,1.172,1.1797,1.1804,1.2098,1.2231,1.2238,1.2278,1.2305,1.2305,1.2305,1.2305,1.2298,1.215,1.1545,1.0783,1.0484,0.952,0.8272,0.7425,0.6875,0.6493,0.8804,0.8804,0.8804,0.8804,0.8804,0.8804,0.8804,0.9345,0.9526,0.8891,0.9359,0.996,1.0564,1.0624,1.0624,1.0624,1.0624,1.093,1.1598,1.2441,1.3428,1.4668,1.5166,1.541,1.541,1.541,1.541,1.541,1.5215,1.5225,1.541,1.5215,1.5225,1.541,1.541,1.541,1.54,1.5205,1.5117,1.5068,1.4443,1.4053,1.3799,1.3379,1.3076,1.2881,1.2881,1.2881,1.2881,1.2881,1.2881,1.2881,1.2881,1.2881,1.2881,1.2881,1.3742,1.4835,1.5454,1.6051,1.6423,1.6095,1.6238,1.6522,1.6522,1.676,1.6986,1.6986,1.7225,1.7338,1.7036,1.6986,1.6986,1.6986,1.6722,0.0,1.6407,1.6032,1.5679,1.5458,1.5308,1.5299,1.5488,1.5644,1.5859,1.6103,1.6309,1.6514,1.6719,1.6953,1.6941,1.6533,1.4647,1.311,1.1897,1.2031,1.2104,1.2104,1.2238,1.2305,1.2305,1.2305,1.2305,1.2305,1.2305,1.2305,1.2305,1.2305,1.1996,1.1545,1.1013,1.034,0.9592,0.8586,0.8179,0.7938,0.8804,0.8804,0.8898,0.9172,0.8991,0.8804,0.8804,0.9573,0.9927,0.9299,1.0,1.0624,1.0624,1.0624,1.0624,1.0624,1.0624,1.0624,1.0624,1.168,1.2998,1.435,1.5059,1.541,1.541,1.541,1.541,1.541,1.541,1.541,1.541,1.541,1.541,1.541,1.541,1.541,1.541,1.541,1.541,1.5371,1.4951,1.4521,1.4048,1.3779,1.3389,1.3027,1.3027,1.3027,1.3018,1.291,1.2881,1.2881,1.2881,1.2881,1.2881,1.2881,1.3658,1.4652,1.541,1.582,1.6008,1.5676,1.6049,1.6523,1.6666,1.7162,1.7576,1.7576,1.7903,1.8078,1.7652,1.7576,1.7576,1.7576,0.0,0.0,0.0,1.6029,1.544,1.5591,1.5292,1.5381,1.6143,1.637,1.6514,1.6855,1.6973,1.7031,1.7031,1.7344,1.7453,1.7244,1.4965,1.3278,1.2298,1.2305,1.2305,1.2305,1.2371,1.2371,1.2305,1.2371,1.2365,1.2305,1.2305,1.2305,1.2305,1.2305,1.2305,1.2224,1.1465,1.1083,1.0785,0.9835,0.9363,0.9299,0.8804,0.8804,0.9152,1.0241,0.9532,0.8804,0.8804,0.8878,0.9299,1.0301,1.0571,1.0624,1.0624,1.0624,1.0624,1.0624,1.0624,1.0624,1.0624,1.0725,1.2142,1.5197,1.5381,1.541,1.541,1.541,1.541,1.541,1.541,1.541,1.541,1.541,1.541,1.541,1.541,1.541,1.541,1.541,1.541,1.5371,1.4951,1.4521,1.4077,1.4048,1.3828,1.3467,1.3467,1.3467,1.3398,1.3018,1.2881,1.2881,1.2881,1.2881,1.2881,1.2881,1.3382,1.4133,1.5264,1.5231,1.4971,1.5454,1.599,1.6556,1.721,1.7739,1.8141,1.8141,1.8179,1.8191,1.8154,1.8141,1.8141,1.8141,0.0,0.0,1.6316,1.5922,1.5612,1.5418,1.5782,1.6152,1.6641,1.7051,1.7305,1.7334,1.7695,1.792,1.792,1.7949,1.7531,1.666,1.5615,1.414,1.2298,1.2305,1.2305,1.2305,1.2585,1.2565,1.2311,1.2585,1.2559,1.2305,1.2305,1.2305,1.2305,1.2305,1.2305,1.2298,1.2224,1.2052,1.1721,1.0785,1.0266,0.995,0.9753,0.9893,1.0033,1.0544,1.0194,0.9893,0.9893,0.9272,0.9232,1.047,1.0624,1.0624,1.0624,1.0624,1.0624,1.0624,1.0624,1.0624,1.0624,1.0624,1.202,1.5235,1.541,1.541,1.541,1.541,1.541,1.541,1.541,1.541,1.541,1.541,1.541,1.541,1.541,1.541,1.541,1.541,1.541,1.54,1.5234,1.4922,1.4531,1.4531,1.4268,1.3896,1.3896,1.3896,1.3877,1.3711,1.3652,1.3613,1.335,1.3271,1.3313,1.3405,1.3382,1.342,1.4283,1.4858,1.5312,1.5487,1.6288,1.7165,1.7756,1.8317,1.8719,1.8719,1.897,1.9196,1.9196,1.8932,1.8945,1.9623,0.0,1.7577,1.7924,1.7113,1.642,1.6243,1.6377,1.665,1.709,1.7285,1.749,1.7754,1.792,1.8008,1.8008,1.8252,1.7961,1.7017,1.6071,1.4808,1.3171,1.2592,1.2305,1.2305,1.2418,1.2412,1.2305,1.2418,1.2412,1.2311,1.2498,1.2472,1.2318,1.2498,1.2472,1.2305,1.2305,1.2231,1.2138,1.1767,1.155,1.1401,1.0463,1.0624,1.0624,1.0624,1.0624,1.0624,1.0624,0.988,0.9646,1.0517,1.0624,1.0624,1.0624,1.0624,1.0624,1.0624,1.0624,1.0624,1.0624,1.1538,1.3114,1.5294,1.541,1.541,1.541,1.541,1.541,1.541,1.541,1.541,1.541,1.541,1.541,1.541,1.541,1.541,1.541,1.541,1.541,1.541,1.541,1.5156,1.4805,1.4932,1.4717,1.4336,1.4336,1.4336,1.4316,1.4126,1.4077,1.4029,1.3799,1.3711,1.3665,1.3707,1.339,1.3214,1.3903,1.4771,1.5556,1.5491,1.6551,1.779,1.8319,1.8882,1.9321,1.9497,1.9823,2.0125,2.03,2.0037,2.0049,2.0803,1.9384,1.8347,1.9025,1.7821,1.692,1.6948,1.6943,1.7109,1.7539,1.7578,1.7705,1.7988,1.8135,1.8271,1.8408,1.8809,1.8677,1.7886,1.7102,1.6087,1.5,1.3191,1.2351,1.2445,1.2445,1.2392,1.2311,1.2505,1.2485,1.2318,1.2619,1.2579,1.2318,1.2525,1.2485,1.2305,1.2305,1.2305,1.2305,1.2305,1.2305,1.2305,1.0624,1.0624,1.0624,1.0624,1.0624,1.0624,1.0624,1.0624,1.0624,1.0624,1.0624,1.0624,1.0624,1.0624,1.0624,1.0624,1.0624,1.0624,1.0638,1.3606,1.542,1.542,1.542,1.541,1.541,1.541,1.541,1.542,1.541,1.541,1.542,1.541,1.541,1.541,1.541,1.541,1.541,1.541,1.541,1.541,1.541,1.5156,1.4834,1.5254,1.5156,1.4785,1.4785,1.4785,1.4727,1.4287,1.4087,1.4087,1.4087,1.4077,1.4,1.3633,1.3516,1.3649,1.4422,1.505,1.5497,1.5545,1.6837,1.8283,1.8871,1.9447,1.9974,2.0552,2.0718,2.084,2.1393,2.1493,2.1493,2.1493,2.0122,1.9123,1.9123,1.7698,1.6904,1.7334,1.7393,1.7549,1.7969,1.8008,1.8008,1.8018,1.8408,1.8828,1.9268,1.9687,1.9727,1.9307,1.8769,1.8334,1.7942,1.4222,1.2458,1.2822,1.2829,1.2592,1.2331,1.2933,1.2879,1.2325,1.2694,1.2579,1.2305,1.2305,1.2305,1.2305,1.2305,1.2305,1.2305,1.2305,1.2305,1.2305,1.0624,1.0624,1.0624,1.0624,1.0624,1.0624,1.0624,1.0624,1.0624,1.0624,1.0624,1.0624,1.0624,1.0624,1.0624,1.0624,1.0624,1.0909,1.173,1.4629,1.5861,1.4772,1.5141,1.541,1.541,1.541,1.5557,1.5869,1.5557,1.5566,1.5859,1.5557,1.541,1.541,1.541,1.541,1.541,1.541,1.541,1.541,1.541,1.5342,1.5234,1.5361,1.5332,1.5225,1.5225,1.5225,1.5205,1.5078,1.5029,1.498,1.4687,1.4385,1.4058,1.3984,1.3945,1.3945,1.4198,1.4976,1.6044,1.7078,1.8041,1.9008,1.9947,2.03,2.0391,2.0358,2.0354,2.0339,2.0249,1.9934,1.9934,2.0723,1.9614,1.8827,1.9158,1.8324,1.7676,1.7812,1.7822,1.7871,1.7998,1.8008,1.8135,1.8428,1.8848,1.915,1.9277,1.9687,1.9853,1.9727,1.8919,1.8597,1.8683,1.5597,1.4096,1.4197,1.345,1.3026,1.2946,1.3126,1.3113,1.2946,1.3033,1.2899,1.2612,1.2612,1.2492,1.2305,1.2305,1.2305,1.2305,1.2305,1.2305,1.2305,1.0624,1.0624,1.0624,1.0624,1.0624,1.0624,1.0624,1.0624,1.0624,1.0624,1.0624,1.0624,1.0624,1.0624,1.0624,1.0624,1.0624,1.1424,1.3427,1.442,1.4898,1.4742,1.5157,1.5393,1.542,1.5586,1.5801,1.6125,1.5977,1.6074,1.6318,1.6055,1.584,1.5674,1.5674,1.5566,1.541,1.541,1.541,1.541,1.541,1.541,1.541,1.541,1.541,1.541,1.541,1.541,1.541,1.541,1.541,1.5371,1.5117,1.4853,1.4609,1.4443,1.4394,1.4439,1.4754,1.5437,1.6481,1.7821,1.8466,1.8963,2.0005,2.0367,2.0618,2.0973,2.078,2.0511,2.0538,2.0008,1.9823,2.049,1.9576,1.8982,1.9442,1.863,1.8076,1.8242,1.8262,1.8193,1.8027,1.8154,1.8437,1.8857,1.9297,1.9609,1.9785,2.0029,2.0176,2.0176,1.9621,1.9425,1.9599,1.7526,1.621,1.5599,1.4408,1.3817,1.3817,1.348,1.332,1.322,1.3333,1.314,1.2822,1.2822,1.2572,1.2305,1.2305,1.2305,1.2305,1.2305,1.2305,1.2305,1.0624,1.0624,1.0624,1.0624,1.0624,1.0624,1.0624,1.0624,1.0624,1.0624,1.0624,1.0624,1.0624,1.0624,1.0624,1.0624,1.0624,1.1894,1.4893,1.3666,1.3558,1.5154,1.5331,1.5322,1.5371,1.5898,1.6143,1.6243,1.6553,1.6748,1.6787,1.6748,1.6514,1.6184,1.6145,1.584,1.5469,1.543,1.541,1.541,1.541,1.541,1.541,1.541,1.541,1.541,1.541,1.541,1.541,1.541,1.541,1.541,1.541,1.541,1.5342,1.4951,1.4844,1.5002,1.568,1.6133,1.6707,1.7813,1.8162,1.8507,1.9486,2.0022,2.0626,2.1968,2.1571,2.1113,2.1655,2.1042,2.041,2.0455,1.9779,1.9396,1.9775,1.8793,1.8223,1.8643,1.8691,1.8545,1.8164,1.8506,1.8916,1.9316,1.9736,2.0146,2.0547,2.0566,2.0586,2.0625,2.0586,2.0586,2.0625,1.9618,1.8443,1.705,1.5646,1.4962,1.49,1.4107,1.3615,1.33,1.3514,1.3307,1.2896,1.2815,1.2559,1.2338,1.2311,1.2305,1.2305,1.2305,1.2305,1.2305,1.0624,1.0624,1.0624,1.0624,1.0624,1.0624,1.0624,1.0624,1.0624,1.0624,1.0624,1.0624,1.0624,1.0624,1.0624,1.0624,1.0624,1.1269,1.2895,1.5331,1.6035,1.4529,1.5291,1.5541,1.5007,1.6038,1.6758,1.71,1.6855,1.6914,1.7236,1.6894,1.668,1.6572,1.6221,1.6066,1.5898,1.5557,1.541,1.541,1.541,1.541,1.541,1.541,1.541,1.541,1.541,1.541,1.541,1.541,1.541,1.541,1.541,1.541,1.5391,1.5303,1.5273,1.5273,1.5436,1.5821,1.6238,1.6507,1.7061,1.8134,2.019,2.076,2.1057,2.1849,2.1315,2.0632,2.04,1.963,1.9143,1.9495,1.9124,1.8914,1.936,1.8911,1.8662,1.9092,1.915,1.9111,1.9023,1.9394,1.9678,1.9775,2.0176,2.0469,2.0557,2.0566,2.0723,2.1074,2.0752,2.0732,2.1084,2.0497,1.9709,1.8505,1.7296,1.6291,1.5487,1.5323,1.4759,1.3874,1.3474,1.336,1.3394,1.2685,1.2498,1.2701,1.2392,1.2305,1.2305,1.2305,1.2305,1.2305,1.0624,1.0624,1.0624,1.0624,1.0624,1.0624,1.0624,1.0624,1.0624,1.0624,1.1049,1.1182,1.0685,1.0624,1.0853,1.1343,1.139,1.2462,1.4893,1.6088,1.6228,1.5171,1.5817,1.6062,1.5722,1.674,1.7041,1.6514,1.6628,1.7035,1.7676,1.7451,1.7236,1.7031,1.6797,1.6582,1.6367,1.6133,1.5918,1.5723,1.5723,1.5596,1.541,1.541,1.541,1.541,1.541,1.541,1.541,1.541,1.5547,1.5723,1.5723,1.5723,1.5762,1.5977,1.5889,1.5771,1.5986,1.6357,1.6689,1.6689,1.7197,1.8071,1.9511,2.0198,2.0677,2.1399,2.1051,2.0568,2.0264,1.9495,1.9023,1.9248,1.9092,1.9092,1.9521,1.9219,1.9111,1.9531,1.959,1.959,1.959,1.9785,1.9912,1.9912,2.0312,2.0566,2.0566,2.0762,2.0996,2.123,2.1211,2.1309,2.1543,2.1318,2.0844,2.0066,1.8727,1.7819,1.7245,1.6191,1.5372,1.4796,1.4001,1.3634,1.3526,1.3133,1.2953,1.2939,1.2632,1.2605,1.2719,1.2572,1.2612,1.2732,1.0624,1.0624,1.0624,1.0624,1.0624,1.0624,1.0624,1.0792,1.0855,1.0855,1.1697,1.1931,1.0962,1.0855,1.1249,1.2218,1.3135,1.5081,1.8228,1.6901,1.6165,1.6589,1.6693,1.6673,1.6537,1.7179,1.7024,1.5928,1.6378,1.7001,1.7794,1.7794,1.761,1.7272,1.7346,1.7178,1.6836,1.6758,1.6514,1.6182,1.6182,1.5957,1.5635,1.5635,1.5586,1.5537,1.5605,1.5586,1.5537,1.5615,1.583,1.6135,1.6152,1.6182,1.625,1.6621,1.6465,1.626,1.6631,1.7051,1.7383,1.7383,1.7695,1.8133,1.853,1.9291,2.0196,2.1152,2.0946,2.0623,2.0697,2.002,1.9424,1.9492,1.9443,1.9541,1.9961,1.9658,1.9551,1.9971,2.0029,2.0029,2.0029,2.0029,2.0029,2.0029,2.043,2.0684,2.0684,2.1103,2.1377,2.1445,2.1738,2.1924,2.1992,2.1924,2.1699,2.1338,1.9996,1.9268,1.8957,1.6919,1.5861,1.5613,1.4518,1.3901,1.3707,1.3614,1.3454,1.3253,1.2946,1.2979,1.318,1.2919,1.3019,1.328,1.0624,1.0624,1.0624,1.0624,1.0624,1.0624,1.0624,1.1416,1.2064,1.2064,1.2204,1.2238,1.2084,1.2064,1.2131,1.2285,1.6674,1.9736,2.0215,1.9531,1.8902,1.8566,1.7611,1.6845,1.6196,1.5765,1.6244,1.7687,1.6945,1.6636,1.6784,1.6784,1.6757,1.6762,1.7187,1.7344,1.7275,1.6894,1.6699,1.6641,1.6641,1.6611,1.649,1.649,1.6318,1.6025,1.6416,1.6299,1.6035,1.6426,1.6338,1.6133,1.6523,1.6641,1.665,1.6655,1.6689,1.665,1.6719,1.7051,1.7383,1.7383,1.7695,1.8086,1.8527,1.928,2.0292,2.1515,2.1183,2.0718,2.1032,2.04,1.9951,2.0332,2.0078,1.998,2.042,2.0107,1.999,2.042,2.0478,2.0478,2.0478,2.0478,2.0478,2.0478,2.0889,2.1143,2.1143,2.1562,2.1963,2.2324,2.2041,2.206,2.2422,2.207,2.1855,2.1787,2.1186,2.0203,1.8957,1.7658,1.6601,1.5598,1.4289,1.3828,1.3988,1.348,1.3394,1.3554,1.326,1.3173,1.3206,1.3166,1.3333,1.3547,1.153,1.153,1.153,1.153,1.153,1.153,1.153,1.1971,1.2305,1.2305,1.2305,1.2305,1.2305,1.2305,1.2305,1.2305,1.5177,1.7971,2.0401,1.9335,1.8704,1.9131,1.8672,1.8124,1.7499,1.6749,1.6881,1.8008,1.707,1.6636,1.6636,1.7139,1.707,1.6627,1.7388,1.7734,1.7715,1.7529,1.7314,1.709,1.709,1.6953,1.6665,1.6665,1.6611,1.6465,1.666,1.6602,1.6465,1.667,1.6768,1.6836,1.7031,1.709,1.7148,1.7383,1.7285,1.7148,1.7383,1.7588,1.7734,1.7734,1.8047,1.8477,1.8906,1.9459,2.0102,2.0659,2.0686,2.0632,2.0823,2.0569,2.0342,2.0537,2.0615,2.0723,2.0908,2.0771,2.0723,2.0918,2.0937,2.1035,2.1279,2.1299,2.1299,2.1299,2.1484,2.1592,2.1592,2.2002,2.2324,2.251,2.2559,2.2676,2.2861,2.2676,2.2353,2.1885,2.1689,2.1115,2.0193,1.8164,1.7009,1.6511,1.4677,1.3968,1.4068,1.3808,1.3774,1.3861,1.3567,1.3454,1.3474,1.3634,1.3781,1.3874]}]]